GFSSW_250_spd_000.txt.gz
Wind_Speed
49 48 48 47 49 49 47 48 49 54 54 55 56 61 64 69 72 74 75 81 85 86 85 78 73 68 67 62 63 71 72 79 82 77 74 70 70 73 71 68 64 62 64 64 62
48 49 49 47 51 50 48 50 50 58 50 48 49 49 53 58 65 76 82 82 85 89 89 85 79 72 68 67 63 62 65 73 77 77 75 74 71 72 74 69 65 63 64 65 63
48 48 50 47 52 52 50 53 55 55 45 45 50 53 52 55 63 68 83 88 87 88 92 90 84 77 70 69 63 60 61 67 68 64 69 72 74 72 70 69 67 67 67 66 67
49 48 53 49 51 52 51 50 56 47 45 50 51 53 55 59 65 66 77 90 93 89 94 92 88 82 72 67 64 61 62 62 61 60 61 65 68 70 68 62 62 61 60 58 56
49 48 54 51 52 53 53 52 50 44 45 45 51 53 55 64 73 73 72 80 91 96 94 97 93 87 76 71 68 65 63 60 54 51 54 56 60 61 64 62 61 56 54 51 52
49 48 53 52 53 54 52 54 48 42 43 49 49 54 60 71 81 75 73 73 86 100 99 98 94 91 83 77 70 68 63 60 51 51 51 51 50 54 51 48 50 50 47 45 43
49 47 52 51 55 55 54 56 42 41 46 48 56 61 64 76 80 80 72 73 78 101 105 101 99 95 87 79 73 70 60 55 49 50 52 49 47 46 38 40 44 43 40 40 38
49 46 52 50 54 54 56 50 37 43 46 54 61 67 70 77 79 80 69 69 83 97 109 105 102 97 88 82 77 69 60 53 52 50 53 48 47 38 37 36 37 38 37 37 34
49 45 50 51 53 55 55 45 41 47 56 59 65 66 65 66 68 72 60 68 87 100 109 108 103 98 93 84 78 68 56 57 51 51 51 49 43 39 38 33 34 35 34 32 30
48 44 50 50 53 54 53 42 43 49 57 65 67 64 55 52 61 56 53 62 76 91 104 107 102 100 93 85 66 60 58 60 52 51 49 45 43 38 38 32 31 31 28 27 30
46 44 49 50 53 54 47 43 46 51 61 67 64 52 42 44 50 46 49 55 64 77 97 106 101 97 85 75 71 66 70 61 54 52 47 44 44 36 35 30 28 28 26 25 27
44 43 47 51 52 53 41 45 49 58 60 63 55 44 35 38 42 40 46 51 60 74 97 104 96 94 87 81 74 72 67 61 52 52 49 44 44 35 33 27 25 25 22 19 21
42 42 46 51 49 46 41 48 54 60 58 61 51 41 33 33 37 40 46 53 65 80 99 96 94 95 86 80 75 70 66 62 55 55 49 44 42 33 33 28 27 25 23 21 18
39 39 44 50 48 38 42 49 54 61 58 54 47 40 28 27 33 37 46 53 69 85 98 90 97 92 84 79 74 72 68 59 57 55 51 46 40 34 29 26 27 27 23 25 20
36 38 40 45 43 34 42 48 53 59 55 48 42 32 21 24 32 38 45 52 71 90 93 93 97 94 86 78 76 77 70 59 61 55 52 46 43 37 32 30 29 26 26 25 26
34 36 39 43 35 33 41 45 48 50 50 48 39 25 21 24 32 40 45 56 80 94 90 96 98 92 83 81 80 77 70 61 61 56 53 47 42 36 32 31 30 28 26 26 28
30 33 37 41 28 33 39 44 42 43 44 44 33 15 11 20 32 40 50 66 88 92 93 100 97 89 87 85 82 76 70 65 61 54 53 45 42 38 33 32 30 30 31 31 30
26 29 33 37 25 31 34 37 36 37 41 41 29 11 5 18 32 46 62 82 91 89 96 97 95 92 88 82 74 71 68 62 58 56 53 46 45 36 33 31 30 31 34 35 33
24 27 29 28 21 28 31 32 29 31 37 36 30 17 12 21 36 52 71 88 88 89 96 97 91 85 83 79 73 71 65 60 60 58 54 49 46 40 35 32 32 34 37 36 36
22 24 26 23 18 23 26 27 21 25 33 33 32 25 25 23 31 50 74 83 82 86 93 93 91 83 79 78 76 71 68 62 59 59 55 48 47 43 40 37 36 37 39 41 40
21 22 24 19 15 19 21 21 14 20 29 30 28 26 26 23 36 61 71 71 72 79 85 87 82 78 78 74 71 68 64 61 60 57 55 52 48 46 43 41 41 41 41 42 45
21 20 20 17 13 15 17 15 7 15 23 27 25 27 32 34 44 52 58 59 63 70 78 80 77 76 76 74 72 70 67 63 57 58 58 57 48 45 45 46 45 45 46 48 48
21 18 15 15 15 13 12 11 2 10 17 23 25 23 25 32 36 40 48 53 60 69 77 80 77 74 71 71 66 62 64 66 65 65 59 55 56 52 48 47 47 49 52 52 51
22 18 13 17 19 13 11 14 6 6 10 17 22 24 25 25 28 35 43 48 56 67 76 79 77 73 70 71 70 67 68 68 67 63 64 61 60 53 51 53 56 57 56 55 56
22 19 13 20 21 18 14 13 6 10 10 13 18 22 23 24 26 31 38 43 49 60 70 75 76 74 73 72 70 69 66 63 60 65 62 63 60 60 58 61 61 61 62 62 62
24 20 12 25 23 17 17 11 3 14 16 16 16 18 21 22 26 31 36 42 47 53 64 74 77 76 73 71 69 67 65 62 62 61 60 64 65 64 62 63 64 65 66 66 67
25 22 14 25 30 24 17 15 7 8 18 19 16 19 20 18 20 24 30 36 43 47 55 69 75 75 73 71 68 65 65 67 68 67 69 67 71 67 68 67 68 68 69 70 71

GFSSW_250_spd_003.txt.gz
Wind_Speed
49 49 52 50 49 49 47 48 50 50 50 48 48 49 54 56 60 64 66 67 67 70 74 78 81 78 73 67 64 65 63 69 75 82 81 75 78 76 75 76 74 75 70 66 64
51 48 51 52 50 49 50 48 50 50 51 48 49 52 57 53 54 57 68 72 74 71 72 78 81 83 77 73 68 66 63 64 70 75 80 78 78 79 77 75 74 71 68 69 68
52 50 51 49 52 49 52 50 51 50 51 51 49 53 49 47 45 45 54 66 75 78 79 78 82 84 84 80 73 68 62 70 70 68 73 76 79 82 80 78 75 70 65 69 68
54 53 52 50 52 51 52 53 53 52 51 50 50 51 48 46 49 46 51 59 67 73 83 85 84 86 85 84 79 71 68 70 69 65 64 66 74 80 78 77 73 69 67 67 66
52 52 54 49 50 53 53 54 54 53 52 48 54 50 48 44 48 50 51 59 61 65 75 88 89 88 86 87 86 76 73 72 70 62 61 62 63 68 75 76 71 68 69 70 68
53 51 51 52 50 55 53 55 55 54 54 50 53 49 44 43 48 50 55 61 69 70 69 75 90 93 89 89 89 81 80 74 69 61 57 57 59 58 63 58 58 63 64 66 65
55 53 54 55 52 56 55 55 55 55 54 54 50 45 36 45 50 58 63 69 74 75 81 77 78 98 93 91 90 89 83 76 67 62 57 56 54 53 53 50 50 53 55 52 53
57 55 57 57 54 55 56 54 57 56 55 55 46 43 42 56 60 68 73 75 80 83 84 85 78 94 98 93 92 90 87 75 67 63 58 54 52 51 44 46 46 47 43 43 41
61 59 59 60 57 56 55 54 57 57 57 55 46 48 51 65 70 73 74 73 76 81 87 86 83 86 104 97 95 93 85 73 68 62 59 52 54 50 46 43 43 43 41 36 32
64 62 61 61 56 56 54 54 57 58 59 53 50 55 60 71 73 68 68 73 74 82 84 77 75 84 102 103 94 88 82 76 69 62 57 55 57 48 46 43 43 39 36 31 31
68 62 62 60 53 55 53 55 59 58 58 54 55 63 66 70 68 70 70 73 77 83 73 65 76 93 99 100 90 90 86 81 74 66 55 56 57 48 47 45 42 38 33 32 33
68 61 59 58 53 53 53 54 58 61 54 56 60 64 66 67 70 70 68 71 77 73 60 65 77 86 100 101 96 94 88 83 74 63 57 56 56 50 47 46 43 36 33 33 30
64 57 57 54 53 49 53 56 58 62 53 55 61 60 68 68 62 61 58 64 65 52 52 58 59 93 98 101 97 95 88 81 71 61 57 57 56 51 47 46 43 37 34 30 26
60 55 55 52 52 48 51 56 61 59 49 54 60 61 68 66 53 50 49 49 42 43 46 47 68 79 89 100 95 91 84 79 71 61 61 60 58 50 48 47 41 37 33 27 26
55 55 53 48 49 49 50 55 58 56 54 48 56 64 65 56 48 40 34 30 34 38 38 51 57 68 89 91 90 83 89 80 69 63 60 58 57 54 50 46 42 37 31 26 27
51 50 51 46 45 46 49 53 52 55 56 52 60 62 58 45 38 29 24 25 29 38 48 53 62 79 95 91 94 91 85 76 71 64 60 60 59 53 49 40 37 33 28 27 30
52 48 47 47 42 43 45 50 48 52 50 54 58 55 45 35 27 22 19 24 33 42 50 62 81 99 99 99 96 91 82 77 70 64 64 63 59 55 45 39 36 32 30 30 30
50 48 43 43 36 41 43 43 45 44 46 52 51 43 30 20 16 19 23 28 38 53 63 79 98 100 95 99 95 89 78 69 60 63 65 63 59 54 46 41 36 34 31 31 32
48 45 42 34 32 36 39 39 41 36 41 43 41 30 15 11 13 22 28 36 44 57 78 93 94 92 97 100 92 85 81 73 66 65 60 61 60 55 47 41 37 35 33 32 32
45 39 38 30 29 31 32 35 34 32 34 35 35 17 6 8 18 28 34 50 64 79 90 92 87 84 82 87 82 77 72 66 69 67 65 64 61 54 47 44 40 39 36 33 33
42 38 29 27 26 29 29 29 25 25 27 30 32 22 13 17 24 32 47 64 78 87 91 88 89 99 99 87 79 74 68 69 72 67 65 65 61 51 50 45 43 42 39 37 37
42 35 28 23 22 25 26 23 17 17 19 24 30 29 18 23 36 48 61 72 82 88 88 92 92 87 83 80 78 77 76 74 70 66 65 64 56 55 53 49 45 44 42 41 43
42 33 28 20 22 23 24 19 10 9 9 16 25 25 22 23 36 56 67 75 78 80 79 83 88 88 88 81 75 66 64 68 71 66 64 61 56 56 52 46 45 44 45 46 46
40 32 28 20 20 21 24 15 6 2 2 10 18 21 24 25 35 50 62 64 62 64 68 75 80 82 77 74 74 73 72 71 68 64 62 60 55 57 49 48 48 48 49 50 50
40 33 25 22 20 23 23 13 1 6 6 9 13 16 19 29 33 37 41 45 49 54 60 68 72 71 69 70 72 71 70 67 62 66 62 63 58 54 51 53 54 55 53 55 56
41 34 25 23 21 26 22 16 4 10 10 10 14 17 18 20 30 36 37 41 47 54 61 68 72 75 73 71 70 69 68 62 60 58 59 62 61 61 57 58 58 58 61 62 61
42 35 25 22 22 28 24 15 7 14 14 13 13 16 22 23 25 27 36 40 43 50 59 65 71 73 71 69 67 64 63 64 65 64 64 65 72 56 62 62 64 64 65 64 64

GFSSW_250_spd_006.txt.gz
Wind_Speed
61 60 57 51 52 52 53 55 54 51 51 49 47 47 49 49 49 51 56 57 60 61 63 64 66 71 76 76 75 72 68 63 65 68 69 84 77 74 76 76 73 76 72 68 72
60 60 54 51 51 52 54 54 58 52 50 50 50 50 49 50 50 52 57 57 62 65 68 68 68 69 73 79 79 76 70 67 70 70 67 71 77 78 80 78 78 76 72 70 71
58 58 56 52 52 55 55 53 56 60 50 51 51 51 52 51 51 49 55 60 61 65 70 73 72 70 70 77 83 81 73 75 71 71 68 61 73 80 80 82 80 77 68 65 73
63 58 61 56 55 56 57 56 58 60 55 51 51 53 53 53 51 49 57 62 60 60 66 72 76 75 74 73 83 84 79 78 75 72 65 62 65 67 78 83 78 76 76 73 72
67 68 64 59 59 59 58 58 55 56 57 51 52 54 54 55 54 54 54 58 60 58 59 63 73 78 80 78 79 83 84 83 81 74 66 63 60 65 66 76 81 76 74 74 76
76 76 72 66 61 58 59 60 57 56 59 53 53 55 55 55 60 58 54 55 59 57 55 55 59 71 80 84 82 81 85 87 86 77 69 63 61 60 66 65 72 75 77 77 77
83 85 84 75 71 62 62 62 60 60 61 60 56 57 55 59 59 61 49 55 55 53 49 54 58 62 72 83 86 83 84 90 87 78 70 66 60 58 65 62 54 64 71 72 73
72 71 81 77 75 71 66 61 62 63 65 63 60 58 56 63 61 57 48 49 53 56 59 63 66 68 70 77 85 90 89 87 85 81 73 68 58 62 59 51 53 53 56 54 56
86 86 80 76 76 72 69 66 64 68 66 63 62 58 58 65 61 53 51 56 60 62 66 70 72 73 75 74 82 91 89 83 88 84 78 70 62 63 58 49 48 45 47 47 48
88 87 80 77 75 69 66 66 65 68 66 64 61 58 61 64 60 55 58 62 64 69 70 71 72 73 74 77 72 78 90 88 87 84 81 73 63 64 56 53 47 44 45 44 39
79 83 86 83 80 73 68 68 69 63 65 65 61 62 62 64 61 63 65 67 67 68 73 79 80 73 74 77 73 80 90 95 88 87 83 75 67 66 57 53 46 44 45 40 36
63 73 80 79 79 76 76 68 68 62 61 61 64 63 68 65 64 69 68 65 70 73 79 81 77 76 83 78 72 71 89 95 90 87 86 76 66 65 56 52 47 46 44 39 36
60 63 73 77 75 71 67 65 67 62 60 56 63 67 73 63 67 72 69 75 78 77 80 83 73 79 74 73 65 62 84 90 87 87 82 76 66 63 54 53 49 47 45 41 35
62 60 67 71 71 65 64 62 62 62 59 56 64 70 69 66 65 73 76 79 75 75 82 73 73 71 67 59 56 61 75 86 83 82 79 74 64 66 55 51 49 48 45 41 38
63 60 65 66 64 57 60 57 57 64 59 58 64 67 63 65 70 76 77 71 66 70 66 63 64 62 58 52 58 64 83 87 91 88 81 74 66 60 51 50 52 48 45 42 40
62 60 62 63 55 53 56 52 54 61 59 61 65 57 58 68 73 75 71 62 54 52 48 50 50 48 50 58 66 90 92 96 85 83 80 71 66 64 53 54 55 46 44 45 41
59 59 59 54 48 51 48 45 54 59 57 61 58 55 62 68 70 67 58 48 38 36 39 36 38 42 46 61 81 86 92 96 88 82 84 73 65 63 55 52 52 46 45 45 42
56 57 53 45 48 45 40 46 53 51 56 55 53 57 63 63 58 52 39 31 26 25 26 30 33 40 48 59 70 81 88 86 88 87 75 66 62 58 52 53 52 47 46 47 42
54 53 49 43 44 39 37 47 45 47 49 47 50 55 57 51 42 30 23 19 16 22 27 31 41 52 63 67 81 89 85 80 80 78 75 67 66 59 54 52 50 48 46 44 38
51 49 49 42 40 35 39 42 40 43 40 41 46 51 43 35 24 18 17 16 20 26 34 50 59 67 73 84 91 89 85 82 84 81 71 69 66 59 54 52 53 50 46 41 37
48 49 48 40 35 34 37 37 35 33 32 34 41 45 30 15 8 10 19 28 30 36 52 63 69 77 79 84 89 90 91 88 73 75 72 68 62 57 54 56 55 52 46 41 37
48 50 45 37 34 33 33 31 29 24 24 26 35 36 23 10 2 11 30 41 52 62 65 71 83 85 85 80 82 86 84 82 79 72 70 67 63 59 57 56 56 51 46 41 40
53 50 42 36 34 30 30 26 21 17 15 19 26 31 24 16 5 25 41 56 61 69 76 76 82 84 80 87 85 83 84 79 76 72 70 66 61 59 58 56 56 52 49 45 44
55 48 41 37 31 31 26 22 14 12 8 11 18 23 21 10 13 36 52 65 68 77 79 76 81 82 83 84 84 85 84 79 72 69 66 63 60 58 56 55 55 54 51 49 47
54 49 42 37 31 29 23 18 11 9 5 2 8 14 14 7 14 38 54 65 68 74 79 75 79 85 83 80 76 76 76 68 65 67 64 61 60 58 56 56 56 53 51 50 50
56 49 44 35 33 27 21 17 12 9 8 5 5 5 7 8 10 17 56 63 70 72 77 77 81 79 76 76 78 74 65 59 62 59 60 58 58 55 55 56 54 52 53 53 53
56 50 44 37 31 25 21 18 11 14 12 10 9 8 8 8 16 28 35 43 55 59 61 63 63 61 70 75 74 67 62 62 60 60 62 59 59 51 52 54 56 56 57 56 58

GFSSW_250_spd_009.txt.gz
Wind_Speed
80 76 73 66 62 58 55 56 53 50 52 53 50 47 47 48 49 46 49 45 45 49 52 53 55 59 60 68 73 75 72 69 70 69 73 63 70 77 76 76 77 77 78 71 70
80 76 74 68 61 58 55 58 56 51 51 53 54 52 46 48 48 50 50 47 48 48 54 55 57 60 61 63 68 73 74 74 76 74 71 68 65 68 75 77 77 75 78 74 73
79 76 72 65 59 58 58 58 57 53 53 55 56 58 56 51 49 53 54 51 49 49 54 57 58 58 63 65 64 69 74 78 79 78 75 68 59 62 70 75 78 78 77 74 72
75 75 72 66 62 58 58 54 55 56 57 56 58 60 57 51 49 52 54 54 50 52 52 54 60 60 65 67 69 67 70 79 82 80 77 71 65 61 65 69 77 78 79 73 74
77 73 71 69 66 63 59 59 59 59 57 57 54 59 59 54 53 50 52 55 55 52 54 58 59 61 63 67 71 71 72 72 81 81 79 75 68 67 61 69 67 74 79 76 73
70 76 75 71 68 68 63 67 66 63 65 60 54 55 59 60 56 52 54 57 58 56 55 58 58 59 60 62 69 75 74 71 74 81 82 78 72 70 65 65 66 64 74 75 76
72 67 69 71 71 68 69 68 70 72 74 67 63 58 62 62 61 58 57 59 60 60 60 60 58 57 57 59 62 64 75 74 72 76 81 82 73 70 72 64 62 59 58 65 75
72 74 72 72 67 69 75 72 74 76 63 61 57 56 64 65 64 63 57 64 62 62 62 63 57 56 57 57 59 60 66 74 76 78 79 85 75 75 76 65 60 60 56 52 57
63 77 75 75 76 79 77 75 72 70 69 68 61 57 64 68 67 63 61 65 63 64 65 60 52 55 54 53 53 56 60 67 71 81 82 85 78 80 81 67 60 58 54 49 52
49 61 72 79 81 80 77 76 74 74 74 74 62 61 65 67 69 66 65 67 66 65 67 57 50 50 55 57 56 63 65 66 64 75 87 82 78 82 84 68 62 59 52 47 49
47 46 54 65 73 79 80 82 79 76 73 73 68 68 66 71 69 68 66 67 70 70 67 61 52 53 62 65 62 61 64 65 64 74 90 83 80 81 86 70 65 58 50 45 44
53 52 52 49 50 60 75 83 85 85 75 75 73 68 72 70 69 72 69 70 72 75 70 61 53 68 71 70 67 67 66 61 64 71 89 87 80 84 84 71 66 59 48 44 42
60 57 55 54 55 57 54 57 69 79 72 63 71 68 70 71 69 76 72 75 76 77 72 64 64 74 74 75 74 70 65 65 62 71 78 89 84 82 79 72 67 58 47 44 43
65 64 62 58 56 57 57 54 60 64 64 59 65 68 66 68 69 74 76 79 80 74 74 68 78 81 83 79 79 74 74 75 68 73 69 82 83 77 76 73 67 57 45 45 45
68 67 64 61 61 58 56 54 58 55 49 54 57 59 65 71 70 77 79 84 78 78 81 77 81 87 83 80 86 77 79 74 72 67 68 81 82 75 81 77 63 54 44 45 47
73 73 67 66 64 59 57 53 52 48 46 45 50 56 62 70 71 75 82 80 81 83 84 81 81 81 78 80 77 72 72 68 66 62 72 80 75 76 75 69 61 52 47 47 47
80 78 72 68 67 61 56 50 44 45 43 39 49 56 61 67 71 78 75 77 82 84 76 64 61 61 63 64 59 55 60 58 61 63 67 70 69 74 73 69 60 50 50 49 48
82 81 75 71 68 59 51 41 39 40 36 41 47 54 61 67 71 70 75 77 72 60 50 45 46 44 46 47 45 51 52 52 52 62 62 72 76 75 70 67 57 53 51 49 49
75 72 69 67 61 52 42 35 39 31 34 41 48 55 62 67 60 69 64 48 40 34 31 31 32 32 33 36 39 49 49 51 61 73 78 81 81 77 70 65 57 54 51 51 48
63 62 57 58 51 43 33 36 30 27 35 40 48 54 59 56 58 51 39 30 24 20 18 17 18 23 26 30 41 59 72 73 74 76 76 75 75 75 68 63 57 55 53 51 48
51 49 48 49 41 34 35 31 27 29 30 38 46 50 49 52 41 30 20 14 12 6 6 10 14 22 30 35 47 58 75 80 77 69 74 73 74 69 65 60 57 55 52 51 47
45 42 46 41 37 37 36 27 26 25 29 36 37 39 44 38 15 14 11 4 12 18 26 26 24 34 40 52 64 84 78 75 68 63 70 72 71 68 64 60 55 54 51 50 48
44 45 42 42 41 40 31 27 24 23 27 29 29 29 36 26 27 13 7 23 43 54 61 60 62 62 64 74 81 88 81 69 38 35 61 66 67 64 60 58 57 53 51 51 50
42 42 43 48 45 37 30 27 22 21 21 19 20 23 16 30 9 8 19 51 53 64 63 63 67 67 63 71 79 75 69 56 43 36 64 67 67 62 60 58 56 53 52 54 52
39 45 53 50 46 36 32 26 20 18 18 13 11 16 7 15 8 5 41 54 63 68 61 58 59 68 64 65 64 63 47 54 43 59 70 68 65 62 59 55 55 52 51 53 54
49 54 56 51 44 38 32 24 19 18 13 8 4 12 8 8 3 2 37 56 61 64 65 57 51 69 70 68 70 64 69 62 76 69 71 67 64 61 57 54 53 53 53 53 55
58 60 56 50 44 37 30 22 20 18 12 9 4 10 6 7 7 11 29 48 56 63 67 65 63 73 69 71 75 69 74 76 67 63 66 62 60 57 54 54 52 51 51 52 55

GFSSW_250_spd_012.txt.gz
Wind_Speed
77 83 80 85 82 78 75 69 62 55 54 54 53 50 49 48 44 45 43 43 47 50 51 49 49 48 49 52 52 58 57 69 77 78 79 72 66 66 68 77 82 83 85 80 77
69 79 79 79 83 80 77 74 68 62 58 56 53 50 48 51 50 53 42 46 46 47 51 52 49 48 48 50 49 49 54 66 76 80 79 73 68 67 69 65 79 82 80 82 77
64 76 78 75 79 80 77 76 73 63 59 58 53 51 48 52 54 56 49 47 48 49 48 53 51 48 47 50 50 50 49 57 67 76 81 77 73 70 68 69 68 76 78 77 77
60 73 78 76 75 77 78 74 71 65 59 58 54 50 48 50 51 56 54 50 47 49 48 49 52 52 50 46 49 47 51 55 63 69 76 80 77 74 70 73 72 66 71 72 74
55 68 76 76 72 73 76 73 71 66 62 57 57 53 53 52 52 53 57 52 48 48 51 50 50 52 51 47 48 48 56 59 66 65 70 79 79 77 73 76 72 69 65 69 71
50 60 74 76 73 73 72 72 71 68 64 61 60 59 62 59 56 57 59 60 55 49 50 54 53 50 50 50 50 52 55 57 64 71 70 73 78 76 79 81 74 69 64 61 65
44 50 62 71 69 72 71 69 70 69 68 63 59 61 64 65 63 59 62 66 63 58 55 52 54 54 52 53 53 52 53 58 61 69 75 73 71 77 83 83 77 71 67 59 59
40 49 56 63 65 63 68 70 75 70 67 66 62 61 68 64 66 57 58 66 63 61 61 57 54 54 54 55 54 55 55 56 59 63 71 77 67 73 81 85 80 75 69 64 58
39 44 53 60 67 66 63 61 62 65 68 67 67 70 66 70 65 62 61 65 61 62 62 60 56 55 56 55 55 54 51 56 58 61 67 77 70 74 77 86 82 78 73 67 60
44 42 47 56 64 67 71 73 70 70 69 66 67 68 69 70 69 68 66 68 63 63 65 64 59 56 56 58 55 53 52 56 61 65 68 72 72 77 78 83 84 79 73 69 62
55 49 47 48 54 63 73 76 75 73 72 71 67 69 68 71 73 74 73 73 70 67 70 68 61 57 63 65 62 59 51 49 55 59 64 64 66 76 80 80 81 79 75 69 64
61 59 54 51 48 49 56 64 77 77 74 76 79 80 77 76 76 81 78 78 76 74 72 69 64 66 66 66 64 63 55 51 58 64 64 64 60 69 78 80 77 79 76 71 66
63 64 63 59 53 53 50 49 50 57 66 72 76 79 86 85 84 86 85 81 84 78 79 76 70 70 70 71 70 68 60 61 62 70 67 69 63 67 71 82 79 76 76 72 68
57 63 65 64 60 58 59 56 51 52 49 50 55 63 73 82 84 89 87 85 76 73 76 72 74 76 76 74 76 70 69 69 69 70 67 75 63 69 71 77 80 73 74 72 69
61 61 63 66 65 64 61 58 55 55 49 49 58 65 68 69 72 79 80 77 74 74 75 73 76 79 77 82 83 74 77 75 75 73 77 71 61 55 65 70 78 70 72 72 69
70 65 65 63 67 64 62 59 58 57 50 52 58 61 59 60 63 67 71 72 72 74 74 77 79 84 86 89 85 84 83 81 79 80 72 68 62 50 57 59 77 74 71 73 68
74 73 72 67 70 65 61 60 57 52 53 54 54 55 54 56 57 60 66 70 73 77 78 81 85 85 86 88 87 89 90 89 86 79 55 72 59 40 57 64 74 74 71 74 67
79 75 74 74 71 69 64 62 54 56 57 51 53 52 50 52 52 61 63 69 73 78 78 80 81 81 82 80 82 85 85 80 71 60 64 76 41 43 64 73 74 72 71 72 63
62 71 82 76 74 68 62 57 58 59 55 51 49 43 45 49 54 58 62 66 69 73 73 66 59 56 55 53 54 58 54 66 65 62 61 53 44 62 74 63 67 67 66 67 61
49 66 78 77 76 68 61 58 58 56 45 46 40 36 43 47 52 55 58 63 64 52 44 39 36 34 34 35 35 36 44 41 39 46 45 46 56 61 56 58 66 65 70 68 60
49 55 65 70 71 64 58 59 53 43 40 36 30 34 39 45 46 51 55 47 38 31 28 25 21 16 14 18 26 31 30 34 47 54 51 50 54 61 63 67 70 71 70 65 58
44 52 44 42 51 52 55 50 40 35 35 25 27 31 37 39 41 33 24 20 18 16 8 1 3 7 12 18 26 34 46 59 56 53 54 55 62 66 68 71 71 68 67 61 55
42 45 41 39 41 46 49 39 32 37 26 22 23 28 30 28 16 20 15 1 6 21 20 30 33 30 32 35 35 45 56 60 66 61 61 62 62 66 70 68 65 65 63 58 53
44 39 33 36 44 46 38 36 40 30 22 17 19 24 22 5 12 15 20 42 58 56 57 48 58 55 57 63 51 53 59 57 58 48 57 54 55 61 66 65 65 66 60 55 51
32 39 40 44 46 42 43 45 35 26 18 13 16 13 8 2 5 12 40 57 59 58 58 62 57 62 53 51 55 43 38 49 49 35 54 62 58 65 64 65 65 61 57 54 52
35 42 48 45 44 51 50 40 29 21 18 14 10 5 12 12 2 21 46 52 53 52 55 63 65 59 53 56 49 36 44 34 31 33 54 60 61 64 63 65 62 57 54 51 51
40 47 48 51 56 54 45 36 31 27 21 15 11 4 9 10 12 11 36 47 47 41 49 53 68 57 51 46 44 45 34 27 27 23 50 56 62 61 63 61 57 53 50 48 47

GFSSW_250_spd_015.txt.gz
Wind_Speed
78 76 72 73 72 72 75 75 77 83 77 74 66 61 55 52 50 51 47 40 46 46 45 43 43 47 45 48 50 51 48 54 61 68 75 72 69 67 66 64 65 71 81 79 77
76 79 74 75 74 76 80 86 87 82 81 75 71 65 60 57 54 56 48 48 42 46 44 42 43 44 46 47 46 45 44 52 61 64 70 66 67 70 69 70 67 67 69 77 79
68 75 79 74 75 79 84 85 83 82 80 78 75 68 67 63 58 57 52 52 47 44 46 43 42 41 45 47 47 45 44 52 57 59 63 65 65 71 74 74 76 70 65 66 70
62 70 76 72 72 74 77 78 77 76 77 76 76 74 70 66 60 60 55 53 51 45 44 44 43 41 43 44 49 44 47 50 55 58 60 62 63 68 73 79 79 76 69 65 63
57 61 68 65 64 67 71 75 75 74 75 75 76 74 72 70 64 59 58 57 56 49 51 50 45 42 43 45 48 45 51 51 52 55 59 62 60 61 69 78 82 80 75 69 67
54 55 56 55 57 65 70 72 74 72 73 74 74 74 70 69 62 61 61 58 56 54 55 51 53 48 47 45 49 49 49 50 50 53 56 58 60 61 63 73 81 83 79 75 67
52 50 49 48 54 64 70 72 73 69 71 74 73 74 71 64 65 65 63 62 60 59 57 58 59 57 51 52 48 50 52 52 52 55 55 60 59 60 67 68 75 81 81 78 71
50 51 47 43 51 63 71 73 72 73 69 71 74 72 72 69 68 67 64 65 65 62 62 63 62 58 58 57 55 50 53 55 55 58 59 62 49 61 68 70 69 76 79 78 74
50 50 48 42 46 58 68 75 73 71 70 69 69 71 71 70 70 70 66 64 63 66 65 65 67 63 57 56 57 53 53 57 58 62 62 59 52 62 69 69 73 72 74 79 75
51 52 49 46 41 52 62 68 75 73 71 69 70 72 70 70 70 70 69 70 69 65 69 67 66 65 58 59 58 60 57 56 57 58 61 56 49 60 66 67 73 75 70 75 76
51 55 53 49 47 43 56 62 69 74 74 69 67 69 66 68 70 67 69 75 75 75 74 73 67 67 68 70 66 62 59 56 57 58 61 55 51 57 63 66 68 76 72 69 74
50 52 58 56 53 48 44 59 66 68 72 73 73 71 71 71 74 75 76 76 75 76 77 75 74 74 73 73 71 68 65 62 61 63 61 60 49 56 57 59 63 69 74 69 69
52 51 57 62 59 51 51 50 54 64 71 73 72 74 77 76 76 78 79 78 79 80 81 86 80 81 78 79 80 76 73 72 67 69 64 58 48 53 55 57 59 58 66 69 65
55 55 55 58 61 58 58 55 51 51 53 63 65 68 73 73 75 78 82 83 85 89 91 88 91 93 90 86 84 81 80 79 75 72 66 62 45 51 55 52 52 52 57 67 68
66 60 57 54 56 67 69 60 54 54 47 46 47 50 54 58 60 67 73 74 74 78 82 82 84 91 87 90 89 79 81 79 78 75 70 64 50 45 54 53 58 60 60 63 71
74 67 59 53 54 63 64 61 62 59 47 48 52 53 53 53 55 60 67 70 75 80 81 80 77 77 81 83 83 81 81 81 82 81 67 69 54 41 55 52 57 60 60 62 71
68 64 67 58 62 64 55 60 60 55 53 53 54 54 54 56 59 62 65 70 76 76 73 71 70 70 74 80 82 82 84 86 87 83 65 73 60 32 52 56 56 56 55 58 67
56 62 69 71 73 61 57 55 52 54 57 57 54 52 55 57 59 62 66 71 73 70 67 66 66 71 73 76 79 81 86 87 89 83 80 86 51 38 53 61 65 60 56 54 61
49 56 75 75 73 64 60 55 53 56 56 54 48 50 55 57 60 64 67 67 64 62 64 65 67 72 77 80 85 88 90 94 89 83 86 79 59 50 56 63 67 60 59 50 54
47 53 60 63 70 70 66 59 59 59 55 50 51 52 56 57 60 61 57 58 58 61 65 70 70 72 66 60 62 68 71 69 67 66 65 62 59 55 67 68 64 59 57 54 58
42 46 56 53 67 73 65 66 63 60 51 49 50 50 51 54 51 49 54 53 54 57 52 51 46 43 41 42 43 47 48 46 46 45 48 51 56 72 74 76 64 64 61 58 63
34 43 44 41 47 61 73 72 64 56 49 48 48 48 49 41 40 42 45 41 36 34 35 33 33 30 29 28 30 28 30 31 34 38 44 47 59 68 67 61 59 60 61 59 66
33 39 46 44 50 60 74 70 63 56 50 46 45 44 35 28 33 37 20 26 21 18 15 15 8 10 8 5 3 1 12 19 24 36 45 55 56 55 52 53 57 56 54 59 65
33 36 33 28 41 54 60 60 56 51 46 41 39 32 20 22 7 7 12 9 15 24 29 27 32 29 31 34 26 26 11 17 28 38 45 48 48 50 51 52 53 52 55 63 64
27 30 30 32 41 42 44 50 45 42 38 37 32 21 12 17 18 14 21 28 41 48 49 44 40 44 43 40 42 42 37 28 34 42 49 52 50 48 45 47 48 53 60 62 61
30 32 38 42 44 43 41 42 41 41 41 34 24 15 15 16 22 13 12 41 49 50 48 44 43 39 45 38 35 36 49 44 42 50 52 52 51 39 31 42 45 54 61 61 60
31 38 39 37 37 40 43 45 48 47 39 29 20 14 19 17 15 13 19 46 48 46 45 40 41 45 40 29 29 30 38 43 47 29 31 44 33 42 45 41 49 56 58 59 59

GFSSW_250_spd_018.txt.gz
Wind_Speed
73 72 73 77 83 82 79 75 71 71 74 81 78 75 73 73 67 61 58 53 51 49 47 45 47 49 51 51 51 50 48 51 57 61 64 60 60 64 63 62 60 62 61 62 65
71 74 74 75 77 81 83 80 75 73 71 72 76 78 78 77 73 70 57 55 54 52 46 43 44 47 48 50 48 46 47 52 58 59 60 56 54 58 62 65 66 66 66 62 61
68 70 70 71 76 73 80 81 80 75 74 76 74 73 72 74 78 77 65 61 57 55 50 46 43 42 49 50 48 45 44 52 56 55 55 55 51 54 59 64 69 69 67 67 64
63 66 66 64 67 71 74 80 79 77 75 74 75 74 76 76 73 78 73 64 63 61 58 51 47 45 48 48 50 44 47 51 55 57 54 52 48 51 56 63 66 68 68 70 68
61 61 62 61 65 68 70 75 79 77 76 76 77 79 81 83 83 77 77 73 67 64 59 56 52 43 43 47 45 45 49 50 51 56 56 54 48 47 53 62 65 68 69 70 72
54 55 57 58 59 61 64 68 73 76 77 77 81 85 84 82 76 77 77 76 71 66 64 61 58 51 51 50 47 44 46 49 53 53 55 54 54 46 52 60 63 66 69 70 71
49 50 53 54 55 57 60 63 68 74 79 83 84 82 78 74 76 76 75 75 75 70 68 62 59 57 55 56 53 51 49 50 52 57 58 58 50 47 54 53 59 64 64 68 70
43 45 50 52 55 56 57 60 63 69 76 76 76 75 74 74 75 75 74 74 74 70 66 61 60 62 59 61 58 56 57 58 59 58 58 62 46 55 55 56 55 61 65 66 67
39 42 48 53 56 56 57 54 54 57 64 69 73 73 74 73 73 73 74 73 73 72 68 62 65 64 63 65 64 65 60 58 59 62 61 57 52 59 57 57 54 56 60 63 66
37 40 46 53 55 54 55 51 47 51 60 70 74 75 73 72 73 73 73 73 72 71 71 69 67 66 67 71 72 71 65 60 62 63 60 57 52 55 59 59 56 56 58 60 63
39 40 42 51 53 54 51 48 43 47 63 74 74 74 72 71 73 72 72 73 74 71 71 71 71 69 72 75 74 73 71 67 65 65 65 61 55 55 57 58 56 55 54 57 60
47 46 44 46 54 54 50 46 45 45 61 71 75 75 75 73 69 68 70 71 71 72 72 72 73 76 78 78 77 80 79 73 69 72 71 68 53 55 54 52 53 52 51 54 59
55 52 49 47 50 54 53 50 45 42 50 67 75 75 76 72 71 71 71 70 72 75 82 82 81 81 84 85 85 83 81 84 82 79 74 72 58 58 56 53 52 50 49 49 56
65 61 58 55 53 52 56 54 51 47 42 56 65 73 75 76 72 77 76 77 79 82 83 81 81 83 83 83 84 84 84 85 85 89 80 78 59 59 56 54 49 49 45 45 52
67 66 66 63 53 49 60 63 57 50 43 42 47 64 67 69 72 75 74 74 74 77 78 79 81 83 79 84 84 83 89 92 95 95 90 82 66 57 62 58 49 47 46 47 51
48 58 68 64 58 55 62 62 57 54 45 41 41 48 54 59 63 68 72 71 71 67 65 67 65 66 73 81 81 84 88 89 86 87 77 77 71 53 56 58 52 48 48 48 49
40 48 57 71 60 61 60 55 57 53 50 44 44 45 44 45 50 54 55 54 56 57 59 61 67 71 76 81 86 88 85 79 74 75 59 72 69 47 54 57 57 54 52 54 54
35 42 49 64 69 68 60 57 49 51 55 51 48 46 45 45 48 51 52 54 56 60 64 67 70 79 81 84 82 72 73 70 70 66 61 66 50 47 57 62 58 60 55 58 56
33 36 42 55 69 68 63 53 43 45 51 55 52 49 47 49 49 50 52 55 58 63 68 72 77 77 73 71 71 70 68 74 69 67 68 59 49 50 56 64 65 63 59 56 60
29 33 37 54 67 70 63 54 50 48 48 46 48 48 50 50 50 50 52 56 60 65 71 75 67 68 70 72 74 73 73 75 71 71 68 57 53 56 62 74 69 67 60 53 57
27 34 37 45 58 64 63 58 54 50 46 40 41 45 47 46 45 47 51 54 57 65 62 63 63 58 57 51 50 52 55 55 57 59 54 49 50 63 76 81 79 75 66 54 55
24 33 41 49 53 53 65 62 58 53 46 42 40 41 41 39 42 46 48 52 54 54 48 39 39 37 39 39 38 40 42 45 47 50 44 42 44 65 85 89 84 79 63 56 58
24 33 39 42 39 43 66 67 59 55 48 44 41 40 39 39 41 42 42 43 40 16 16 6 10 7 9 14 23 25 28 29 27 26 31 37 41 54 72 83 83 75 58 52 55
24 28 29 28 33 40 59 67 61 56 51 47 42 40 39 37 38 36 34 22 17 15 10 11 18 16 17 25 23 16 10 13 9 9 15 21 31 40 51 61 68 59 55 55 54
20 24 25 25 28 33 45 61 62 58 55 50 45 41 38 36 34 30 19 25 19 25 17 17 21 25 25 27 28 24 23 21 15 9 6 16 27 34 41 46 47 48 53 52 51
18 23 26 26 31 37 46 55 62 60 56 52 47 42 34 34 28 16 20 26 22 22 25 21 19 22 27 26 25 21 23 18 17 16 21 24 30 31 32 35 38 42 47 50 52
17 23 25 29 32 38 44 48 52 57 55 51 46 38 34 31 23 21 20 21 27 26 17 16 15 23 25 24 27 23 22 19 18 33 30 35 37 34 34 35 35 30 37 37 40

GFSSW_250_spd_021.txt.gz
Wind_Speed
67 67 71 75 73 75 81 85 84 82 80 76 74 75 77 77 76 74 74 71 70 66 56 56 54 53 49 51 54 52 50 51 60 64 63 59 55 54 56 58 59 62 64 65 63
71 72 71 74 74 74 75 79 82 85 83 81 76 75 76 76 76 77 73 72 68 65 58 55 55 49 47 48 49 49 47 53 58 60 60 58 54 53 54 56 59 60 64 66 66
68 72 74 72 72 72 75 76 76 83 87 86 82 77 75 76 80 81 73 73 72 66 60 57 56 54 49 44 45 44 48 51 54 56 56 56 53 51 52 54 58 59 62 66 66
63 71 73 74 74 74 74 73 73 78 82 88 87 83 75 73 76 83 81 79 75 73 69 64 57 55 51 42 43 43 48 51 55 56 56 56 54 53 52 55 58 56 59 63 67
59 65 70 76 77 79 77 76 74 74 78 82 87 84 79 75 74 72 72 74 75 73 70 65 64 59 56 50 45 43 50 48 49 53 57 57 55 53 51 56 56 55 54 59 63
53 58 64 69 72 74 75 72 71 70 73 77 78 86 82 80 74 74 76 75 72 70 69 66 63 64 61 58 48 47 46 48 48 49 53 52 54 48 54 58 57 54 53 55 58
46 50 55 59 63 66 68 69 68 66 68 70 74 80 84 79 78 76 74 73 71 71 71 71 71 69 67 64 57 53 53 54 59 54 47 51 46 48 58 53 54 56 54 54 56
44 45 48 51 54 55 59 61 62 62 65 67 70 78 81 79 78 76 76 75 76 76 76 76 74 72 70 67 62 60 57 60 60 60 55 52 41 52 53 54 52 54 53 52 53
48 47 45 45 49 50 54 56 58 59 58 60 63 72 77 81 79 77 77 77 78 79 77 75 75 72 70 67 65 66 63 60 61 63 61 58 47 51 55 53 53 54 52 52 53
52 52 49 46 46 47 50 52 55 55 53 54 59 63 68 77 78 78 79 81 83 79 76 74 74 71 70 71 68 66 63 64 64 68 68 64 56 55 53 52 54 54 55 55 55
59 56 55 53 46 47 45 51 55 55 56 59 58 59 67 71 77 81 83 82 80 77 75 72 72 72 74 72 70 70 68 68 70 75 76 70 60 56 60 53 52 54 54 55 56
64 61 60 59 52 46 44 49 58 59 59 57 54 54 64 74 79 81 77 75 75 75 73 72 72 74 74 74 74 72 74 75 75 77 79 75 60 60 61 58 55 55 55 54 55
47 56 64 64 59 49 42 51 55 58 56 57 53 49 54 61 67 70 71 74 73 72 74 72 73 74 74 75 76 78 79 82 84 83 81 78 68 67 66 60 58 61 57 56 54
37 45 56 67 60 54 45 48 55 57 54 52 49 39 45 56 64 69 71 72 73 72 71 69 71 70 72 74 80 81 86 87 86 87 83 83 75 71 71 69 63 60 65 61 57
32 36 44 61 64 58 48 49 54 57 53 49 43 37 41 49 65 68 71 70 69 70 70 73 75 76 77 81 84 86 88 89 89 89 87 81 78 64 67 67 68 66 67 67 63
30 32 37 52 65 60 55 56 51 53 51 46 40 34 37 50 64 64 65 68 70 70 72 74 76 77 80 83 84 84 82 81 81 80 68 72 78 55 71 77 83 83 78 74 70
29 29 33 46 64 65 60 58 51 46 47 46 40 38 34 41 55 60 63 67 69 68 70 72 75 75 77 78 73 70 73 76 78 81 73 77 81 57 66 72 77 87 84 80 73
25 28 33 39 53 70 66 56 49 43 48 50 44 39 35 33 38 48 54 60 58 58 58 60 65 65 64 66 71 75 80 83 82 80 78 84 64 60 74 74 82 84 83 76 70
20 27 32 38 50 63 68 54 48 46 48 53 48 43 36 34 34 35 37 40 43 46 49 51 55 60 66 72 78 81 86 91 86 82 73 71 58 54 63 71 76 80 83 78 67
16 25 32 35 46 62 65 56 52 49 47 49 51 46 42 37 34 34 35 38 40 44 46 50 56 64 70 77 82 83 81 80 79 72 70 63 57 57 59 68 74 78 79 77 66
10 23 31 38 46 50 61 57 55 51 46 45 52 50 45 41 39 38 39 39 42 43 48 52 58 67 72 67 60 59 58 61 60 57 55 49 54 62 63 72 75 78 76 74 66
7 19 29 33 37 38 50 63 57 50 47 43 46 48 47 44 42 40 39 39 40 42 45 54 60 58 51 49 48 42 40 41 41 42 39 40 42 62 76 80 77 76 75 70 65
7 19 28 29 31 34 44 57 56 52 47 40 40 41 40 40 38 37 36 34 34 41 47 45 37 39 39 34 28 22 25 24 27 27 25 23 40 43 65 75 72 73 71 65 60
9 18 24 26 32 36 46 61 59 52 47 40 39 37 35 32 32 32 30 27 33 36 35 29 30 23 16 19 24 31 37 31 11 9 11 16 23 31 41 57 70 68 64 61 59
6 18 23 25 25 28 44 53 57 54 50 46 42 37 33 30 29 29 24 28 31 28 23 21 20 7 20 25 32 35 36 37 36 27 15 3 9 15 24 34 47 62 63 58 56
5 17 21 21 23 25 40 53 59 55 52 48 41 37 35 29 30 25 25 27 25 25 24 14 1 10 20 23 29 34 38 37 38 30 26 20 13 10 15 22 31 42 55 59 50
7 17 20 26 29 33 41 53 60 58 54 48 42 39 34 32 30 26 24 21 24 28 16 6 10 4 12 24 24 29 33 32 36 37 36 33 26 25 26 27 32 38 46 53 52

GFSSW_250_spd_024.txt.gz
Wind_Speed
59 64 67 70 74 75 77 77 80 84 84 83 83 84 80 76 75 75 75 71 70 70 73 72 70 65 63 64 63 68 66 65 68 71 72 69 66 63 61 62 61 60 60 64 67
56 61 66 70 73 77 76 76 79 80 83 83 83 82 83 83 81 79 79 77 77 74 74 75 71 65 58 62 64 62 61 65 67 66 65 64 63 59 58 58 59 58 60 63 64
53 58 62 67 72 76 74 74 74 79 83 85 85 85 83 80 80 84 80 79 79 77 75 75 74 73 70 62 60 55 55 56 58 59 60 62 62 58 56 56 59 60 60 61 63
52 54 58 61 67 73 76 78 72 79 80 80 83 85 85 85 81 83 79 81 80 78 76 75 73 71 70 63 54 53 55 52 51 52 54 58 58 53 50 53 56 55 58 62 62
47 51 56 61 62 65 75 76 77 78 80 79 80 82 88 87 84 86 82 82 79 77 79 76 73 70 67 63 57 53 55 53 50 50 51 51 54 52 47 51 54 55 56 58 60
43 47 51 58 62 63 68 74 80 79 79 78 80 80 78 84 85 85 85 83 81 78 80 78 77 72 70 68 64 58 59 56 52 52 48 49 51 46 55 56 52 52 56 58 57
44 45 48 51 57 65 68 72 73 76 78 76 75 76 80 81 85 88 86 84 81 77 78 77 78 78 76 75 72 63 61 59 60 55 50 47 44 44 56 48 48 52 55 57 58
43 46 48 53 53 57 61 67 70 74 75 75 76 78 78 80 84 88 87 84 83 77 76 74 74 75 75 72 69 64 58 63 65 61 56 48 53 54 57 50 46 48 51 54 57
45 49 51 53 56 58 58 60 62 66 72 74 78 78 75 77 79 84 89 85 82 81 78 75 73 71 73 72 69 69 65 64 66 65 62 57 55 61 58 54 52 47 45 50 55
57 58 55 56 59 57 58 55 56 58 62 66 73 75 72 71 74 79 82 87 84 81 80 77 73 72 74 76 73 70 67 68 68 71 67 62 56 63 62 60 56 55 49 47 52
58 60 66 61 62 61 58 54 50 53 55 60 67 64 66 68 69 72 77 80 85 82 79 77 73 75 77 76 74 74 72 71 71 72 71 66 58 61 67 65 64 60 57 54 49
52 50 55 61 65 65 58 47 50 59 58 59 57 57 59 61 65 69 72 76 82 81 80 78 76 78 77 78 77 77 74 73 75 75 73 70 59 64 67 67 67 66 63 59 59
42 41 46 51 56 63 57 49 54 54 55 52 53 52 53 53 55 59 65 72 80 80 79 79 79 80 79 81 81 80 76 78 78 77 75 73 64 70 65 67 70 71 69 67 66
36 38 37 39 46 57 60 55 53 53 55 52 51 52 50 51 50 51 55 61 70 77 80 82 82 82 82 82 82 79 78 77 78 79 79 78 73 70 72 71 71 74 75 75 72
31 32 31 33 44 50 64 59 57 57 54 51 48 50 53 51 52 53 54 61 69 75 78 79 81 83 80 80 76 75 76 77 79 80 82 80 86 72 78 79 78 82 82 81 76
26 24 27 35 38 48 65 62 63 49 51 47 49 49 52 52 50 51 52 55 63 69 73 75 75 74 74 73 74 75 78 81 84 85 82 83 88 65 79 81 83 87 89 88 85
23 20 25 36 40 52 67 69 53 43 47 47 49 50 49 48 47 43 41 48 53 55 59 59 63 65 69 70 72 74 79 82 83 85 82 87 90 75 80 84 88 91 94 94 89
15 15 25 34 40 55 65 64 48 42 44 49 49 49 46 42 37 33 34 41 46 46 50 53 59 63 66 67 71 74 78 80 72 75 77 79 76 75 73 72 78 79 84 88 91
12 11 21 30 39 52 63 56 48 47 45 50 49 48 45 40 32 29 31 30 36 43 48 53 56 58 60 60 64 67 68 70 74 79 80 80 81 80 83 78 77 84 83 82 83
11 8 19 29 35 49 60 57 52 52 44 47 48 47 44 36 30 25 23 25 29 34 39 45 46 51 48 51 55 60 66 74 83 82 82 79 78 78 80 76 75 89 89 87 82
9 6 19 30 36 43 46 53 58 49 44 46 48 46 43 36 30 26 24 24 24 26 27 29 35 41 45 50 54 59 62 62 66 67 68 59 60 67 66 66 72 88 91 90 85
7 6 17 28 32 41 60 61 54 50 46 44 47 45 42 38 33 28 24 24 23 24 27 32 36 40 44 49 44 41 34 38 48 50 55 54 40 55 56 56 64 77 84 82 87
8 6 15 22 27 37 52 61 59 53 46 42 41 44 42 39 36 31 28 26 26 27 30 34 35 39 39 33 25 23 26 28 31 35 37 33 34 42 45 48 47 60 73 71 77
10 8 18 24 28 39 50 62 59 51 45 40 38 39 41 40 36 32 30 28 28 29 29 28 32 28 24 17 16 25 29 34 34 27 19 20 20 27 32 36 40 48 59 60 64
9 9 17 25 30 36 44 58 58 50 44 40 35 34 38 40 38 34 30 26 25 23 25 27 19 17 16 8 20 26 26 36 33 34 26 14 8 10 13 20 29 32 48 53 56
6 7 16 21 30 36 40 48 56 50 44 41 34 33 34 34 33 29 24 22 19 20 21 19 17 13 4 15 17 21 29 35 40 40 33 26 10 4 5 12 19 23 42 48 45
5 8 16 22 25 30 43 53 56 52 47 42 39 35 33 33 31 25 21 18 16 19 18 15 15 7 3 13 14 17 25 31 35 39 42 35 27 18 15 12 16 25 38 40 34

GFSSW_250_spd_027.txt.gz
Wind_Speed
51 56 63 65 67 72 73 79 82 83 84 86 89 87 83 79 75 73 70 70 68 70 66 67 67 69 70 70 70 71 71 68 69 78 77 74 70 70 67 69 70 70 71 71 74
48 53 59 62 66 72 72 73 80 86 85 86 86 88 88 85 80 78 77 71 70 72 71 71 72 73 72 70 70 69 68 67 71 71 71 69 68 67 69 71 69 69 70 72 74
47 50 56 61 65 69 72 73 77 81 88 85 86 86 88 89 89 85 82 78 76 72 70 69 67 69 69 71 72 69 61 70 69 71 70 69 69 68 67 70 72 70 68 70 73
45 48 53 58 62 66 72 74 75 78 83 87 86 85 88 88 86 87 89 85 81 79 78 76 73 72 73 73 76 73 69 65 65 68 67 68 69 67 66 64 67 66 68 68 68
44 47 47 53 58 63 69 73 75 78 80 84 88 85 85 88 89 89 87 86 86 81 81 79 78 78 75 73 72 74 75 71 66 66 65 64 62 64 60 57 61 62 65 64 63
43 44 47 49 51 57 63 69 73 75 81 83 85 87 88 88 85 89 88 86 86 86 87 85 83 81 78 75 76 75 74 73 69 63 62 60 58 53 53 60 54 54 60 60 61
43 44 46 48 50 49 55 64 70 74 74 83 85 84 87 79 88 88 87 89 86 85 84 84 84 85 82 80 77 74 76 72 69 66 61 58 55 51 58 53 49 49 53 56 57
47 44 47 48 50 49 50 56 65 71 74 80 87 83 80 81 83 84 87 89 88 91 87 84 84 84 84 81 81 79 77 74 71 70 67 61 59 60 58 54 48 46 48 48 50
51 51 50 51 51 52 53 52 58 67 74 77 80 90 83 83 85 86 83 84 88 90 88 86 86 85 85 84 82 80 79 78 76 75 71 65 61 66 63 56 50 50 52 53 55
64 64 57 57 56 56 56 56 56 61 66 71 74 82 87 82 84 79 83 84 82 84 89 86 86 87 87 86 83 80 78 78 78 77 78 72 58 65 67 64 58 58 58 58 57
56 60 61 57 62 62 60 63 64 48 47 61 74 78 88 85 86 86 80 80 82 85 81 87 86 85 89 86 83 79 78 78 78 77 74 69 65 61 66 70 68 64 61 61 62
52 50 50 49 57 64 66 68 54 53 60 67 68 68 76 81 81 77 76 75 76 79 82 82 86 89 85 85 84 79 78 77 76 77 76 73 66 67 69 70 71 69 68 66 65
50 45 43 42 45 58 65 71 62 60 61 58 58 56 62 66 69 72 74 71 71 72 75 82 85 87 85 83 83 83 80 80 78 77 76 75 67 73 68 68 71 73 73 73 71
48 41 37 38 42 50 57 72 70 62 58 59 54 50 55 57 61 62 64 64 66 67 67 70 80 83 84 82 82 80 80 80 79 79 79 79 75 73 74 73 75 78 81 79 77
43 38 32 32 39 48 53 62 74 67 61 58 49 45 48 48 49 51 53 55 57 60 61 65 71 76 83 85 81 81 80 82 82 83 82 82 86 70 79 80 81 83 84 84 83
38 31 25 27 35 44 49 61 74 76 58 49 46 45 44 42 43 44 44 46 52 54 56 62 68 72 78 81 81 80 80 84 85 86 85 89 93 74 81 83 86 86 87 91 90
33 25 18 22 33 42 48 57 72 69 49 49 44 44 43 42 41 40 42 43 43 44 46 53 60 65 70 78 80 80 82 84 88 88 85 92 91 75 84 85 88 90 93 96 96
31 18 10 19 30 37 46 58 65 55 45 46 44 44 43 41 40 40 41 40 41 44 48 49 56 61 67 71 75 79 80 85 84 87 83 81 77 77 85 92 88 89 94 100 98
23 11 4 14 25 37 44 49 57 51 49 45 42 43 41 39 41 40 42 42 42 44 49 52 55 59 63 67 70 69 66 64 63 64 64 70 77 79 91 93 87 82 91 98 100
22 9 5 18 25 34 39 48 56 50 46 42 41 44 42 41 40 39 38 36 38 37 34 34 34 34 35 36 37 38 46 50 54 58 69 72 79 91 85 86 86 89 84 92 92
24 10 6 16 21 31 39 48 53 49 45 39 41 41 41 40 36 31 29 27 26 24 23 23 21 27 23 21 28 33 41 50 58 64 72 74 67 79 68 68 73 82 83 85 91
23 10 8 17 23 33 46 54 50 46 43 37 40 41 39 37 34 30 27 23 21 19 17 16 17 18 18 24 30 36 43 46 45 53 61 66 64 72 73 56 52 59 60 68 82
21 11 12 16 24 34 48 56 54 47 40 36 40 41 39 36 33 27 25 21 19 17 17 16 16 18 22 27 30 27 29 32 26 31 35 37 42 45 49 47 45 49 53 55 61
21 12 14 11 25 39 51 50 44 46 41 37 37 39 38 36 33 27 24 23 20 17 15 16 17 18 22 16 17 7 14 18 27 34 32 34 32 39 37 33 31 34 35 36 41
20 10 12 18 24 37 46 47 49 45 41 36 34 37 38 36 33 29 27 24 20 18 17 16 17 16 7 10 2 6 10 16 22 29 29 29 26 25 26 25 22 20 21 28 38
21 8 8 14 24 32 44 43 45 44 40 36 34 34 35 35 32 30 26 24 22 20 16 14 9 3 8 7 5 6 10 20 24 29 34 37 28 30 23 20 15 7 9 15 19
16 6 5 14 20 30 42 51 50 45 41 37 34 31 31 33 33 31 28 24 20 17 14 10 2 11 9 12 8 7 14 19 23 26 32 41 43 40 28 17 13 12 6 13 15

GFSSW_250_spd_030.txt.gz
Wind_Speed
38 40 43 50 56 62 67 71 76 82 88 88 90 91 85 84 81 78 79 82 75 77 77 78 77 78 77 74 75 76 75 74 75 75 81 81 77 74 80 76 76 74 80 78 78
40 39 43 48 56 61 67 73 73 77 84 89 89 92 91 88 84 81 81 78 76 77 73 77 79 78 76 76 75 76 72 69 74 78 77 77 76 77 77 75 80 79 79 78 79
44 39 41 47 54 62 66 71 76 76 77 83 91 91 92 93 87 88 82 81 77 77 76 73 72 73 73 75 72 70 66 69 73 74 73 72 72 74 74 72 74 72 74 70 68
52 44 41 45 52 59 65 72 77 79 79 82 82 91 91 91 91 91 86 81 79 78 75 74 74 73 73 70 68 68 66 67 72 71 68 70 69 67 66 68 68 68 69 67 70
53 52 47 44 51 55 62 70 76 80 83 81 83 82 87 90 90 93 94 89 85 81 78 77 74 73 72 72 72 69 68 71 72 71 72 72 68 68 65 66 68 69 68 69 68
62 56 52 50 47 55 59 65 73 78 82 84 85 84 82 85 87 92 93 92 91 86 84 78 79 77 77 75 74 72 71 71 70 73 77 73 69 68 62 68 69 66 63 67 70
74 62 53 51 52 50 58 60 66 73 77 81 86 87 81 85 85 92 90 90 92 93 90 86 83 81 77 76 73 72 73 74 72 75 75 77 70 64 66 70 64 66 63 63 65
66 69 68 56 55 53 54 59 60 66 72 77 81 84 82 83 85 87 87 89 89 89 91 92 88 86 83 79 78 81 78 80 79 78 76 78 74 74 65 64 61 63 60 58 62
64 63 68 71 55 57 54 59 58 63 69 72 76 79 82 83 82 84 85 86 85 88 89 85 86 85 86 86 83 81 81 81 81 80 79 79 75 75 65 65 61 58 59 60 59
65 59 55 59 55 53 56 57 61 62 65 68 70 72 78 79 81 81 82 83 88 87 86 84 85 86 85 85 86 90 87 86 85 82 83 79 73 72 68 65 65 61 63 66 64
66 58 50 46 46 45 54 59 60 62 62 54 60 70 76 80 84 82 80 80 85 84 84 82 82 82 90 88 86 84 84 84 85 85 83 82 76 72 72 68 72 69 65 64 69
67 56 46 37 37 38 47 59 62 60 56 51 61 59 71 80 79 85 82 82 80 84 77 75 78 89 86 84 86 87 86 86 85 86 82 82 76 76 75 72 72 74 69 68 69
65 51 41 33 27 32 41 60 59 60 53 54 56 58 67 70 73 82 86 81 80 78 79 79 79 80 80 83 88 89 88 89 87 86 86 83 76 77 72 73 73 71 72 72 73
60 49 39 30 22 28 41 50 60 57 57 55 53 49 53 57 68 74 78 87 82 78 78 77 74 80 80 81 80 83 87 87 85 84 83 80 75 75 76 73 74 77 76 77 77
58 49 37 27 21 25 36 49 55 59 60 57 50 49 47 43 49 59 68 78 84 85 79 78 76 74 76 82 81 80 80 85 87 85 83 82 78 69 77 77 78 80 81 81 83
56 46 34 23 17 21 33 41 45 58 60 53 42 43 40 38 39 46 55 65 74 79 77 77 74 74 75 75 77 79 84 84 83 84 81 81 80 64 75 80 84 87 86 87 90
53 40 29 19 10 16 26 34 45 58 48 49 44 40 40 39 38 39 44 50 56 63 64 67 69 67 66 64 66 68 73 78 80 79 80 83 79 73 79 84 86 90 94 97 97
47 36 25 11 5 14 27 34 36 42 54 48 44 38 37 36 33 35 38 39 41 43 46 50 50 50 53 53 53 56 60 67 68 73 78 82 79 80 84 87 93 95 101 105 105
44 32 19 7 3 11 21 29 34 38 53 51 42 37 33 29 33 34 33 33 32 33 33 34 37 40 43 45 48 53 58 62 64 69 70 73 78 84 92 96 101 100 100 102 107
40 27 17 9 6 16 19 20 32 47 59 49 42 37 31 32 34 32 29 30 29 27 27 31 33 33 37 40 44 46 54 56 59 61 65 69 75 83 89 94 84 86 93 94 94
38 24 16 11 8 10 16 33 44 53 56 47 41 34 30 36 34 31 28 26 27 29 31 31 33 38 42 42 42 40 40 38 36 39 42 48 57 65 75 74 80 89 90 90 92
38 23 17 11 13 15 20 34 46 53 50 44 37 29 29 32 29 27 26 27 28 28 29 31 34 31 21 20 16 17 20 25 33 40 44 51 51 64 64 65 69 70 75 72 70
38 26 20 14 14 21 30 37 48 49 43 38 31 28 32 31 27 27 25 21 20 20 22 20 19 16 13 9 13 17 23 26 26 30 26 30 35 47 51 53 57 57 58 56 53
36 27 21 11 11 18 35 40 41 41 39 30 26 30 31 29 26 24 20 19 18 17 16 15 11 9 9 10 14 14 14 16 15 14 16 30 21 38 44 46 44 40 36 39 42
32 26 19 8 8 19 34 40 40 35 32 27 26 31 31 29 26 24 19 18 18 16 13 10 9 8 11 9 7 8 3 6 13 13 16 25 28 22 22 25 24 25 24 25 26
34 22 14 5 5 16 29 33 36 34 30 26 26 30 32 31 28 26 21 18 17 14 10 8 8 11 10 12 15 5 4 2 16 12 18 23 27 21 26 28 25 23 18 13 12
33 24 12 2 6 14 28 37 36 34 29 26 25 29 32 30 28 25 22 20 17 13 10 11 10 10 11 16 12 8 6 7 16 12 24 23 24 21 24 31 28 28 27 17 4

GFSSW_250_spd_033.txt.gz
Wind_Speed
57 43 37 36 38 45 54 62 70 77 83 86 89 94 91 88 87 85 86 89 88 89 88 87 86 86 85 85 83 86 78 76 73 76 82 80 75 71 71 74 75 72 71 69 69
57 56 43 37 40 43 51 59 66 74 81 86 88 91 94 91 89 86 88 85 87 88 90 88 87 86 84 84 83 80 77 77 79 81 82 79 75 73 73 77 75 73 76 74 73
68 57 52 42 39 44 48 56 65 69 77 84 89 91 94 96 90 91 86 85 84 85 85 86 86 84 82 84 80 78 75 78 81 82 82 80 77 79 74 75 77 77 77 78 78
70 66 56 51 43 42 49 53 62 70 74 80 86 91 91 92 97 94 87 87 85 85 82 82 82 81 83 81 82 79 77 77 78 81 78 77 78 75 76 76 78 79 76 79 80
72 73 64 52 50 42 46 53 59 68 76 79 83 86 90 90 92 97 95 89 86 85 83 84 82 80 81 80 81 78 77 78 79 78 74 75 78 75 71 72 75 77 75 71 71
76 67 67 65 51 48 42 50 56 65 72 79 81 84 85 87 91 92 97 96 92 87 85 84 82 80 80 78 77 77 75 76 75 76 74 75 76 71 68 71 74 72 67 69 67
78 65 60 62 65 50 47 44 52 61 69 76 82 84 84 88 86 90 94 96 97 93 87 86 84 81 79 79 77 72 71 73 76 75 74 75 70 67 69 69 66 67 66 66 67
80 67 57 53 56 50 49 45 47 57 64 71 80 84 87 87 88 90 90 91 92 96 96 92 87 83 81 78 79 76 73 73 77 76 73 72 66 72 72 72 67 67 67 68 68
79 69 58 48 44 47 39 46 48 51 58 68 74 79 89 88 89 89 87 87 87 91 95 95 92 85 82 77 77 75 75 78 77 74 73 71 70 75 73 71 71 70 70 68 68
78 69 57 46 37 36 35 43 46 49 57 67 67 73 80 90 93 89 86 84 84 86 88 92 93 91 86 80 79 82 80 77 78 78 76 74 70 73 75 72 72 73 73 72 71
80 68 54 42 33 28 30 38 46 50 55 56 51 65 74 81 90 90 86 86 86 84 84 85 87 88 90 91 88 84 80 80 81 81 78 77 75 76 79 75 74 75 77 77 71
80 66 53 42 31 23 27 34 44 48 48 49 57 59 70 74 79 86 88 86 85 81 80 79 79 84 90 87 88 86 86 89 87 85 83 80 76 79 81 80 81 82 79 77 76
80 66 52 40 27 18 19 28 39 44 41 49 53 57 63 68 71 77 86 88 86 82 77 77 75 81 81 80 82 83 83 85 85 87 88 85 82 83 84 86 85 82 81 78 75
79 66 51 37 24 14 17 27 41 42 44 51 49 55 55 59 63 67 79 80 82 77 76 75 70 71 75 77 77 78 79 81 82 85 84 84 79 80 83 81 82 84 81 83 81
75 63 46 33 19 10 15 27 35 42 49 48 47 50 50 51 57 58 61 74 74 73 74 71 69 69 72 75 75 78 80 83 83 81 79 80 79 76 84 84 85 87 85 84 82
74 60 45 30 16 5 10 21 28 39 45 41 44 40 41 43 48 52 55 59 71 72 72 72 70 71 71 71 71 72 74 76 74 76 74 79 77 73 83 88 89 86 86 86 86
69 54 41 28 17 10 9 19 26 30 35 40 42 39 41 42 41 46 52 55 61 70 74 78 79 74 72 69 68 71 71 70 70 73 74 77 78 72 75 82 84 86 88 89 89
63 49 38 27 15 11 15 21 21 29 35 42 42 41 40 36 34 36 39 43 52 58 64 72 79 78 74 72 69 69 68 68 69 71 72 73 72 76 83 85 84 84 88 91 95
58 44 35 25 14 13 16 21 28 33 41 39 33 33 29 28 30 31 32 33 41 49 54 59 64 74 78 76 74 73 69 68 65 64 61 61 59 59 64 73 81 85 85 90 95
53 44 34 26 20 17 17 28 34 38 43 40 36 33 26 24 23 22 23 28 34 37 40 46 50 55 60 63 63 59 58 54 50 48 46 45 51 57 68 74 76 82 85 88 90
52 43 36 25 15 14 24 31 37 39 39 38 34 29 23 18 19 19 21 23 24 25 27 28 30 35 35 34 33 34 35 34 37 41 43 49 51 61 67 69 74 80 85 87 91
52 40 35 27 16 12 25 36 38 41 39 36 31 23 14 13 15 16 21 22 24 24 22 23 25 22 20 22 27 33 34 36 35 31 36 38 37 51 54 60 68 71 74 79 85
54 41 36 31 24 9 19 35 43 44 40 34 27 21 16 17 19 24 22 23 22 21 21 21 20 19 24 27 29 26 20 17 20 25 31 31 38 45 52 54 55 56 56 58 64
59 43 36 31 24 11 11 27 42 44 38 32 26 21 18 25 27 23 21 19 19 19 20 22 19 22 24 23 18 15 16 18 19 16 22 25 30 38 41 38 46 47 45 49 57
58 44 34 29 21 9 15 21 35 41 35 30 24 21 26 29 27 24 21 18 16 18 19 23 27 24 19 17 15 14 14 16 17 14 14 23 29 27 29 28 32 32 35 36 38
54 42 31 25 12 16 26 24 30 32 28 24 21 27 30 28 23 20 19 19 19 21 22 21 18 17 15 14 17 17 17 11 4 5 9 17 19 17 20 24 27 28 29 35 29
51 40 27 20 7 12 26 29 27 27 26 22 25 30 30 28 25 22 22 22 21 17 16 15 15 15 15 17 19 16 12 8 3 3 12 19 25 27 26 25 28 29 32 28 27

GFSSW_250_spd_036.txt.gz
Wind_Speed
64 55 49 44 33 37 37 45 55 67 77 84 92 98 101 100 98 97 101 107 102 102 99 99 98 97 91 90 89 88 81 78 78 81 87 85 77 71 67 70 73 70 71 69 68
66 60 53 47 46 35 41 44 51 62 73 82 90 96 99 101 99 96 101 101 104 104 100 99 99 98 92 92 93 88 80 81 81 82 86 84 77 74 71 71 76 73 73 72 69
75 67 62 51 45 45 39 47 51 58 68 79 86 93 100 100 102 102 95 94 100 101 100 100 99 94 93 94 90 90 83 82 85 86 83 81 80 78 74 73 76 76 73 73 72
79 71 67 62 49 45 43 45 53 57 65 75 84 90 95 100 101 103 98 97 97 96 94 96 96 95 94 93 91 87 82 81 84 86 84 80 80 80 77 77 79 78 73 73 71
82 75 65 56 59 48 46 45 53 58 62 70 81 86 93 97 102 103 102 98 97 94 93 91 90 93 94 94 92 87 84 84 83 82 79 78 77 79 79 79 80 80 75 73 74
84 77 66 57 53 54 46 47 49 56 61 67 76 84 87 93 101 102 102 100 96 95 93 89 88 88 90 93 90 86 86 83 81 81 80 80 81 80 77 81 82 82 79 76 75
85 76 62 52 47 48 47 44 48 54 60 68 75 80 85 93 97 100 102 103 100 95 92 92 90 85 84 88 86 83 85 83 82 85 82 82 81 76 79 79 75 76 77 74 74
86 75 59 47 41 38 40 41 47 53 58 65 71 75 84 88 93 97 99 100 102 99 96 91 89 88 86 83 83 81 79 79 82 85 83 81 75 79 81 78 74 74 76 72 70
86 74 57 46 36 31 31 36 45 51 58 60 65 72 85 87 87 94 96 97 99 102 99 94 91 87 85 82 81 77 74 76 82 80 79 73 71 80 79 76 72 71 70 71 71
87 71 59 48 38 28 24 27 41 49 57 57 62 71 80 86 89 91 91 92 94 98 99 100 95 90 86 81 79 80 79 77 76 75 73 70 69 76 76 72 70 70 70 73 73
86 70 62 52 40 25 20 25 39 48 53 53 47 57 72 83 87 86 87 91 90 91 92 94 96 93 89 88 85 82 79 76 76 75 72 71 70 69 76 73 73 73 73 73 75
86 71 65 53 40 24 15 22 31 39 47 49 50 60 68 79 87 92 86 86 86 86 85 88 88 90 97 94 88 84 79 78 78 77 75 74 71 74 77 77 75 75 75 77 79
82 72 64 52 36 20 12 21 28 36 47 48 50 56 62 72 81 86 88 89 85 83 84 84 84 87 89 89 90 90 86 84 80 76 75 74 71 75 79 79 79 79 79 78 78
81 73 63 50 33 15 7 17 25 35 46 49 51 52 51 62 71 80 85 89 85 80 80 80 79 77 80 80 83 89 89 89 88 85 79 78 73 77 81 81 82 83 82 83 86
82 72 60 48 31 12 3 11 23 29 39 48 47 48 46 52 61 68 73 82 88 82 78 77 78 76 75 75 77 80 82 87 89 89 85 85 81 79 87 86 88 88 89 92 94
79 68 54 46 32 12 5 9 17 23 41 47 44 36 39 45 48 54 61 70 79 87 77 73 73 74 75 72 68 71 76 78 80 84 83 85 82 77 83 86 89 90 94 95 97
76 64 51 44 33 17 11 16 23 31 38 36 35 38 41 41 39 42 49 53 64 73 83 79 76 74 74 71 65 66 66 66 72 74 76 78 75 74 81 86 88 91 93 92 92
75 64 50 40 28 17 17 19 27 36 34 37 33 35 35 34 33 39 42 47 52 56 70 83 78 73 71 68 64 63 59 60 61 65 68 68 68 73 77 80 81 82 86 90 91
73 62 48 41 24 14 21 30 36 39 37 31 32 33 29 26 26 28 33 40 43 48 52 65 73 70 70 69 66 66 62 61 60 62 62 64 66 71 77 82 80 82 85 89 92
72 60 46 39 26 11 16 31 39 39 38 38 35 27 27 24 22 24 29 33 36 38 42 49 60 72 67 66 66 66 65 65 65 64 64 65 68 74 78 76 75 75 76 77 79
73 60 47 36 23 7 18 28 33 33 34 35 34 31 25 25 24 24 25 25 26 30 36 41 46 53 61 64 66 67 70 70 69 66 64 66 68 76 68 65 65 68 68 70 75
71 62 46 36 25 18 17 22 28 33 32 28 27 21 17 20 20 22 24 26 28 32 34 37 39 42 47 50 51 53 55 56 60 65 63 53 57 54 53 57 60 62 66 67 71
69 60 47 34 24 15 14 26 29 29 29 29 27 23 19 15 12 19 21 21 24 25 26 25 27 29 31 32 34 34 35 35 38 40 40 39 47 45 47 47 48 51 56 63 68
67 58 47 32 19 14 9 20 31 31 30 28 24 20 16 18 23 23 24 25 25 24 24 24 25 26 27 28 28 27 28 31 33 34 31 30 32 30 35 40 40 42 44 54 57
65 57 48 31 18 9 6 15 27 31 30 27 24 20 17 19 26 27 25 24 22 23 23 22 22 23 24 26 26 27 29 27 25 24 23 20 18 20 24 31 25 25 35 45 47
60 55 47 33 17 7 5 11 25 29 29 25 21 16 16 24 27 25 22 20 19 19 20 23 26 25 22 22 23 25 25 23 20 14 6 3 7 12 17 20 21 22 29 37 37
55 50 43 35 18 1 4 16 23 25 25 22 19 18 22 27 25 24 22 19 20 20 22 23 23 23 23 23 22 21 20 21 19 19 10 5 10 13 17 20 24 22 27 29 30

GFSSW_250_spd_039.txt.gz
Wind_Speed
75 65 61 58 48 44 45 44 50 55 61 72 82 91 102 115 118 114 115 118 111 107 105 105 102 98 95 92 88 84 79 76 77 82 84 82 75 69 66 65 65 65 64 64 63
80 72 69 64 59 51 47 48 52 57 62 69 80 89 97 107 119 112 116 117 114 110 108 107 107 103 98 95 90 86 79 79 82 86 89 84 77 73 68 65 65 67 67 66 64
84 79 76 69 64 60 51 52 54 60 65 70 77 87 93 101 110 120 120 114 116 116 111 108 108 105 99 96 92 87 83 85 88 88 89 85 79 74 71 70 72 72 72 69 67
85 83 77 70 59 58 59 53 59 60 68 72 77 85 90 96 104 117 120 116 116 115 110 109 107 106 102 97 94 90 87 89 91 90 89 85 80 78 75 74 74 75 75 72 71
89 86 79 69 63 54 57 54 57 62 69 72 77 82 89 93 100 113 115 115 112 113 111 111 108 108 106 103 100 94 94 91 93 92 88 85 83 83 79 78 74 76 73 73 73
91 89 80 69 57 50 50 51 54 61 68 73 77 81 85 91 100 106 113 114 109 111 106 107 110 110 108 103 99 96 95 94 92 89 85 84 85 85 80 79 79 81 77 75 72
94 89 78 65 53 44 44 46 48 56 64 71 76 80 82 91 97 101 108 113 110 107 106 105 106 106 108 109 104 97 95 91 88 88 86 86 83 76 82 82 80 77 76 74 72
96 89 77 63 49 37 36 39 42 51 56 69 74 77 74 91 94 99 104 109 114 109 106 103 102 100 98 98 99 98 95 92 91 92 89 87 77 81 81 85 78 75 74 74 76
98 89 74 60 46 36 30 33 37 43 50 64 72 72 78 85 88 96 99 108 113 114 109 104 101 98 96 91 91 93 92 86 90 93 91 86 78 83 81 80 75 74 75 77 78
99 89 71 58 51 39 26 25 33 39 47 61 69 69 79 76 85 93 96 102 110 112 112 105 100 97 93 88 86 85 85 85 84 85 84 81 77 83 83 82 79 76 76 78 80
99 89 69 59 52 40 24 21 29 36 46 58 63 60 72 76 82 87 90 97 104 108 108 107 100 93 91 91 92 87 82 79 79 79 79 81 76 76 83 79 77 76 76 76 78
100 87 68 58 51 39 23 17 25 31 39 51 60 64 72 73 76 77 86 90 96 101 103 104 102 97 93 91 88 84 82 81 80 79 75 73 70 72 75 76 76 76 75 76 76
98 82 65 57 49 37 22 10 19 26 33 52 60 61 65 66 69 72 81 84 89 94 95 98 97 98 95 93 90 83 81 82 81 80 76 74 69 70 74 73 75 77 74 73 74
94 77 64 55 47 37 19 6 11 23 36 53 57 61 60 62 66 70 80 81 82 86 90 93 92 95 96 98 91 88 87 84 80 81 76 77 70 73 76 76 77 78 78 78 79
91 75 66 54 44 34 18 3 6 22 38 52 56 55 53 52 58 60 74 75 77 78 79 80 87 86 91 92 93 91 91 89 86 81 77 78 76 75 80 79 81 81 80 81 83
89 73 65 50 42 31 16 8 9 18 35 47 48 41 39 44 49 52 71 69 74 73 74 77 80 80 85 85 85 88 90 91 90 87 82 86 80 79 85 85 84 85 86 85 85
87 73 61 49 40 27 15 15 19 19 30 39 37 39 39 39 40 49 59 61 67 69 65 67 67 73 77 77 75 79 82 81 81 83 85 88 86 87 92 91 91 91 90 90 91
85 72 60 52 40 29 12 10 24 35 38 42 39 35 33 34 39 46 50 54 60 71 74 73 71 68 69 68 70 74 72 69 70 74 76 79 78 87 95 95 95 95 95 95 96
85 74 61 53 38 27 10 13 26 34 31 30 29 30 29 30 34 37 40 45 49 57 71 74 72 68 69 65 64 65 67 70 68 67 66 66 70 80 85 86 86 90 92 92 93
82 73 61 53 39 22 13 20 29 32 30 31 31 26 28 28 26 26 29 34 39 44 49 61 70 71 73 69 65 61 62 60 61 60 62 62 64 71 72 74 74 76 81 85 87
77 71 59 49 40 22 12 21 26 30 33 30 27 29 23 21 20 19 23 25 32 37 39 43 53 63 69 72 68 65 63 62 60 60 61 62 65 64 64 65 69 71 74 74 77
74 67 56 48 40 26 12 16 21 23 25 24 23 18 16 15 13 15 20 25 27 31 33 36 40 43 48 57 70 74 69 65 59 60 62 62 68 65 63 65 65 67 72 75 71
70 62 54 45 37 26 10 12 20 22 25 23 21 21 18 14 14 13 15 19 22 25 27 30 33 35 38 44 52 62 70 69 62 60 58 59 64 62 62 61 60 59 60 60 61
63 57 51 42 33 27 10 9 17 22 25 24 22 21 21 20 20 21 22 24 24 25 25 27 30 33 36 39 41 43 46 50 52 50 50 47 47 42 40 45 49 53 51 49 53
61 52 46 40 34 24 17 5 15 21 22 22 20 18 16 13 19 23 24 24 24 24 25 25 27 28 29 31 32 32 35 38 35 33 29 33 32 31 32 36 37 40 39 39 39
57 53 44 36 31 22 16 10 10 17 20 21 18 15 13 14 20 23 22 21 20 20 21 23 25 24 24 23 24 26 27 26 27 29 29 27 27 25 24 23 25 27 33 32 33
55 49 44 35 29 23 17 14 10 16 19 18 16 14 13 17 21 22 20 19 19 21 21 21 22 23 24 23 25 27 27 26 24 23 22 22 17 14 15 18 22 25 30 30 31

GFSSW_250_spd_042.txt.gz
Wind_Speed
95 82 76 68 63 59 55 49 48 54 58 62 67 72 84 96 103 105 114 119 119 118 114 111 107 103 99 97 91 87 82 74 76 78 84 81 75 70 69 69 69 67 68 69 67
97 85 76 70 68 64 63 59 53 54 60 66 68 73 81 94 101 104 115 124 121 118 115 113 111 108 104 99 96 91 82 77 78 82 86 82 75 71 69 69 67 65 65 64 63
99 86 79 72 69 65 64 62 60 59 62 65 72 75 80 90 99 106 112 123 123 120 118 116 114 110 107 102 97 92 86 84 85 87 87 83 79 72 70 69 68 67 66 66 66
98 87 80 76 72 65 60 56 57 59 61 67 72 77 81 87 97 106 112 120 124 124 118 114 112 110 106 103 99 94 90 89 90 89 88 82 76 72 72 72 70 70 70 68 67
97 89 82 77 70 61 54 52 51 57 55 65 69 77 81 86 95 104 113 118 123 126 122 117 112 111 108 105 103 97 91 91 93 91 89 84 77 73 71 73 71 73 74 72 71
98 90 84 77 66 56 50 47 48 50 53 58 66 74 79 84 92 100 108 114 121 127 124 122 117 113 111 109 105 98 97 96 94 92 90 86 81 76 75 77 74 74 75 75 73
99 90 85 76 62 53 44 44 45 47 50 53 58 68 71 82 88 97 101 112 116 124 125 119 123 119 114 110 106 99 97 98 96 93 91 88 83 79 83 79 76 76 78 76 75
100 94 87 75 61 52 44 39 39 42 44 48 50 62 72 82 85 91 98 105 113 121 120 118 114 118 119 115 110 101 100 94 95 96 93 90 84 81 81 82 79 77 77 78 76
100 95 86 74 61 50 44 35 32 34 37 40 46 59 73 78 84 88 96 102 106 113 126 118 111 109 111 113 112 104 99 95 95 98 97 91 84 83 82 84 82 78 76 76 76
99 92 84 71 56 49 42 31 24 26 30 36 43 58 73 76 82 82 92 98 101 107 117 125 115 107 103 102 101 102 101 99 100 97 97 93 88 88 87 85 83 78 77 78 79
100 92 83 67 53 49 38 23 16 17 23 31 45 62 73 74 77 79 87 92 93 100 109 114 118 99 93 94 95 99 98 97 95 94 89 89 87 88 92 87 85 83 83 80 81
100 91 81 63 53 47 33 20 11 9 19 31 46 60 68 69 71 76 81 86 88 93 100 107 109 111 100 93 92 91 89 87 89 90 91 89 85 84 87 87 85 85 86 86 85
97 89 77 60 51 44 33 19 9 4 17 29 41 54 62 65 69 71 74 79 84 90 97 101 108 106 105 95 92 88 84 83 85 86 81 79 76 80 82 84 83 83 85 84 83
96 87 76 58 49 44 35 19 8 5 16 31 45 55 59 60 61 64 70 75 80 87 93 93 94 100 103 100 94 87 86 88 86 81 78 77 72 78 79 82 80 79 78 80 80
94 85 77 60 48 44 37 19 12 5 12 24 37 49 55 56 60 59 64 68 74 82 88 83 88 95 102 103 97 91 88 86 84 82 78 78 77 80 81 80 80 78 77 77 75
92 85 78 60 50 44 34 22 19 9 13 21 37 45 46 46 47 53 59 59 66 73 78 80 84 91 95 97 100 96 91 88 83 81 79 80 79 78 80 81 81 81 80 80 79
91 86 77 64 55 46 36 22 17 16 13 27 34 36 37 39 43 49 54 55 59 63 67 73 76 81 86 92 96 96 97 92 87 84 82 83 81 79 81 83 83 84 83 83 83
89 85 77 68 60 50 38 23 21 19 22 24 27 26 27 32 39 45 50 48 53 58 61 64 65 72 79 81 85 91 93 93 90 88 87 88 87 87 87 87 85 85 85 86 87
86 80 76 65 59 50 41 22 20 22 24 23 23 30 31 33 34 37 44 39 45 53 58 59 60 63 69 74 77 81 82 82 80 84 88 90 93 92 91 90 89 89 90 91 91
83 76 70 60 55 47 35 16 16 22 22 24 28 24 27 26 26 27 33 34 36 45 54 56 54 56 61 65 69 72 73 76 78 78 80 81 84 87 89 88 89 90 92 94 95
77 74 68 57 49 47 35 16 9 12 16 17 15 19 19 18 19 22 25 28 32 39 49 55 55 54 55 56 62 64 66 67 68 70 73 75 76 74 72 71 73 73 73 74 77
72 67 62 55 43 41 34 19 10 10 13 13 14 14 12 12 11 12 19 24 29 35 42 50 59 56 57 57 57 58 57 58 59 60 63 67 67 65 63 63 62 64 65 66 67
67 65 58 52 41 34 33 22 8 8 13 16 17 16 16 15 13 14 17 23 25 30 34 39 43 52 60 64 64 64 62 59 58 59 60 58 57 54 54 55 54 58 59 62 65
64 59 56 49 40 29 27 26 13 2 8 12 14 15 13 13 13 15 15 18 21 25 29 32 34 36 40 45 51 55 57 59 62 60 59 58 55 55 53 52 52 55 54 51 50
61 57 51 46 40 29 21 20 20 8 5 7 10 10 9 8 9 10 11 15 18 21 25 28 30 32 33 35 38 41 44 47 51 54 55 53 59 58 57 51 43 39 39 39 38
58 56 52 43 37 31 22 15 15 12 10 8 9 8 9 8 9 11 12 12 14 15 16 19 22 25 28 31 33 34 35 36 36 38 33 35 39 37 32 29 29 30 31 30 31
53 51 49 44 38 32 22 15 9 10 13 13 12 10 8 8 9 11 13 14 17 17 17 18 19 20 23 25 26 28 29 29 28 26 26 26 25 23 22 24 24 24 28 25 24

GFSSW_250_spd_045.txt.gz
Wind_Speed
89 88 83 74 68 64 59 57 53 52 54 61 67 70 73 81 92 106 110 119 124 121 118 115 110 107 104 100 96 91 86 80 80 80 81 81 79 77 71 72 72 72 71 71 71
94 93 84 76 70 66 63 62 60 57 55 60 66 72 76 79 85 97 114 120 126 125 120 116 114 112 107 102 98 95 87 81 84 83 87 84 80 77 74 70 69 71 70 71 68
96 92 85 76 72 66 64 62 59 60 58 58 61 71 76 78 82 92 110 119 123 126 123 121 118 116 111 107 100 96 88 87 87 88 88 85 81 77 75 73 69 68 69 69 68
97 92 84 81 78 71 64 55 53 54 54 54 55 69 75 78 80 93 101 115 121 127 126 123 119 117 112 107 101 96 94 92 93 91 87 84 79 76 75 76 74 71 69 70 69
99 93 87 81 76 69 58 49 46 45 47 47 48 63 73 76 81 92 95 108 119 122 128 125 122 117 115 110 106 100 97 97 98 94 90 86 80 74 71 73 73 74 71 70 69
99 94 87 82 75 64 54 45 41 41 42 40 43 56 66 72 83 87 91 101 113 120 125 128 124 122 117 114 110 106 103 100 100 96 92 88 84 76 73 75 71 70 71 69 70
99 93 87 83 73 61 49 43 37 38 39 40 39 49 56 69 80 83 86 94 108 119 122 128 128 124 120 117 115 111 106 103 100 95 91 88 86 78 82 77 74 74 72 69 69
100 95 89 81 71 60 48 40 35 32 32 35 37 40 53 69 76 82 84 90 102 114 120 123 130 127 124 120 117 112 107 104 101 97 92 91 86 82 84 81 81 79 76 73 71
101 95 89 80 71 58 47 40 32 25 24 27 32 43 56 66 75 79 88 90 99 108 116 120 124 129 124 120 117 113 107 104 102 100 96 91 85 84 83 82 83 81 78 76 76
102 97 89 79 67 53 46 36 28 18 16 23 32 45 56 65 73 79 80 86 96 103 112 119 120 123 123 119 113 108 106 104 103 102 98 93 87 87 82 82 83 82 80 79 78
100 93 85 77 63 50 42 34 22 10 12 23 36 49 60 64 70 75 80 82 92 98 104 112 112 109 122 112 113 111 108 106 103 100 97 94 87 90 89 88 89 88 86 84 84
100 91 83 77 62 49 42 34 23 8 6 19 32 45 52 60 66 71 70 80 88 92 98 102 109 108 113 119 111 113 111 107 105 100 97 94 89 93 92 92 90 88 87 88 87
102 93 84 77 62 50 45 32 22 12 6 18 29 39 48 55 61 65 69 76 83 87 90 96 99 105 106 114 106 102 102 105 105 104 98 96 93 97 96 92 89 87 87 91 91
101 94 85 79 64 53 46 30 21 16 9 13 25 36 44 50 55 61 67 75 77 80 83 89 92 100 105 107 110 99 91 95 99 98 99 99 98 105 101 97 94 89 89 87 84
99 94 85 79 65 54 46 31 27 23 13 8 22 29 36 42 47 53 59 66 70 73 80 86 90 99 103 100 106 101 95 91 87 87 85 85 86 91 91 91 88 85 82 84 82
95 93 86 81 70 57 51 37 29 25 21 13 18 26 36 41 47 51 56 61 63 67 74 82 84 87 85 91 97 103 96 85 82 81 78 79 81 85 83 80 79 77 77 77 77
90 89 84 80 75 59 54 45 32 31 26 15 20 27 33 38 42 48 53 53 56 60 66 73 74 74 74 78 86 96 102 93 83 81 77 78 76 75 76 77 77 75 75 75 77
86 82 80 76 70 62 55 47 40 25 22 17 17 21 27 32 37 42 46 47 50 54 58 62 63 61 66 70 76 84 93 99 88 82 80 82 81 79 81 82 80 79 79 79 80
80 74 73 70 66 59 52 46 37 25 14 16 19 25 28 32 35 38 41 40 42 46 50 54 57 60 63 66 70 76 82 91 99 91 87 85 82 81 84 85 83 82 84 84 84
74 69 65 64 61 51 47 43 32 22 15 9 7 15 21 28 31 34 34 32 35 38 41 47 52 53 57 60 65 67 76 82 87 96 93 91 89 87 86 85 84 85 85 86 87
67 64 61 58 55 52 43 40 31 21 14 9 8 6 12 14 21 23 23 30 32 33 36 39 43 46 50 56 60 63 64 70 77 82 90 97 97 93 89 87 89 88 90 91 92
63 61 57 53 50 46 38 35 33 24 12 8 7 9 12 12 14 12 17 27 29 30 34 38 42 45 46 47 50 54 60 65 69 74 78 83 85 87 89 90 91 90 90 88 85
61 56 53 49 45 42 36 30 29 27 16 11 5 6 7 8 7 8 12 17 21 26 30 35 40 44 48 48 48 51 55 61 64 67 71 71 71 69 71 74 71 72 70 70 68
58 54 51 46 42 38 33 25 21 22 19 15 8 4 4 5 3 5 10 14 18 22 26 31 36 40 44 47 47 49 52 56 59 60 60 61 61 62 63 62 59 58 57 58 59
56 50 49 45 41 35 30 24 16 11 11 11 8 5 1 1 2 2 3 8 12 18 25 28 31 34 38 42 44 44 47 50 52 52 55 54 53 53 54 56 54 50 51 57 53
56 51 46 43 40 35 28 22 15 8 5 6 6 6 5 5 4 3 4 5 6 11 15 20 25 28 30 33 35 40 44 48 49 51 49 51 54 55 52 52 52 47 45 43 37
54 52 46 42 38 33 29 22 17 11 6 6 8 9 6 6 7 7 4 5 8 12 14 17 20 23 25 27 29 30 32 32 32 34 34 35 37 35 34 35 36 36 33 32 30

GFSSW_250_spd_048.txt.gz
Wind_Speed
91 87 80 74 70 65 60 56 51 50 51 56 65 71 72 75 83 92 102 113 122 126 123 118 113 109 107 101 99 100 96 88 86 86 89 90 87 84 80 77 76 76 74 72 70
93 88 82 77 72 67 63 59 57 54 55 59 65 72 77 77 82 90 101 114 119 126 126 122 117 112 108 104 102 99 97 87 86 88 88 91 90 86 83 80 77 76 76 75 74
93 87 82 78 72 68 64 59 55 53 54 58 66 71 80 81 82 88 100 111 117 126 127 126 123 117 113 109 103 101 92 94 92 92 91 87 87 85 83 81 78 76 75 75 75
93 89 84 80 74 68 61 52 47 46 46 52 60 66 78 83 82 90 99 103 111 121 126 128 127 121 116 111 107 102 99 94 96 95 94 90 85 84 81 79 77 77 76 76 75
93 88 88 84 79 71 58 46 41 37 36 43 49 54 69 83 85 95 97 100 108 120 126 128 127 123 119 113 110 105 101 100 98 98 96 91 87 83 82 79 75 74 74 75 74
93 89 87 82 78 67 54 44 36 34 32 34 42 46 58 77 88 93 95 97 103 115 124 127 129 125 122 117 113 110 105 104 103 100 97 92 88 85 83 83 79 76 75 75 76
96 92 89 83 76 64 53 44 37 30 30 30 33 41 53 75 86 90 92 94 99 108 119 128 131 128 124 122 117 114 110 109 106 103 98 94 90 84 87 83 79 78 78 77 77
98 95 93 85 74 63 52 43 36 28 23 28 32 37 54 68 82 86 89 91 95 101 115 124 131 133 128 126 121 117 113 110 107 104 99 98 92 86 88 83 81 79 77 76 77
100 97 94 87 73 61 51 41 33 23 18 21 32 43 55 65 76 84 87 86 91 96 105 120 128 130 131 127 124 119 113 111 108 103 100 96 94 91 90 87 85 82 79 78 76
102 97 94 86 75 62 49 41 32 20 13 19 35 49 57 64 70 79 81 82 86 91 99 114 124 128 132 128 122 116 113 111 109 105 101 98 95 94 93 91 90 87 84 79 78
101 97 92 86 75 62 50 40 29 18 7 13 31 47 54 60 64 71 76 76 84 90 94 104 116 120 126 129 124 119 117 115 113 108 105 102 97 97 96 94 92 88 82 83 82
99 96 92 85 77 63 51 40 26 18 6 9 25 41 49 53 58 67 70 72 78 85 89 95 104 116 121 128 126 122 118 116 113 109 105 102 99 101 98 96 92 89 87 87 84
98 95 92 84 75 62 50 39 24 22 12 9 21 38 46 51 58 63 67 70 75 81 84 88 92 102 115 121 127 124 120 118 114 111 108 104 102 103 101 98 95 92 91 88 85
97 93 90 83 75 63 50 43 28 23 20 12 20 32 41 47 52 57 60 66 69 75 78 82 85 92 109 112 121 123 121 118 116 113 109 108 105 104 101 99 96 94 91 91 87
94 92 89 84 77 68 55 46 32 27 24 17 17 25 35 41 47 49 56 61 60 67 70 74 78 87 99 111 111 118 118 119 117 114 110 109 107 104 104 102 99 96 94 92 90
91 88 86 82 77 72 59 49 39 34 29 20 17 19 26 32 41 49 57 59 62 66 68 70 73 79 88 101 107 109 113 113 118 114 111 109 107 106 104 101 99 97 95 93 93
86 83 82 78 75 69 59 47 48 41 31 26 23 24 24 28 37 45 48 50 52 51 55 62 66 72 81 90 99 104 104 108 110 114 105 108 109 107 105 102 98 96 97 95 94
84 78 76 72 70 66 59 50 49 40 33 25 22 24 24 27 32 35 35 36 44 46 49 53 58 61 70 76 82 94 97 97 100 98 101 103 98 102 104 103 99 97 96 96 95
78 74 71 68 63 58 53 46 41 38 31 24 15 17 22 23 28 31 32 35 38 42 46 48 50 53 57 65 71 79 90 94 93 93 90 88 85 85 93 95 95 94 89 87 87
73 67 67 63 59 54 48 39 36 32 26 19 15 5 11 18 22 22 26 27 30 35 39 41 43 47 51 56 62 68 78 83 87 91 90 88 82 77 78 80 82 82 82 82 81
69 64 60 58 54 51 46 37 31 31 27 17 11 5 3 9 13 14 17 23 26 28 33 35 38 40 44 48 52 59 65 72 81 86 87 90 93 82 77 77 76 79 77 78 82
67 62 56 54 52 47 43 37 30 27 27 21 13 6 8 9 12 13 15 17 21 26 30 32 34 36 38 41 47 53 60 67 71 79 85 88 90 95 89 81 83 80 80 81 82
64 60 53 50 48 46 41 35 29 21 21 22 18 11 5 6 9 12 15 19 23 26 28 31 33 35 37 40 44 48 53 58 64 67 71 76 81 86 90 96 91 89 89 88 87
62 56 52 47 43 41 39 35 29 21 14 14 14 13 10 7 6 6 9 14 19 24 26 28 30 34 36 37 38 39 42 48 54 59 62 66 69 73 78 83 88 95 99 97 96
59 55 50 45 39 36 33 31 27 22 14 8 8 9 9 7 6 4 0 8 15 20 23 27 29 31 35 37 40 41 43 44 46 50 56 58 63 65 67 68 69 69 68 67 67
57 53 50 43 40 33 30 28 24 21 15 9 5 3 3 1 1 1 4 3 7 13 18 21 23 25 29 34 39 44 46 46 47 50 51 56 58 59 56 57 59 59 60 59 59
55 51 48 44 39 34 27 25 22 20 16 13 8 6 5 3 3 3 3 7 7 6 9 15 19 23 24 26 28 33 39 46 47 50 52 52 52 53 56 57 57 56 55 54 53

GFSSW_250_spd_051.txt.gz
Wind_Speed
82 80 75 72 70 68 65 59 55 51 50 53 60 69 71 73 80 85 91 102 115 125 124 124 120 116 111 104 101 96 93 93 92 91 92 90 84 84 82 77 78 75 71 71 69
84 79 74 71 68 68 65 63 58 53 51 54 60 70 77 76 82 84 91 102 111 124 126 123 123 120 112 108 102 99 94 90 96 98 96 92 92 87 85 81 81 79 74 73 73
85 81 77 72 70 67 64 59 53 48 50 52 57 69 82 82 82 83 94 101 106 121 127 126 127 125 119 111 106 101 93 95 101 99 95 94 95 89 87 83 82 81 77 77 76
87 83 78 74 73 69 64 55 46 43 43 46 54 66 79 86 85 93 93 100 106 117 124 130 130 130 123 113 107 101 99 102 98 97 96 97 99 90 90 88 82 80 80 79 78
88 85 81 77 73 70 61 51 41 37 36 39 45 56 74 85 88 91 98 98 102 111 121 127 130 128 125 118 114 108 104 101 96 100 99 96 95 97 91 87 86 84 83 81 81
91 89 85 83 78 72 58 48 39 34 31 35 38 48 65 81 94 96 94 98 99 109 115 125 131 129 128 123 119 113 107 103 102 104 100 96 96 96 92 88 87 86 85 84 83
93 91 87 86 83 77 63 48 38 29 25 33 36 42 55 74 90 94 95 95 97 105 112 121 130 132 129 127 123 119 112 107 105 105 102 98 93 88 92 91 86 83 81 82 82
93 93 89 87 84 78 64 50 40 29 22 27 32 42 52 64 80 93 95 93 96 102 107 117 122 131 131 128 124 122 117 112 108 108 104 99 92 93 91 88 84 83 81 77 76
94 94 90 87 84 78 65 52 43 32 20 19 27 41 48 59 74 91 94 92 93 99 103 109 119 124 132 130 126 125 121 114 112 109 106 101 98 94 91 90 89 85 82 80 79
92 93 90 87 83 77 65 50 43 31 16 12 22 37 47 57 70 83 89 92 91 95 97 102 114 121 125 132 126 120 120 117 114 111 106 102 99 96 95 94 92 91 86 83 83
92 91 88 86 83 79 65 51 42 26 13 4 18 33 47 54 64 76 86 89 91 89 93 98 105 116 117 128 132 127 124 122 118 113 109 105 103 99 99 96 93 89 87 85 85
93 91 88 85 82 78 67 53 41 24 14 3 16 32 43 53 63 76 82 81 84 86 89 92 97 108 117 121 132 127 126 122 120 116 113 108 105 102 102 98 96 92 89 88 86
94 92 90 86 80 76 67 52 38 22 19 9 12 28 39 47 53 64 72 75 79 82 83 87 92 99 108 113 126 125 125 125 122 118 116 111 108 106 103 102 99 95 92 90 88
93 92 90 87 82 78 67 53 36 25 22 14 11 25 37 46 50 53 59 66 69 75 81 84 87 93 99 108 118 128 124 123 122 120 120 115 113 108 106 104 100 97 95 93 93
91 91 89 85 83 77 68 54 40 31 25 17 13 16 28 36 40 42 48 58 64 70 72 74 79 85 89 98 110 123 127 122 122 122 119 117 115 109 107 105 103 100 97 95 93
88 88 87 84 79 74 69 57 42 38 26 21 14 14 22 32 40 44 49 53 58 63 66 68 72 75 79 84 98 111 123 125 123 122 121 119 116 111 110 107 105 103 102 99 98
85 84 84 81 78 72 67 60 46 44 34 19 20 15 16 22 32 40 46 51 56 59 61 62 66 68 71 77 86 101 112 122 126 125 121 116 118 114 110 109 106 103 102 101 99
82 80 79 77 74 70 66 60 50 40 36 31 17 15 14 15 20 26 30 35 43 48 49 54 57 60 63 68 78 90 102 110 115 119 121 121 118 114 113 111 109 107 104 103 101
78 77 73 72 68 65 60 55 46 36 33 28 25 13 12 14 16 19 21 22 26 33 38 41 46 50 55 60 68 78 87 98 105 107 111 116 120 119 113 112 112 110 109 107 105
77 74 71 67 64 61 56 51 42 34 29 25 19 15 9 5 10 15 17 20 21 25 27 31 36 41 47 50 58 62 72 80 91 99 103 105 111 114 115 114 112 110 108 108 107
73 72 67 63 60 56 52 46 38 31 25 22 18 12 8 4 1 3 10 14 18 21 23 25 27 32 38 43 50 55 63 69 76 86 93 95 96 97 105 109 108 111 111 111 111
72 70 65 59 54 52 48 42 38 31 23 18 16 13 8 4 4 6 8 12 17 20 22 24 26 28 32 35 41 48 55 63 70 76 84 89 89 88 87 89 92 96 97 97 97
70 69 64 57 52 47 45 41 35 29 22 17 14 12 8 3 2 8 15 17 20 21 24 25 26 29 31 34 37 42 50 58 66 74 80 84 85 85 83 83 85 85 84 82 75
69 67 62 55 50 45 40 39 35 28 20 13 10 7 6 4 2 1 4 10 17 23 26 27 28 29 31 34 36 40 44 50 57 64 72 76 80 82 85 84 82 82 82 81 81
69 64 60 53 49 43 40 35 32 28 22 15 9 5 4 2 2 0 2 6 10 16 23 26 28 31 31 32 34 37 41 46 53 58 60 64 68 76 82 82 80 82 81 82 85
69 63 60 52 49 42 38 35 31 26 23 18 13 6 4 3 4 4 6 6 9 12 17 22 27 30 31 33 35 36 39 43 43 47 54 56 61 63 65 72 80 82 83 85 86
67 63 59 51 47 41 37 33 32 28 24 20 16 13 10 9 7 7 8 10 11 11 14 18 21 25 30 33 36 38 41 41 43 43 43 49 50 55 61 65 68 70 72 72 73

GFSSW_250_spd_054.txt.gz
Wind_Speed
86 82 73 69 63 61 62 61 62 58 53 51 52 60 65 66 69 80 83 91 100 114 119 122 122 119 115 111 106 104 101 93 89 91 85 86 84 84 82 78 74 76 63 65 71
88 83 74 71 66 62 61 58 57 56 53 50 51 58 67 71 71 76 85 91 100 110 118 124 124 124 118 115 113 108 100 92 88 92 95 94 89 83 82 83 79 74 71 69 71
88 83 77 72 67 64 61 59 52 51 47 44 48 54 68 74 72 78 89 94 100 110 116 128 127 125 124 120 115 110 99 94 94 96 95 94 88 87 84 82 82 77 73 69 73
89 84 79 77 71 66 62 55 48 44 42 38 41 50 65 75 78 81 88 96 99 109 117 128 130 126 126 121 115 113 103 101 102 98 92 93 88 95 87 85 83 79 70 74 74
89 84 81 79 77 72 65 53 45 38 36 33 34 46 58 72 81 84 88 96 99 105 114 122 132 129 126 123 121 116 109 108 107 97 92 92 95 95 91 88 82 77 78 81 76
87 85 83 81 78 75 69 55 44 32 30 30 31 37 51 69 88 85 89 93 98 103 110 118 134 133 131 130 124 119 115 112 106 98 96 97 97 94 93 88 84 82 82 80 79
88 85 86 83 81 77 72 57 46 33 24 25 28 35 47 67 81 86 87 90 97 102 109 117 129 136 131 129 128 124 120 115 106 100 101 101 96 89 94 90 90 87 84 81 80
88 85 86 85 83 80 74 59 51 38 27 23 25 30 44 58 75 89 87 90 93 99 105 113 121 136 133 129 130 127 122 116 109 106 104 101 94 93 98 94 92 88 87 85 83
90 85 85 85 84 81 75 65 57 44 35 23 21 26 40 52 70 86 88 87 92 98 104 108 116 124 136 130 130 129 124 116 115 111 109 102 97 96 95 94 93 90 88 85 84
93 88 86 84 82 81 77 70 60 48 35 21 15 22 33 51 64 76 90 87 91 95 100 103 111 119 126 132 125 123 124 119 115 114 110 104 101 97 94 90 91 93 90 85 81
96 90 88 86 83 81 78 70 59 46 29 17 7 19 31 47 55 66 83 87 89 92 93 97 100 109 115 128 133 127 127 126 121 117 113 106 104 99 95 94 93 91 87 82 80
98 93 89 87 84 82 78 71 57 43 32 18 7 12 25 37 47 63 73 88 89 89 86 90 97 103 107 114 121 127 127 124 123 116 115 111 107 104 96 94 96 91 86 85 83
98 95 92 89 85 83 80 72 59 45 36 24 15 8 23 33 43 52 64 80 88 86 89 90 92 92 95 102 112 121 126 124 122 119 119 115 110 105 101 99 96 94 92 89 86
96 94 92 89 87 81 78 74 63 48 37 29 20 11 12 28 41 49 55 76 85 85 87 86 84 85 88 96 103 111 123 124 117 121 120 118 112 109 105 103 99 95 94 90 88
93 93 91 88 85 79 76 70 62 50 39 28 22 12 12 16 30 44 57 72 76 76 75 74 74 76 77 85 96 104 116 125 121 122 120 119 116 112 108 105 103 99 95 93 90
91 92 90 87 84 77 72 68 62 51 40 31 22 16 8 14 21 27 43 55 66 68 73 75 73 70 71 76 83 96 106 118 126 123 120 120 118 114 112 110 106 101 99 96 95
88 88 89 86 84 78 71 66 61 50 39 31 22 16 9 12 20 27 34 42 53 58 61 64 67 65 65 67 75 84 98 111 115 125 122 121 118 115 114 110 109 107 104 101 99
89 85 85 83 81 78 72 67 62 52 37 30 26 17 11 5 8 19 28 36 43 49 53 56 55 55 57 61 69 78 87 99 109 111 122 124 120 117 113 114 113 111 108 106 103
89 85 81 79 78 75 67 61 58 53 44 32 24 24 15 7 6 3 7 24 32 36 41 44 45 48 51 54 61 68 74 84 96 107 111 121 123 120 115 115 116 115 113 110 107
88 84 79 75 72 70 64 56 51 47 42 31 23 18 17 17 9 8 8 11 18 23 28 32 37 40 43 48 54 61 67 74 83 94 104 106 115 119 120 115 115 114 113 112 111
88 83 77 71 68 65 62 54 48 44 39 33 23 15 12 12 12 9 7 8 11 14 18 23 28 32 38 41 49 55 58 65 73 81 91 98 103 112 116 115 112 110 111 111 110
87 84 77 68 64 61 58 52 46 41 36 30 23 16 10 7 6 7 7 8 10 14 16 21 23 26 29 35 42 48 53 60 65 70 80 89 93 100 109 115 116 112 108 106 106
83 83 78 68 61 58 55 49 42 37 34 30 26 19 11 5 2 3 5 8 12 15 17 19 22 24 27 32 37 43 49 52 57 65 70 77 83 90 94 97 103 109 113 111 109
79 78 76 71 60 54 52 48 42 37 32 28 24 19 12 8 3 2 3 7 11 14 17 19 22 24 26 31 34 38 43 48 53 56 65 69 74 80 85 88 90 92 93 95 98
81 75 74 70 62 52 48 47 41 36 31 28 24 21 15 8 4 2 6 9 13 17 20 23 24 26 27 30 33 36 40 45 49 57 60 65 68 73 75 80 84 82 84 85 86
74 72 71 67 60 52 45 44 41 36 30 27 24 20 18 16 11 8 6 5 6 11 16 21 25 26 29 32 32 34 36 42 47 50 54 58 61 64 71 75 76 79 80 79 77
74 68 67 64 59 52 47 41 38 36 32 27 24 21 18 16 16 14 10 10 9 10 13 17 20 24 27 26 30 34 38 40 42 45 47 51 55 59 64 67 69 72 76 78 79

GFSSW_250_spd_057.txt.gz
Wind_Speed
90 85 79 70 64 60 57 56 54 53 57 56 53 55 61 63 64 69 74 81 90 95 103 115 123 124 120 113 109 107 103 99 95 93 87 85 79 79 80 79 72 68 70 70 66
93 87 81 73 69 63 57 55 54 54 56 56 54 52 60 67 66 69 75 84 91 96 102 113 122 124 121 116 113 110 105 99 95 92 93 89 82 82 82 79 73 71 75 75 72
94 88 82 76 72 66 61 54 53 50 49 50 50 48 51 66 68 73 77 84 91 96 102 112 121 123 123 121 115 114 105 102 100 96 94 94 88 85 83 80 75 72 77 75 75
95 89 82 77 74 69 65 59 52 47 44 42 41 41 47 58 69 78 77 83 93 98 102 111 116 121 123 121 118 113 110 110 105 102 98 94 94 86 86 81 78 77 78 75 75
99 91 84 80 77 71 68 62 48 38 34 34 34 34 39 51 72 77 79 84 93 96 100 109 113 120 121 121 122 116 113 113 113 108 103 100 92 89 86 83 80 76 78 78 79
101 93 87 83 80 74 71 66 48 34 25 27 30 29 34 55 77 79 81 83 88 94 99 107 113 124 124 124 123 118 117 118 118 112 106 97 89 87 86 86 83 79 75 80 82
104 95 88 84 82 77 73 69 54 42 28 19 21 27 36 53 68 79 82 82 87 97 102 107 114 118 126 124 124 123 124 122 117 114 105 99 91 87 91 86 82 82 82 82 80
109 97 91 84 82 77 75 71 60 52 38 24 13 19 27 44 67 78 81 83 84 93 97 107 112 116 125 127 125 125 127 124 121 114 107 102 95 91 92 86 85 85 84 83 81
111 101 94 86 83 78 76 72 63 52 40 27 12 13 27 44 64 74 78 84 83 90 96 103 108 113 118 131 127 125 127 123 121 114 110 108 100 98 94 90 86 85 83 84 84
111 103 94 89 85 80 78 74 64 52 40 29 13 8 26 41 57 67 76 83 84 86 95 101 105 109 114 125 128 122 122 122 124 116 113 109 104 102 97 91 87 87 88 85 84
113 103 95 91 88 83 81 76 66 55 41 30 17 2 19 36 52 67 76 83 81 84 90 94 99 104 111 122 131 129 126 124 126 122 117 109 107 106 101 93 92 89 88 89 86
112 104 95 92 90 87 83 79 70 58 43 32 23 5 13 29 42 57 69 77 82 80 85 87 94 99 106 114 129 128 126 122 125 124 120 117 109 109 103 97 95 93 87 84 84
112 104 95 92 88 84 83 78 72 60 48 36 28 13 9 22 35 48 65 73 77 80 77 82 89 96 102 109 116 130 127 125 123 121 120 118 113 109 105 102 99 97 91 86 85
110 104 97 91 86 82 80 78 72 64 55 38 30 22 10 14 25 39 51 65 72 77 72 76 82 90 96 103 112 127 127 123 122 122 118 121 115 111 107 103 101 99 92 88 87
108 105 99 91 85 81 76 75 70 65 55 42 32 24 18 11 23 33 47 52 63 70 70 72 74 82 88 94 99 108 122 120 120 120 119 118 116 113 109 105 103 102 98 93 91
105 104 99 93 87 81 75 72 69 64 55 44 32 27 19 12 13 30 46 55 55 65 71 69 68 72 75 80 83 88 101 121 124 119 117 116 114 115 112 110 109 104 103 98 95
107 100 98 93 87 80 73 68 65 60 55 47 33 25 23 17 11 20 34 40 51 55 60 57 62 63 65 66 69 74 86 99 111 124 113 111 110 110 113 113 110 109 107 104 99
102 99 96 92 85 78 73 67 63 57 53 48 36 25 17 18 9 11 22 35 37 45 55 57 55 55 54 54 56 61 68 82 96 105 117 125 111 109 112 113 113 112 110 108 103
98 98 91 89 85 77 71 65 59 55 49 44 37 26 15 12 12 11 8 19 32 37 42 47 51 52 54 51 48 52 59 68 77 92 100 110 116 116 113 112 114 115 115 113 109
93 92 89 82 79 75 67 63 57 52 46 40 36 26 16 10 12 15 9 12 18 24 29 37 42 47 51 52 52 53 55 61 68 75 84 91 100 111 116 117 115 115 113 113 112
87 87 87 80 73 70 64 58 53 50 46 40 36 30 20 9 9 13 16 17 17 21 25 30 33 37 39 42 45 48 52 56 64 68 75 81 90 99 111 113 113 111 111 110 109
82 83 81 83 73 66 60 55 49 45 42 39 33 28 23 14 5 7 13 15 18 20 19 21 24 28 33 38 42 46 50 54 58 63 70 73 79 91 100 108 115 115 111 111 112
85 79 79 79 72 61 57 53 48 42 37 34 29 26 22 17 9 2 5 11 14 18 18 22 26 28 30 34 38 42 46 49 54 60 64 67 71 79 88 98 106 111 114 115 116
88 80 77 76 72 62 52 49 47 43 35 31 29 24 21 18 14 8 3 6 11 15 19 22 24 27 31 33 35 39 43 45 49 51 59 62 65 71 77 85 93 101 105 105 105
84 79 74 77 70 62 52 48 42 41 36 31 27 24 20 17 14 11 8 5 7 12 15 19 22 27 30 32 35 37 40 43 48 53 54 58 62 67 72 78 85 89 93 97 100
88 78 77 75 67 63 51 45 42 36 35 30 27 23 20 16 13 11 9 9 8 10 12 15 18 21 25 29 34 36 39 44 47 51 56 57 60 65 69 73 78 82 85 87 90
86 79 75 69 64 61 53 45 40 36 33 30 26 23 20 17 15 12 10 9 9 11 11 14 16 21 24 25 28 33 37 41 45 48 50 54 58 60 66 71 74 76 77 82 83

GFSSW_250_spd_060.txt.gz
Wind_Speed
93 95 92 81 74 66 61 56 51 54 56 57 56 56 62 64 63 64 67 74 86 91 94 99 102 110 113 115 118 114 111 102 96 100 95 86 83 79 79 79 72 70 69 66 65
93 97 93 81 74 67 61 56 53 51 56 59 57 54 59 66 64 63 74 77 84 90 95 98 102 108 114 116 118 122 115 102 99 96 94 87 84 84 81 81 74 73 71 69 68
94 99 96 84 75 69 66 60 54 50 49 54 54 49 48 58 63 66 77 81 83 90 95 99 100 107 115 120 119 123 110 105 103 101 100 94 88 88 84 84 77 77 77 73 69
100 100 93 86 76 70 67 61 54 47 38 44 50 44 40 50 65 78 77 79 82 90 92 96 99 105 112 118 119 119 114 111 107 104 98 95 92 89 90 85 80 77 79 75 72
102 101 94 88 77 72 68 65 60 48 33 29 40 42 35 42 68 74 74 79 84 88 90 93 97 103 109 118 119 118 117 115 112 106 100 99 98 96 94 90 84 80 78 77 75
105 101 97 88 77 73 70 66 60 49 38 26 28 35 30 43 62 71 77 80 81 84 89 92 96 102 108 118 119 117 120 120 115 109 108 105 103 103 95 91 85 81 79 76 78
107 106 99 91 78 72 71 66 62 52 41 31 20 27 25 34 55 69 75 79 82 84 90 92 96 100 104 116 121 122 125 121 116 112 110 107 106 104 98 89 82 79 79 78 78
109 110 104 95 83 76 74 70 65 54 43 31 17 18 28 36 50 65 72 79 84 83 87 93 96 101 104 112 124 125 125 123 120 118 114 113 107 104 101 93 83 80 80 81 79
110 110 107 101 89 79 76 71 67 56 47 36 18 13 23 34 46 63 69 76 80 82 84 91 93 97 102 109 124 125 122 119 120 120 117 115 111 105 102 96 87 79 81 83 82
113 112 108 103 95 84 79 74 68 59 49 38 20 4 14 28 43 58 64 70 77 82 86 90 92 94 98 104 118 120 119 120 119 120 120 116 113 112 105 95 92 84 79 81 83
112 110 107 105 98 88 81 77 69 62 53 41 24 12 6 21 36 50 59 69 80 85 88 91 88 89 95 102 118 125 124 122 122 123 123 120 118 115 107 97 96 91 86 83 83
112 111 108 103 98 89 80 76 69 64 56 42 30 19 5 15 29 42 56 72 80 82 79 76 78 87 93 102 111 123 126 124 123 125 126 126 122 116 109 102 97 97 91 87 83
112 110 108 103 97 92 81 77 70 65 58 46 31 24 11 8 23 37 53 65 71 68 67 72 77 87 91 96 102 121 126 125 126 124 122 123 122 120 110 103 101 98 96 91 87
111 107 101 101 99 92 81 73 70 64 60 46 32 25 19 9 11 28 43 56 61 64 69 71 75 81 89 93 101 114 124 123 123 123 121 124 121 119 115 109 105 102 97 94 92
111 109 101 101 97 93 83 72 69 63 56 49 38 25 20 15 10 19 28 45 58 63 63 65 66 72 82 88 95 100 124 124 123 122 122 121 121 118 115 109 105 103 102 99 94
105 105 105 103 98 93 83 72 67 63 54 51 42 27 20 12 12 18 23 33 45 55 57 64 66 69 75 83 88 93 106 126 121 117 117 117 118 118 113 110 110 108 107 104 100
101 102 103 100 97 93 84 73 62 61 55 49 44 32 20 12 5 12 20 28 37 39 44 47 53 62 67 73 82 88 97 105 123 115 115 119 116 111 110 109 110 111 109 108 104
98 103 99 98 95 90 82 74 62 54 52 49 44 36 23 14 5 7 11 19 29 35 38 43 49 54 57 63 70 78 84 90 97 113 128 125 113 115 111 107 106 108 112 110 107
95 101 98 94 92 89 82 72 61 52 49 44 40 36 29 13 8 6 8 18 20 27 34 31 38 46 52 52 56 61 68 78 81 94 121 121 112 115 116 112 108 108 107 110 111
96 97 98 93 83 84 79 72 63 50 44 41 36 34 30 22 10 6 13 15 20 25 25 25 29 31 37 42 50 51 52 59 70 80 98 111 124 116 114 114 111 109 110 108 108
95 97 94 91 87 78 78 70 62 52 41 36 33 28 27 24 17 7 8 14 21 25 27 30 36 39 36 40 50 53 54 56 61 67 77 91 103 116 124 124 121 116 110 105 107
94 95 95 96 92 80 75 68 59 53 41 35 30 26 21 21 16 13 6 7 17 21 24 26 29 33 36 38 39 44 50 52 57 64 70 75 81 94 106 112 118 121 114 112 110
86 100 99 94 94 79 69 69 59 52 44 35 30 24 19 15 13 8 8 7 9 16 21 24 26 30 34 38 41 42 46 49 53 57 64 69 73 78 85 93 102 108 110 110 105
84 92 97 100 92 84 70 67 62 50 43 34 28 24 17 13 11 8 5 7 12 15 20 23 27 31 35 35 37 39 43 47 49 52 58 62 67 71 73 77 82 89 97 102 103
78 87 98 98 95 86 76 71 60 51 42 33 26 24 17 12 8 8 6 4 9 14 17 20 24 26 29 31 33 35 39 43 46 51 51 57 60 66 68 70 72 77 82 88 91
76 85 95 100 95 85 76 68 58 53 43 35 25 22 19 15 9 6 8 7 6 8 13 18 22 26 29 32 34 34 36 39 42 45 48 50 54 59 62 65 68 71 73 76 79
78 84 92 93 96 87 76 68 60 54 44 36 26 21 17 17 11 8 8 9 10 7 8 10 15 20 27 31 31 34 37 37 39 42 45 48 53 55 59 62 64 66 67 70 73

GFSSW_250_spd_063.txt.gz
Wind_Speed
88 91 84 80 78 71 60 56 53 52 51 54 56 54 59 60 61 63 66 75 83 94 102 104 101 103 101 104 107 107 115 109 102 103 98 93 90 85 80 77 72 69 68 68 64
90 90 85 80 77 69 62 59 55 52 51 52 57 56 56 61 63 61 72 78 82 90 96 103 102 104 104 102 113 114 111 110 106 104 102 97 94 88 83 79 77 73 72 70 68
93 91 88 82 76 69 62 61 60 55 49 46 52 55 52 56 64 70 76 80 85 88 92 100 101 101 105 103 109 108 105 108 113 111 108 100 96 91 86 83 81 77 75 73 71
96 93 91 87 75 69 64 61 60 55 48 39 40 49 47 46 60 73 77 79 83 87 90 96 97 95 102 100 105 116 110 112 117 115 108 103 97 92 88 87 83 77 72 74 73
96 95 92 92 80 68 61 62 60 57 49 39 33 38 43 43 54 65 72 76 83 85 84 89 92 93 100 101 104 107 111 112 113 115 112 108 102 96 89 89 86 83 80 77 73
98 98 96 93 84 70 63 65 63 59 50 39 30 30 35 36 42 58 66 71 79 85 85 85 90 93 100 103 103 107 112 112 112 116 114 110 103 100 94 90 89 86 83 83 80
101 102 96 95 87 71 66 69 65 61 49 38 30 25 27 31 44 54 65 69 76 85 84 83 90 91 96 101 102 108 114 114 115 117 114 113 108 99 98 94 93 91 91 86 81
102 101 100 99 93 76 70 72 70 65 51 41 34 22 17 25 42 53 65 67 76 82 83 85 89 91 95 99 102 108 113 116 115 116 116 113 107 103 104 99 97 93 92 90 84
105 104 102 102 95 84 76 74 71 66 54 46 36 21 10 20 36 49 61 68 75 81 85 86 89 90 92 96 99 104 110 115 116 115 115 112 107 108 107 106 102 97 92 90 86
108 105 106 103 97 92 82 77 75 68 57 48 38 22 9 12 26 42 56 64 74 82 92 89 85 85 86 89 86 94 101 115 117 115 114 113 109 109 110 111 107 101 94 87 85
109 112 106 105 99 95 89 79 75 70 61 50 41 24 12 6 25 38 47 57 70 80 81 77 73 74 81 83 88 96 101 121 119 118 115 113 115 110 114 116 111 102 95 89 84
111 110 109 105 102 97 91 82 77 70 64 53 41 27 17 5 12 31 42 53 66 74 76 74 69 73 80 83 86 94 98 116 120 120 117 117 116 115 118 117 114 106 97 93 87
108 108 110 108 104 99 90 85 79 73 67 54 42 32 21 14 6 19 32 49 62 69 70 69 69 72 78 81 83 91 95 115 119 118 120 118 117 121 120 118 115 109 100 94 91
108 108 108 109 106 99 92 85 79 74 67 56 46 34 21 19 10 19 35 49 58 64 68 71 72 73 77 79 81 87 94 112 121 121 119 120 117 121 122 120 117 110 103 101 94
103 105 106 107 103 99 93 85 79 72 66 58 49 39 28 18 12 10 22 43 53 60 64 66 68 68 72 74 77 85 93 109 119 122 121 119 120 119 123 121 115 110 107 104 101
97 100 103 106 105 102 95 83 78 73 64 57 50 40 32 23 14 9 5 17 33 43 45 49 53 61 66 70 74 80 85 96 118 118 116 118 118 118 119 116 116 114 110 107 104
89 99 101 103 106 104 95 86 79 68 63 57 48 42 34 25 17 13 6 4 19 32 36 40 46 55 61 66 70 76 83 96 106 119 117 119 117 116 118 115 115 114 114 111 107
84 92 97 98 101 104 100 88 79 70 62 53 49 39 33 28 17 12 5 4 19 17 22 30 46 52 56 60 65 74 78 86 95 117 119 117 111 116 119 116 113 113 112 112 109
81 88 97 93 98 101 99 92 80 69 58 52 43 40 30 25 17 8 1 6 10 9 14 15 24 43 54 56 58 61 72 80 88 102 115 112 111 117 117 117 115 114 112 111 112
80 85 92 95 92 96 98 95 82 69 59 50 43 36 32 22 16 7 5 10 13 12 13 10 17 22 31 42 49 55 61 69 78 87 97 113 114 117 120 119 118 115 112 111 109
77 83 90 94 95 94 96 96 87 72 59 47 40 34 28 23 16 10 1 10 15 16 18 22 19 21 20 30 42 49 52 59 68 75 86 97 107 119 119 117 115 115 110 108 105
75 82 86 91 95 88 90 92 89 74 61 51 36 32 28 21 16 10 5 2 13 21 24 23 24 26 32 36 39 43 47 52 56 65 75 86 96 104 124 122 116 113 110 109 110
74 81 83 88 91 90 86 88 83 81 65 55 41 29 25 24 15 10 6 4 6 13 19 25 28 32 35 38 37 42 50 54 58 63 63 71 83 92 105 114 122 123 121 116 114
75 77 86 85 88 89 86 84 84 83 69 55 44 31 23 19 19 13 10 5 5 9 13 17 23 27 30 34 34 36 37 45 51 58 63 64 72 78 87 96 98 107 111 110 115
73 77 82 84 87 85 87 84 84 79 72 54 46 33 24 17 16 15 11 10 7 8 11 15 18 22 26 28 32 35 35 37 42 52 52 62 65 71 78 83 86 88 95 100 100
72 75 83 85 84 84 88 84 82 75 66 54 46 37 27 21 16 14 14 11 10 10 12 15 17 21 24 24 27 29 34 37 42 43 46 52 58 66 71 74 76 79 81 83 86
72 77 83 83 82 85 85 80 82 76 64 54 42 34 29 22 20 15 16 15 13 12 12 13 15 18 23 23 25 28 30 34 36 38 40 43 51 55 61 66 71 72 74 76 77

GFSSW_250_spd_066.txt.gz
Wind_Speed
88 90 87 83 86 80 71 61 55 51 47 44 49 49 50 54 54 56 61 73 81 87 93 99 101 96 98 97 97 101 101 101 101 102 100 96 92 88 83 78 75 73 71 67 62
91 91 88 86 86 81 73 61 50 49 48 45 45 51 51 52 56 58 69 74 82 86 90 97 103 100 97 99 99 101 100 100 104 106 104 100 97 89 84 81 78 74 73 70 66
93 91 90 89 88 83 74 64 51 48 46 44 41 42 49 52 56 66 66 75 77 82 87 94 103 103 98 101 101 99 96 95 103 109 110 104 100 94 86 82 79 77 75 72 68
95 92 92 91 91 87 75 65 57 52 48 47 43 37 40 47 51 63 69 75 78 81 84 92 98 102 99 97 101 98 95 96 102 107 110 106 101 95 91 85 80 79 76 72 68
95 98 94 96 95 89 80 70 59 55 52 51 43 34 33 41 45 52 64 72 78 81 83 89 95 100 102 98 99 98 95 99 102 106 111 111 106 98 92 88 83 82 81 78 78
97 99 97 99 99 94 85 75 63 58 57 54 40 31 26 31 41 46 59 68 76 77 82 84 91 97 104 103 100 99 99 100 103 107 107 114 111 104 96 90 87 84 85 82 77
100 99 99 101 100 100 87 79 68 62 61 55 42 32 25 24 35 39 52 63 67 75 81 82 88 94 102 105 103 100 102 103 104 105 106 111 114 106 103 96 91 87 84 85 83
107 104 103 104 103 102 95 82 74 66 63 55 44 36 25 19 24 30 45 56 63 74 81 84 87 92 97 104 105 104 103 103 100 105 110 109 110 111 110 101 96 91 88 87 84
102 109 107 106 106 104 101 85 77 70 66 58 46 39 24 13 13 27 42 53 60 71 80 83 86 90 94 100 103 103 101 97 99 107 107 109 107 113 112 106 100 96 94 91 91
100 108 106 110 109 105 101 94 81 71 68 62 48 41 24 11 9 27 40 50 57 64 77 83 86 87 87 92 89 93 97 99 99 103 102 105 108 108 111 108 105 102 98 94 90
97 104 112 110 110 110 102 101 85 74 68 65 52 42 24 13 1 18 33 46 53 60 74 78 76 78 79 83 88 93 98 101 100 101 108 109 112 110 110 110 109 105 102 100 96
96 102 110 110 111 113 106 103 97 79 69 67 56 43 29 14 9 8 23 37 48 57 69 77 75 79 81 81 83 89 92 97 99 101 108 110 109 110 108 107 111 111 109 104 101
92 101 106 112 109 112 110 109 102 81 74 68 58 44 31 21 12 6 16 29 42 56 66 69 72 75 75 76 79 84 88 93 97 99 104 109 108 106 106 110 109 113 113 108 101
89 95 104 109 111 108 110 109 103 89 77 68 62 48 34 24 19 11 8 25 42 53 59 58 62 66 69 70 75 79 83 87 93 96 99 105 105 104 106 108 109 111 114 112 107
86 92 101 107 108 107 107 106 106 95 80 70 61 53 36 26 22 15 7 17 30 36 43 48 48 54 61 67 71 73 77 80 87 92 96 100 103 101 106 106 107 108 111 114 112
84 91 97 101 105 104 104 105 102 96 84 71 61 54 41 27 19 18 14 10 22 26 37 45 49 55 61 64 67 71 72 76 81 88 91 95 101 104 106 106 109 112 113 112 115
80 87 93 97 101 101 99 102 105 95 87 74 62 52 45 31 18 16 13 8 15 3 19 29 43 53 59 62 64 65 67 70 75 80 87 92 96 106 106 108 110 110 115 113 113
78 82 90 92 96 98 95 100 101 98 79 75 60 52 44 35 22 13 15 8 2 1 3 11 19 39 48 56 61 63 64 65 71 75 84 89 90 99 107 110 110 112 111 116 113
73 79 86 88 91 95 97 95 97 96 87 70 56 49 41 35 27 15 8 6 3 3 2 4 16 25 41 51 57 59 59 61 68 73 80 83 89 97 106 111 110 112 112 113 115
72 76 83 84 87 93 93 94 95 92 79 71 53 44 38 34 27 18 7 3 8 10 10 6 9 16 29 41 48 53 56 57 61 66 75 77 89 94 104 113 114 113 110 113 115
70 71 79 83 82 89 90 94 92 92 84 69 56 43 34 29 27 21 10 5 7 12 14 14 13 14 17 28 43 50 52 55 60 62 67 73 85 88 102 113 113 111 111 108 109
68 70 76 80 76 83 89 89 90 91 87 71 56 46 34 25 22 21 15 10 5 10 17 21 18 20 23 27 30 37 43 50 51 55 64 72 77 91 96 113 117 115 112 111 107
66 69 76 79 77 79 87 90 90 89 85 67 62 50 37 27 19 17 17 13 10 8 12 20 28 30 31 35 37 38 43 50 54 60 60 66 74 88 91 94 120 117 118 110 106
65 68 73 77 77 79 85 86 89 84 81 76 62 50 40 32 22 16 14 12 11 11 11 13 21 32 36 39 42 43 49 53 58 55 62 64 72 82 83 92 97 108 122 117 114
66 67 69 72 76 78 86 86 86 83 84 76 65 57 42 33 30 19 16 14 12 11 12 13 15 18 24 31 35 37 40 41 42 54 59 64 64 74 75 79 87 92 102 115 117
64 67 69 72 75 79 84 88 84 81 81 79 71 59 44 29 26 26 20 17 14 14 13 14 14 15 17 21 23 29 36 40 45 48 47 53 61 66 68 72 75 80 86 91 96
62 65 67 71 74 78 82 86 89 85 81 80 69 60 44 31 26 24 24 21 17 17 16 15 15 17 19 19 18 24 24 28 34 40 43 43 54 57 62 66 69 71 74 78 83

GFSSW_250_spd_069.txt.gz
Wind_Speed
86 82 85 87 88 91 92 89 70 60 49 46 48 49 41 47 49 55 61 69 76 83 85 92 94 93 91 91 95 100 104 98 99 104 103 100 97 95 91 87 82 76 73 68 65
90 94 90 89 91 93 93 90 74 63 51 48 43 43 45 44 48 55 62 69 74 80 82 89 95 95 95 92 95 98 97 95 93 99 105 105 99 97 94 87 83 79 74 70 67
93 92 92 92 94 94 96 92 79 64 55 51 45 37 36 35 46 55 60 70 73 78 82 87 93 97 98 95 94 97 90 94 97 99 103 105 103 99 95 91 86 83 76 73 71
94 91 96 93 94 95 99 95 84 67 59 53 48 39 33 32 38 50 58 68 71 76 81 87 91 94 97 96 93 94 92 96 102 99 97 104 104 102 96 92 87 83 80 77 74
93 92 94 100 93 97 101 99 91 71 63 59 51 40 32 32 36 43 54 64 70 77 80 86 89 91 93 96 94 94 93 96 100 100 98 100 104 104 100 94 89 85 82 81 77
96 96 97 98 99 96 101 100 92 76 67 62 54 41 34 28 33 40 49 60 70 78 79 83 87 88 91 96 97 94 94 97 96 98 100 98 101 106 101 95 90 86 84 83 80
97 95 98 101 98 99 103 100 93 82 71 66 57 45 35 27 23 31 43 52 63 74 77 80 86 87 89 94 98 98 96 99 99 96 98 98 100 99 103 98 94 89 86 83 81
97 95 99 101 105 104 103 102 94 87 72 66 61 50 39 28 17 22 35 47 57 67 77 80 85 86 87 90 95 98 98 98 97 95 96 99 95 101 105 101 98 94 90 87 82
96 96 95 101 105 103 104 105 96 89 76 68 62 53 43 28 14 15 31 44 51 60 74 78 82 84 85 88 91 96 95 92 95 96 94 97 98 99 104 105 103 99 94 91 86
95 95 96 98 105 105 103 107 99 89 78 69 64 55 47 29 13 8 27 41 50 57 71 79 81 79 82 81 80 85 90 91 94 95 94 98 99 102 101 103 105 103 99 94 90
93 94 93 98 104 105 105 106 104 92 84 65 64 57 48 33 14 3 18 36 47 57 66 74 77 77 78 80 83 89 94 95 95 96 100 101 100 98 100 101 105 105 102 99 95
91 93 93 94 101 108 104 105 104 96 89 69 62 58 50 36 15 8 6 24 37 45 55 68 65 71 76 75 80 86 91 96 98 99 101 102 98 98 99 100 101 105 105 103 100
90 92 93 93 100 109 106 105 105 99 87 72 60 57 51 39 21 14 8 12 32 45 52 57 65 68 71 73 78 83 89 94 97 99 99 101 100 97 96 97 99 99 106 106 103
88 90 90 91 97 107 111 107 106 101 88 76 60 54 50 42 29 19 11 14 20 37 44 54 62 67 69 72 76 80 86 92 96 98 97 97 94 97 98 97 95 98 98 107 109
87 88 88 88 93 104 107 104 103 100 91 82 64 54 49 44 34 22 15 7 17 27 37 45 54 61 66 69 74 77 82 86 90 94 97 98 93 91 95 96 91 95 98 105 111
84 86 86 86 91 98 102 102 98 99 93 85 73 56 49 43 33 24 20 15 3 4 22 34 46 56 61 65 68 71 74 78 82 87 91 95 93 92 95 95 96 96 98 101 106
81 85 83 81 86 93 96 99 98 97 93 85 75 60 47 41 35 25 16 17 15 6 6 17 31 43 52 58 61 63 67 70 73 77 83 87 89 88 96 96 97 96 98 99 104
78 81 79 78 82 89 92 96 95 95 91 83 79 63 46 40 33 25 13 14 13 7 10 10 24 33 44 51 56 60 64 66 68 70 75 79 79 80 90 94 97 97 96 96 101
75 76 77 76 80 84 87 91 93 87 91 83 80 65 48 36 32 26 18 7 12 15 15 9 12 28 39 48 54 57 59 62 64 67 69 70 75 79 86 90 92 93 92 93 98
73 74 74 73 75 80 81 86 89 87 90 89 75 69 54 38 28 25 19 11 4 13 19 22 19 17 24 37 47 52 57 58 60 62 63 65 71 77 81 87 89 94 94 92 92
71 72 73 72 71 77 77 81 89 92 87 87 81 66 60 42 25 21 19 13 3 8 17 22 27 24 26 31 40 47 52 56 57 57 58 63 68 71 76 83 85 90 94 92 92
70 71 70 71 70 73 75 79 84 90 88 84 82 72 61 52 29 19 15 14 9 4 13 19 25 28 31 30 33 38 47 52 53 55 57 61 64 70 75 79 83 85 90 94 93
67 68 66 68 66 73 71 76 79 88 95 87 83 76 64 50 38 22 14 11 10 8 8 18 26 29 34 36 36 37 43 48 52 54 53 56 56 74 77 76 78 84 84 90 93
65 65 63 62 66 67 71 73 77 86 91 87 85 79 69 54 40 27 19 14 10 10 11 13 21 31 35 39 41 44 46 51 56 56 60 58 65 76 77 78 75 82 85 85 88
64 60 62 58 63 65 70 72 79 83 90 94 88 80 71 61 46 33 21 18 15 12 13 13 17 19 30 34 39 43 48 52 55 58 61 66 67 76 74 68 71 74 79 81 80
60 58 60 56 59 62 68 74 79 82 90 95 89 86 73 62 50 37 25 20 17 15 15 15 15 17 21 25 29 35 43 48 51 54 55 61 62 69 68 67 67 67 74 77 79
55 55 59 53 58 61 67 72 78 81 90 99 91 83 75 72 57 39 29 22 20 19 16 17 17 18 19 21 22 28 30 32 38 42 42 46 57 57 62 62 63 64 66 69 72

GFSSW_250_spd_072.txt.gz
Wind_Speed
89 90 90 88 79 78 83 89 90 83 75 52 44 39 39 42 38 49 55 64 72 80 81 87 93 96 97 93 93 94 98 103 99 109 110 106 103 101 99 96 90 84 79 74 70
91 92 91 88 87 81 85 86 92 85 74 56 46 40 36 37 43 48 57 63 71 76 81 84 88 95 97 96 94 94 95 95 100 103 112 110 107 104 100 97 92 87 81 76 74
91 93 92 91 88 82 85 90 91 90 81 64 48 45 39 33 37 47 57 64 69 75 80 84 88 93 98 98 96 95 89 95 102 104 106 113 110 106 102 99 95 90 86 80 75
91 94 95 95 91 83 87 90 94 97 84 69 51 47 41 31 27 40 53 64 68 74 78 85 88 88 95 98 96 95 91 94 99 103 101 110 112 109 106 100 95 92 87 82 78
90 92 95 94 97 93 88 90 95 94 88 71 52 47 38 29 26 33 45 56 69 74 79 84 87 87 90 95 96 94 93 92 97 100 103 103 111 112 108 103 98 95 89 85 81
91 92 94 98 93 91 89 92 93 93 90 74 55 49 38 29 24 28 39 49 63 75 80 82 85 87 88 93 98 96 93 92 96 98 102 101 106 109 108 104 101 96 93 89 85
90 93 93 95 95 94 93 90 96 95 87 73 57 51 42 32 23 22 33 46 60 73 78 82 86 87 87 89 97 96 96 96 96 94 100 104 105 104 108 107 104 98 95 91 89
88 90 93 95 97 97 92 92 95 99 87 71 56 53 44 35 25 19 25 41 56 66 77 81 83 85 88 87 92 98 98 97 95 96 99 100 98 99 103 107 106 101 97 94 91
86 89 93 94 98 97 92 92 96 99 92 76 58 55 45 38 27 17 18 34 51 59 75 80 82 83 87 89 91 96 95 95 93 92 94 97 101 101 99 101 103 104 100 96 94
85 88 92 91 97 98 97 92 97 98 95 82 62 54 47 39 28 15 10 28 47 58 71 80 79 84 87 87 82 84 90 93 92 91 90 94 97 98 98 97 101 102 101 99 97
83 88 90 93 96 96 97 91 96 99 93 83 65 54 47 41 29 14 4 17 38 54 65 72 77 78 80 83 87 88 92 93 94 91 92 95 97 97 100 100 99 98 100 100 99
80 86 89 91 94 95 98 92 96 98 92 83 69 54 49 42 31 14 5 9 26 44 55 68 74 73 77 78 81 83 88 91 96 94 93 95 95 97 97 97 98 96 97 100 101
77 84 87 88 92 94 95 96 95 99 92 86 72 57 50 42 31 18 12 7 25 39 52 63 67 68 72 74 77 79 84 87 92 95 93 95 92 94 95 96 97 97 95 100 101
75 80 85 86 87 89 92 100 93 96 94 84 74 62 51 44 33 21 14 10 20 36 47 55 63 65 68 69 72 76 80 84 89 92 92 93 90 92 96 96 94 95 97 99 103
73 77 81 83 84 87 89 97 96 93 93 83 78 64 54 44 36 25 21 16 10 29 42 50 56 62 64 66 68 71 77 81 84 86 91 92 89 91 93 92 91 93 96 98 100
71 74 77 79 81 84 86 95 97 93 93 87 82 70 57 44 37 26 19 22 14 22 35 43 49 58 63 64 66 70 73 76 78 80 84 91 92 91 91 94 95 93 94 97 98
69 71 72 75 77 79 83 91 93 94 87 85 81 76 60 48 36 28 17 18 27 18 20 33 43 51 57 60 64 67 66 67 70 73 78 84 90 90 95 93 96 95 95 95 95
66 67 69 73 72 76 78 86 90 90 86 83 84 76 65 52 36 27 19 11 20 22 26 23 32 40 51 56 58 59 61 61 63 70 77 81 84 90 93 93 91 92 93 94 94
64 64 66 69 69 69 74 79 82 88 89 85 84 72 68 57 41 26 19 9 12 22 26 27 30 35 44 51 55 56 58 61 63 68 73 77 81 84 88 90 92 92 93 93 95
62 62 64 66 64 65 69 74 80 83 89 82 80 75 70 63 47 29 17 9 4 16 26 30 28 30 34 42 48 52 57 60 64 67 69 70 75 78 84 87 91 93 94 95 94
60 60 61 63 60 61 65 70 75 81 87 86 81 76 68 63 53 33 18 9 0 13 18 27 34 35 35 39 45 50 53 58 62 64 66 68 72 74 77 80 84 88 92 96 97
58 57 58 58 56 58 63 67 72 78 82 89 80 77 72 62 54 44 23 11 2 8 19 24 31 37 40 40 42 45 49 54 56 59 63 66 69 70 72 76 78 82 86 90 93
57 54 54 57 54 56 58 63 69 75 79 84 84 75 72 62 56 45 30 15 7 5 14 23 28 32 39 44 47 50 52 53 55 58 58 62 64 69 74 75 75 76 78 82 87
55 51 53 53 52 54 54 60 67 70 78 82 84 78 72 66 56 44 32 20 12 9 10 16 24 33 37 43 47 51 55 57 57 58 62 61 67 74 74 73 73 75 78 81 85
54 48 51 51 49 50 52 59 64 70 75 80 86 84 74 70 60 56 37 21 15 12 12 14 16 26 33 39 44 49 55 57 60 63 61 68 67 75 75 70 71 72 76 77 79
50 46 49 49 48 48 51 56 63 68 73 79 85 84 75 73 71 56 46 29 15 13 14 15 17 19 26 34 40 43 48 52 56 60 62 65 70 71 71 69 66 65 68 72 74
45 47 46 48 46 45 49 53 59 63 72 76 80 88 81 74 72 60 49 36 22 13 14 16 18 20 23 26 30 38 44 43 45 49 51 54 63 60 64 64 62 63 65 66 69

GFSSW_250_spd_075.txt.gz
Wind_Speed
84 88 88 91 88 88 85 74 76 82 86 82 77 63 36 38 40 38 46 51 56 62 68 75 82 88 95 99 98 102 101 102 103 108 103 106 106 104 99 95 94 86 82 77 79
83 88 89 89 92 90 85 76 77 84 86 85 79 65 38 35 36 40 44 52 57 60 64 73 82 88 92 99 98 100 97 100 101 102 102 114 110 105 102 99 97 90 86 82 79
82 86 89 92 93 92 83 77 79 84 87 86 82 61 44 38 35 34 40 49 56 62 65 74 81 87 91 97 99 99 96 100 102 103 106 113 110 108 106 104 98 93 89 85 81
81 85 88 93 92 93 84 79 78 85 88 86 84 63 46 40 34 29 36 46 55 64 69 74 79 86 90 93 98 97 100 101 101 104 101 109 114 110 110 104 100 97 93 89 86
80 85 87 91 91 93 90 80 81 86 88 91 83 62 46 41 30 27 32 42 50 63 70 75 80 85 88 90 98 100 99 99 102 103 99 108 112 111 110 106 104 101 98 93 87
79 84 88 89 93 94 96 83 81 86 90 92 81 62 47 41 31 26 28 39 48 61 72 76 80 84 87 89 97 98 99 101 103 99 102 105 108 116 112 109 107 105 102 98 91
79 83 89 88 92 97 97 87 81 84 90 91 82 65 50 43 31 21 23 34 47 57 72 78 82 84 86 89 94 100 100 100 100 96 100 102 110 107 111 111 108 105 103 99 96
80 83 87 88 91 97 99 92 82 84 90 92 85 68 51 44 33 21 18 28 42 55 68 77 81 84 85 86 90 96 100 101 102 101 98 100 101 105 113 115 112 109 106 101 98
79 82 86 87 89 95 97 94 83 85 91 93 84 68 53 45 35 26 18 22 37 51 64 76 83 85 85 86 89 96 100 101 100 97 95 93 98 108 110 114 114 111 108 104 101
79 80 85 85 90 93 95 95 82 85 91 90 87 69 53 46 36 27 16 17 32 47 62 73 79 82 83 86 86 86 91 99 98 96 93 94 96 100 107 109 111 114 111 107 103
78 78 83 83 88 91 93 92 86 85 91 92 83 69 52 45 37 27 12 10 26 43 55 65 71 74 78 77 83 90 93 97 98 96 95 93 94 97 105 107 109 107 110 111 107
75 77 80 78 84 87 91 87 86 84 91 91 85 69 53 47 38 28 12 4 18 36 50 60 67 72 75 79 84 84 87 90 95 95 93 92 93 97 99 104 108 107 106 107 108
74 75 76 77 83 84 87 85 88 87 90 91 78 68 55 46 38 29 11 4 13 27 45 57 63 69 76 78 80 82 83 87 92 95 93 90 92 91 94 98 104 105 100 102 104
72 73 72 74 79 80 82 82 86 89 89 90 80 67 58 46 40 34 13 9 10 25 42 52 60 67 72 72 73 78 83 86 86 90 93 94 91 90 93 97 101 103 100 100 104
70 70 70 70 76 76 78 77 86 88 89 89 81 70 60 47 41 35 17 14 8 22 31 45 52 58 65 69 72 77 80 81 84 89 92 89 88 88 88 91 97 99 99 100 100
68 71 65 68 73 73 75 75 83 87 91 89 83 71 62 50 41 36 26 10 15 12 29 39 46 53 62 65 66 71 76 79 84 85 85 88 87 86 87 87 92 96 97 97 100
65 69 63 65 70 70 70 74 79 87 86 88 81 71 63 55 40 36 30 13 14 13 20 34 41 51 56 60 63 68 72 75 77 78 81 83 84 86 86 90 93 93 93 94 96
63 64 59 61 66 65 68 70 75 82 85 84 80 71 62 59 45 29 25 11 8 17 26 30 36 43 50 56 59 62 65 69 70 70 75 79 83 88 90 92 92 90 90 92 96
61 55 57 59 62 62 63 65 72 80 81 80 77 72 66 58 49 32 22 14 4 15 24 30 39 46 49 54 56 57 59 61 63 65 69 78 81 87 92 93 91 89 89 87 90
53 51 54 56 58 58 60 61 68 76 81 76 74 74 68 59 52 35 20 15 6 9 24 31 34 40 44 49 53 56 57 59 61 64 67 72 75 79 87 90 91 91 91 91 90
49 49 51 54 54 53 57 55 63 69 74 76 71 69 68 65 58 44 20 11 7 5 18 28 34 36 38 43 48 52 54 57 59 61 65 67 71 72 78 82 88 92 93 93 93
46 49 48 51 50 50 53 54 59 66 71 74 72 65 66 61 60 51 30 11 6 7 12 21 32 35 39 41 45 50 52 55 58 62 64 66 68 69 72 76 80 84 88 91 93
44 47 45 48 45 46 49 50 55 61 66 72 71 67 64 63 59 55 39 20 8 8 12 16 25 34 39 42 44 47 50 52 54 57 61 63 67 70 72 74 74 76 79 84 88
41 43 43 46 43 43 47 45 51 57 63 69 72 70 65 63 58 52 45 29 13 9 12 15 23 25 32 41 46 49 53 55 56 57 62 63 67 70 72 71 71 72 75 80 83
40 42 40 43 40 40 43 42 47 53 60 67 73 74 67 64 58 51 47 39 23 10 13 16 20 26 29 33 40 49 52 55 58 64 62 68 68 73 73 70 71 73 76 78 80
37 39 38 40 37 38 43 38 46 50 57 64 69 75 79 66 59 56 49 44 34 19 12 15 19 23 28 35 38 40 49 52 56 60 61 67 69 69 71 72 73 73 75 76 77
34 37 38 37 36 37 39 37 43 47 53 59 64 73 80 74 63 60 53 46 42 30 18 15 17 21 25 30 37 40 43 46 51 55 58 63 69 65 70 70 71 69 69 73 74

GFSSW_250_spd_078.txt.gz
Wind_Speed
82 82 82 83 86 87 90 92 86 77 71 77 79 72 66 58 46 39 40 40 41 49 56 64 73 82 85 92 100 103 101 100 103 112 111 106 103 106 105 97 94 90 85 81 87
85 83 84 84 87 88 92 95 89 79 73 78 82 72 64 57 44 38 40 40 42 49 56 63 70 79 83 89 99 104 99 99 104 106 107 103 104 108 106 103 99 92 87 86 82
82 83 84 84 87 89 93 97 89 83 75 81 83 73 71 56 43 36 38 40 41 49 56 63 69 76 82 88 93 98 101 106 109 106 108 104 100 105 109 108 98 92 92 87 84
81 83 85 83 86 89 93 96 94 86 77 82 80 81 73 58 39 36 36 38 41 46 55 63 68 74 79 81 87 94 102 109 106 105 106 105 102 108 109 105 100 97 94 96 89
81 81 84 84 86 90 92 94 94 86 79 83 83 85 74 58 42 36 33 35 39 43 52 63 69 74 75 81 84 91 103 107 104 105 105 104 104 108 106 105 102 100 96 91 95
81 78 83 84 86 91 94 94 97 87 79 85 85 87 74 61 45 37 31 32 36 41 50 62 70 72 78 82 84 94 101 105 105 108 103 100 106 106 105 106 107 104 101 94 86
78 77 83 84 86 91 92 95 98 89 80 84 87 86 77 63 48 39 31 29 32 38 48 64 68 69 74 80 84 92 98 103 109 101 101 100 104 106 106 105 109 112 106 103 95
75 78 82 84 87 91 92 94 95 92 80 85 88 88 80 64 50 41 30 24 29 36 47 58 66 73 76 80 86 91 95 104 106 104 102 101 102 104 106 107 110 111 110 106 101
73 76 81 83 86 90 91 94 97 93 82 85 88 88 81 66 49 41 30 22 24 33 45 55 67 72 76 79 85 88 93 99 101 102 102 101 100 103 106 106 112 107 107 108 107
71 74 78 82 86 87 91 92 96 92 81 84 88 88 82 64 48 38 31 24 21 28 42 54 64 70 74 78 80 84 87 96 99 101 103 102 101 102 105 105 107 114 111 109 106
69 73 76 80 84 86 88 89 94 93 79 81 86 87 79 63 47 39 33 27 19 24 37 52 58 70 73 76 82 88 92 97 99 99 100 99 99 95 100 101 104 110 109 108 108
67 72 73 78 81 83 86 86 91 87 80 81 84 87 78 63 47 40 33 25 15 22 35 47 54 64 72 79 82 85 89 93 100 100 99 97 100 93 94 97 100 104 112 112 108
66 69 73 75 81 81 82 85 87 86 78 81 85 85 78 64 47 39 33 22 11 17 30 47 55 65 73 75 77 80 85 88 94 96 98 102 99 86 85 94 95 96 105 115 113
65 67 71 73 79 79 77 82 84 80 79 78 85 84 81 68 49 39 33 22 8 11 26 39 49 56 63 68 72 73 80 87 91 96 99 99 95 88 88 88 89 93 102 105 112
62 66 69 71 75 75 73 79 83 77 77 77 82 82 82 70 51 38 32 27 10 8 22 31 39 47 57 65 69 75 79 83 88 94 96 93 87 86 83 82 88 93 95 103 107
60 65 68 68 69 68 70 76 78 74 77 76 79 78 76 72 57 40 31 27 9 4 12 23 38 47 57 64 66 71 76 81 85 88 86 83 83 85 83 84 86 92 92 96 102
60 61 65 66 66 64 67 72 74 70 73 73 78 75 71 71 59 44 33 26 12 6 9 16 30 45 55 62 64 68 73 77 81 80 78 78 78 86 81 83 85 87 91 93 98
57 59 63 63 62 59 62 67 70 66 72 74 75 72 68 66 60 47 35 26 16 8 7 16 25 33 47 54 58 63 67 74 74 75 75 79 78 81 82 84 86 88 88 91 93
55 56 57 58 57 55 58 62 66 62 69 76 74 73 69 62 60 48 38 25 18 7 7 15 23 33 42 49 56 61 63 65 69 72 74 75 76 77 82 86 87 86 86 88 92
53 54 55 55 52 51 54 59 61 59 68 72 75 72 65 59 55 52 42 29 18 11 0 17 27 36 42 47 51 56 59 61 63 67 70 73 75 75 81 83 85 86 85 86 89
51 54 50 51 48 46 50 54 55 56 63 69 69 71 66 59 53 49 43 33 20 11 5 9 21 28 34 42 47 51 52 54 58 62 67 69 70 72 78 80 82 83 85 86 86
48 49 48 47 43 40 46 50 51 51 60 67 66 67 64 60 54 47 43 35 27 14 8 8 17 24 32 37 42 45 49 54 55 59 62 63 66 67 73 77 80 81 83 84 87
46 45 44 42 38 36 42 47 49 48 55 60 64 61 62 60 55 51 46 39 29 19 13 9 12 20 28 32 41 44 47 51 54 56 58 60 63 65 69 73 73 76 78 81 87
41 40 42 39 33 34 39 44 44 43 51 56 61 62 61 59 55 54 50 45 31 23 16 13 13 14 20 28 34 42 47 49 51 54 59 59 60 63 67 68 69 70 72 76 84
34 36 37 36 30 32 35 41 39 39 47 51 57 62 64 59 55 56 52 44 39 28 19 14 15 17 21 22 25 34 43 47 50 58 55 61 61 63 64 65 67 68 70 75 79
33 33 34 32 27 30 33 38 37 35 42 49 52 58 64 65 60 59 54 48 41 35 22 17 18 18 21 24 26 25 31 41 52 52 55 59 60 63 64 67 69 72 72 75 77
31 31 32 28 25 29 32 35 35 32 39 45 50 54 63 67 63 63 57 55 45 38 33 20 15 21 22 24 25 31 30 34 36 41 55 57 62 61 65 68 70 70 71 73 75

GFSSW_250_spd_081.txt.gz
Wind_Speed
90 97 94 93 97 91 86 86 86 84 82 77 67 66 71 69 64 58 55 50 42 38 42 47 56 66 72 83 89 97 100 101 103 105 109 111 107 100 95 94 87 88 85 83 77
91 94 90 89 94 89 86 86 87 88 84 79 72 67 73 70 64 57 52 43 38 36 40 46 52 60 68 80 89 97 99 99 103 104 103 107 111 109 98 96 91 88 90 86 79
95 95 92 93 90 87 86 86 89 91 88 82 76 70 74 73 63 53 48 38 35 36 38 44 51 56 64 78 88 95 100 102 105 106 105 109 112 117 109 99 91 89 91 88 81
93 94 96 92 86 85 86 88 91 91 88 82 76 71 77 75 64 54 46 38 35 35 36 43 51 56 62 72 85 93 98 102 104 104 104 105 109 112 114 108 98 95 92 90 83
95 96 98 91 81 83 85 91 93 93 91 84 77 75 79 74 67 54 41 38 35 35 35 39 53 56 62 74 81 91 96 101 102 105 104 103 106 108 110 113 109 104 100 89 84
95 98 94 84 79 82 84 92 93 93 91 83 77 76 79 73 69 60 43 39 34 32 31 34 54 59 68 74 79 87 96 101 102 104 103 105 104 108 107 109 112 109 104 98 87
95 94 90 80 78 80 82 90 92 93 91 81 76 77 79 75 72 61 46 40 34 29 29 36 50 60 64 72 82 90 97 101 105 105 112 113 105 106 108 109 108 111 108 106 104
92 89 79 75 75 78 83 89 92 94 89 82 74 80 80 77 74 61 45 37 29 25 29 37 49 60 69 74 81 87 90 100 104 108 111 106 101 108 113 112 107 106 108 105 100
87 80 75 72 71 76 81 87 91 93 90 80 75 81 81 79 78 60 45 34 23 20 26 37 51 61 71 74 81 87 91 95 102 106 107 110 109 110 106 113 113 107 106 106 102
79 76 71 68 70 74 80 85 90 91 90 78 74 80 78 82 76 57 44 32 20 14 22 34 44 58 67 74 81 85 87 95 101 102 107 110 107 107 106 108 111 108 107 105 108
71 71 67 65 68 73 78 84 90 90 89 78 72 77 77 80 75 55 40 31 22 13 19 29 41 59 70 75 78 80 87 89 93 97 100 107 102 104 105 106 107 108 106 105 102
67 67 65 61 64 71 77 82 87 88 88 77 71 77 75 80 72 53 38 30 20 10 15 30 45 58 69 74 75 79 82 84 92 95 98 100 102 100 100 100 102 105 104 105 104
65 62 63 58 64 69 75 81 84 85 86 75 71 75 78 78 70 51 36 29 20 8 13 28 40 54 66 70 75 76 78 81 84 93 91 93 98 98 95 98 98 100 103 102 105
60 58 58 57 62 66 73 77 80 81 85 73 72 75 77 76 70 53 36 27 20 9 7 19 36 52 60 66 71 75 78 80 83 88 89 89 95 91 93 93 93 97 99 103 101
57 58 54 54 59 64 70 75 76 77 82 70 70 73 75 75 67 54 35 24 21 12 3 18 33 47 58 63 66 71 72 72 79 87 86 84 85 89 89 90 90 92 95 99 102
53 52 52 53 57 62 67 70 72 72 77 68 69 74 74 73 67 53 35 24 21 12 3 14 28 39 48 59 63 65 67 71 76 81 82 80 83 88 88 85 84 85 88 94 96
49 49 48 52 53 58 64 66 67 67 70 64 65 74 73 71 68 57 43 27 22 13 8 12 21 34 44 55 59 62 64 70 75 77 79 78 81 83 83 83 87 87 84 85 90
45 45 48 49 53 57 60 60 61 65 65 61 62 69 69 68 67 58 49 34 24 18 9 13 19 30 37 47 57 61 65 70 75 72 74 77 78 81 83 83 83 79 80 81 86
42 44 42 44 49 53 55 56 56 62 60 62 60 64 65 67 66 60 49 39 25 19 9 9 15 26 34 42 52 57 59 66 66 71 73 75 79 81 79 74 76 79 80 79 82
41 41 39 44 46 48 49 50 52 57 56 59 59 62 63 64 63 61 52 41 29 20 14 6 17 23 29 41 50 55 57 61 64 67 69 72 74 73 75 73 78 79 79 80 81
41 38 35 39 42 43 43 44 48 51 50 59 60 60 63 63 63 62 54 45 35 23 15 9 5 19 29 35 41 46 51 55 59 64 66 68 68 72 76 75 74 76 77 78 79
42 37 35 37 37 38 36 40 43 45 45 53 60 58 63 63 59 60 56 47 38 28 19 11 5 6 19 28 36 41 45 48 53 58 61 64 66 69 74 75 72 72 75 78 80
39 35 32 32 33 31 32 35 39 41 39 47 57 60 60 62 57 58 54 50 43 33 23 13 7 5 9 20 30 38 41 44 48 50 54 58 62 67 71 71 70 71 71 75 81
37 32 29 27 28 27 29 31 34 38 36 43 53 58 58 60 58 58 55 47 43 37 29 19 10 7 9 13 22 31 40 43 46 48 56 58 59 61 65 66 66 69 69 75 82
35 29 26 24 22 23 26 26 31 34 33 39 44 54 56 56 60 58 54 50 41 40 34 26 19 9 11 12 15 19 29 38 46 50 51 58 57 60 63 65 64 65 69 74 78
33 27 24 23 21 21 23 24 27 30 30 36 41 49 54 57 58 55 52 52 44 40 37 30 22 17 10 12 17 21 23 27 35 43 52 53 58 59 60 61 63 67 67 70 75
32 27 24 22 18 20 22 22 25 27 27 32 35 44 50 54 58 58 53 51 49 43 37 33 27 20 17 14 16 21 22 25 29 33 37 46 52 49 57 63 66 65 67 70 73

GFSSW_250_spd_084.txt.gz
Wind_Speed
71 77 87 86 90 94 95 99 97 92 86 80 75 72 69 59 59 59 62 61 63 65 58 54 49 53 59 65 78 87 93 97 97 100 104 108 107 108 106 102 97 93 84 81 69
78 84 85 89 94 94 95 98 95 91 84 80 76 73 72 62 62 63 64 63 64 61 46 45 44 48 54 59 71 82 88 99 99 102 105 105 107 108 106 100 97 95 88 77 65
84 88 89 92 93 93 96 96 92 90 85 81 75 73 70 64 64 65 65 65 61 51 40 39 40 41 51 56 67 77 83 94 99 102 105 105 106 108 105 103 98 94 90 85 85
86 89 93 90 95 93 98 95 91 91 84 81 78 72 68 66 68 68 66 62 54 42 34 34 35 40 49 53 65 75 83 91 100 103 104 105 105 107 107 103 102 93 92 84 86
89 93 95 92 96 95 95 93 91 90 83 82 78 73 70 68 70 69 66 59 46 38 31 30 33 42 49 56 64 71 79 89 96 102 103 103 102 104 111 108 104 100 95 91 82
93 95 95 96 94 94 91 91 88 87 82 81 76 72 69 70 74 74 67 53 41 36 32 29 32 42 52 58 65 72 80 89 94 100 102 102 102 104 113 113 108 103 98 91 83
98 98 94 95 95 86 87 82 84 85 82 81 76 71 70 73 74 70 65 49 38 34 31 27 32 42 53 60 69 78 85 92 99 100 103 105 103 104 115 116 112 106 100 94 87
100 98 95 97 85 81 79 78 81 82 80 79 74 71 69 75 74 71 62 51 36 34 30 28 33 44 56 61 69 78 84 93 100 102 101 102 105 105 107 119 115 111 105 98 92
98 96 94 84 79 80 76 76 79 80 79 77 72 69 67 75 75 69 63 51 36 34 28 28 32 44 54 67 73 79 85 93 100 96 106 101 103 102 103 114 117 113 108 102 96
92 86 85 77 78 75 72 71 76 75 78 76 69 68 66 73 72 70 62 48 36 29 24 27 30 43 56 68 72 76 80 87 91 95 100 102 100 102 103 109 116 113 113 108 103
80 80 75 72 69 67 66 68 73 74 78 74 69 68 67 71 70 72 59 45 36 26 20 23 30 43 54 66 70 72 76 85 92 91 94 102 105 109 107 106 112 116 113 111 110
74 69 66 65 62 62 62 66 68 73 79 72 68 65 67 72 71 68 57 41 33 24 18 18 29 40 53 65 70 71 77 84 91 90 91 99 107 104 105 108 109 114 112 110 112
72 68 66 61 57 57 57 62 65 72 77 68 67 61 69 70 69 68 54 37 30 21 12 16 27 37 50 63 71 73 78 81 83 88 92 98 104 100 99 104 106 106 112 112 110
69 64 61 58 53 51 53 56 62 71 75 67 65 62 68 66 68 63 51 35 27 18 6 7 24 39 51 62 69 74 77 82 87 87 90 93 99 99 98 99 96 100 101 109 112
62 58 55 50 49 46 48 51 60 69 73 65 64 59 64 62 65 60 49 33 25 16 4 12 21 33 46 58 66 72 74 78 80 86 88 90 92 94 95 93 93 98 102 108 107
57 54 48 43 44 42 44 49 58 65 72 66 61 57 60 61 62 57 48 31 24 15 5 10 22 32 42 51 62 68 72 76 76 81 84 86 83 87 90 89 91 95 99 100 99
54 47 38 37 38 37 40 45 53 60 65 63 56 57 59 61 63 57 46 31 21 16 8 8 17 28 39 45 55 59 64 68 73 76 79 79 75 80 84 87 87 86 90 94 99
49 40 34 34 33 32 36 41 51 56 60 60 54 55 60 62 61 57 46 35 22 17 11 9 15 23 34 41 49 54 54 61 66 67 69 74 73 74 76 79 77 77 81 85 92
45 37 35 33 31 29 32 41 46 49 53 59 52 52 59 60 59 57 51 41 27 19 14 10 14 22 30 37 44 51 53 56 59 63 67 70 71 70 70 73 75 76 79 81 87
43 37 34 32 25 26 31 37 42 43 47 54 47 49 55 59 58 59 54 47 36 22 14 10 13 22 28 35 41 44 49 54 55 58 61 64 67 65 67 70 73 76 77 76 79
40 39 30 28 20 23 28 34 36 38 43 47 48 47 51 56 57 58 52 48 41 29 16 11 5 13 26 36 43 46 51 53 56 55 56 59 64 66 68 68 70 71 73 74 74
42 39 29 23 19 22 26 30 31 32 36 41 42 45 50 53 58 58 56 50 45 34 24 12 7 4 12 28 37 42 48 50 53 53 53 54 59 64 65 66 68 69 68 69 72
46 37 28 23 19 21 23 26 26 27 30 33 42 42 47 51 57 56 55 53 50 40 30 21 8 3 4 8 24 33 39 44 47 50 52 55 59 62 62 60 62 66 68 70 72
44 36 28 23 20 18 19 22 22 25 26 28 38 40 45 50 53 57 52 51 52 44 36 26 15 4 3 9 14 23 32 36 42 46 49 52 55 58 60 63 65 67 70 73 76
42 34 28 24 19 15 16 19 20 22 21 27 30 41 44 48 53 57 55 53 50 47 40 32 24 15 3 5 10 15 19 27 37 41 45 52 51 54 57 60 62 65 68 71 73
41 35 29 23 19 14 14 17 17 20 19 23 26 35 43 47 51 54 56 51 47 49 45 39 32 24 11 5 8 13 17 21 26 32 43 45 51 55 57 58 60 63 67 68 69
41 34 29 24 17 14 14 13 15 18 17 20 29 29 37 45 48 53 52 53 53 49 45 42 40 33 22 12 9 10 16 20 24 26 30 37 46 47 54 57 62 63 62 63 67

GFSSW_250_spd_087.txt.gz
Wind_Speed
68 65 68 69 70 75 84 88 89 93 98 99 102 97 91 77 62 59 59 55 56 61 62 67 71 70 66 64 60 63 63 68 72 85 94 111 116 112 109 106 103 102 98 90 78
68 67 71 72 75 80 88 90 91 97 98 100 103 96 91 80 63 62 56 57 59 64 64 68 67 69 62 59 54 55 58 70 78 89 99 114 119 113 109 106 104 101 102 95 83
69 77 70 71 83 83 88 92 97 99 99 103 105 97 94 81 65 64 59 59 62 65 67 68 65 59 52 50 48 45 54 67 74 87 103 115 117 115 107 105 103 102 101 95 91
85 79 75 84 91 90 95 96 97 101 102 105 104 97 93 78 71 65 60 62 63 66 67 66 55 45 44 40 42 43 57 71 73 88 101 112 113 116 108 105 104 105 105 99 94
93 86 88 88 92 96 96 97 101 101 105 106 100 96 88 75 71 65 62 62 64 68 63 56 41 37 38 41 43 50 57 68 70 83 96 107 114 115 110 108 105 105 103 99 96
98 93 90 97 96 98 97 98 99 101 105 99 96 93 86 74 68 64 63 66 66 65 56 45 33 32 37 40 46 52 60 65 68 82 95 104 111 112 113 108 103 103 104 100 98
107 100 97 102 100 99 97 99 99 104 99 95 92 89 80 69 66 65 67 66 63 56 48 37 28 30 36 43 52 55 58 54 65 79 90 101 110 113 112 113 106 103 101 98 95
109 105 99 101 102 102 100 99 97 93 89 87 86 84 72 66 64 66 67 67 62 52 41 33 27 26 35 47 55 58 57 62 67 81 90 100 107 108 109 115 109 105 102 101 90
110 107 108 104 106 103 101 97 87 82 80 82 84 80 66 63 64 69 66 67 60 48 36 31 26 24 36 49 57 60 59 63 68 76 81 91 102 104 110 114 105 102 103 104 98
91 94 95 95 94 92 93 88 85 74 77 78 80 77 60 60 64 68 67 64 60 44 34 29 24 24 38 48 53 53 61 62 72 75 85 88 94 105 109 110 114 104 102 101 100
83 90 85 86 85 82 79 76 72 69 73 76 78 70 58 55 63 65 66 61 57 41 33 27 22 26 36 46 55 65 71 71 77 85 84 93 98 101 109 111 108 113 105 102 98
63 74 74 73 70 70 68 68 66 67 69 74 73 61 57 57 63 65 65 58 50 38 31 24 19 26 36 45 57 63 63 66 79 85 89 88 95 103 108 109 109 117 111 107 107
58 65 65 62 57 58 57 61 60 59 64 70 68 55 55 58 64 63 62 55 43 34 27 22 16 25 36 44 56 60 63 68 72 83 88 89 90 101 103 106 111 114 119 110 108
55 55 51 50 47 47 50 51 49 53 61 64 61 50 52 57 62 61 59 48 36 30 22 16 13 25 35 43 54 60 62 66 75 80 84 87 93 89 98 103 109 113 114 114 111
52 54 47 43 40 42 42 42 43 50 56 58 54 48 50 56 57 60 53 43 33 25 18 9 13 25 35 45 52 60 63 67 72 77 79 80 84 89 91 97 105 109 110 118 110
54 50 43 40 35 37 34 33 39 44 50 53 48 45 49 56 55 55 50 42 28 22 15 5 12 24 31 36 49 60 62 65 70 73 76 78 78 86 88 93 99 102 105 107 118
53 47 42 37 35 31 28 29 35 39 49 48 46 40 46 55 53 52 46 37 25 19 14 3 9 21 30 40 47 54 62 66 68 72 73 73 72 79 83 82 89 95 100 103 110
50 45 42 35 33 26 25 22 29 34 46 45 46 35 45 51 49 50 44 37 27 21 17 7 6 14 23 33 47 53 60 66 68 66 64 65 70 75 76 76 80 87 94 99 105
50 48 42 37 31 26 23 17 23 32 42 44 44 35 46 47 47 44 46 38 32 21 18 11 8 12 21 27 31 45 50 55 61 59 59 63 67 68 71 74 79 84 88 93 98
50 51 44 38 30 26 14 15 19 28 38 41 44 39 43 44 44 41 42 41 35 27 19 14 8 11 16 26 34 39 43 44 47 50 54 59 62 62 63 69 76 77 79 85 92
57 52 47 38 32 23 12 12 15 24 33 38 43 42 42 45 43 43 45 42 37 32 21 15 10 4 13 23 30 35 40 43 42 42 46 53 59 63 62 65 67 69 73 76 81
58 53 45 39 33 20 12 8 13 19 28 34 37 40 41 45 45 45 45 45 42 35 28 16 9 5 2 9 23 32 39 44 44 43 43 50 55 60 58 58 59 66 71 73 75
60 52 44 39 28 22 13 6 9 14 22 27 32 36 45 46 46 46 46 48 46 41 35 25 14 7 3 1 9 16 30 35 39 43 46 48 51 53 56 59 60 64 68 70 73
58 49 44 37 30 22 12 6 4 11 18 21 28 35 42 48 47 51 47 50 49 43 38 31 20 11 3 2 8 14 19 25 32 37 40 44 47 50 53 55 58 61 64 68 71
56 50 44 38 30 21 13 7 1 8 13 16 27 33 38 45 50 56 52 53 51 47 44 38 31 18 11 2 5 10 15 20 24 25 32 38 40 43 46 49 51 55 58 61 64
58 52 43 38 31 22 14 8 3 5 9 15 23 30 35 41 46 52 55 53 56 52 51 49 42 33 23 12 3 7 13 17 20 25 32 32 38 41 44 47 50 55 58 61 63
59 51 43 36 28 22 15 9 5 4 7 13 21 25 34 40 42 47 51 51 54 56 53 54 49 42 33 24 17 11 6 11 16 22 25 29 34 36 43 48 52 57 61 64 64

GFSSW_250_spd_090.txt.gz
Wind_Speed
78 83 77 78 77 76 78 74 78 79 81 83 84 91 94 94 95 95 89 81 74 69 66 66 64 69 74 76 76 72 70 68 70 71 62 76 85 90 94 99 97 86 94 82 89
88 85 87 84 80 82 81 82 82 85 88 85 89 94 97 98 100 93 89 74 76 67 67 64 67 71 76 79 77 70 64 66 67 65 66 79 87 94 98 98 98 97 93 91 76
100 96 99 90 94 89 86 86 88 91 90 90 92 96 101 101 106 103 86 73 72 65 63 66 69 75 77 78 69 64 58 62 60 63 71 81 89 96 99 100 101 106 92 85 64
102 103 103 106 103 97 99 93 92 91 96 95 97 100 104 103 102 100 85 74 71 66 64 69 73 73 70 68 64 55 53 51 58 61 72 81 88 98 101 102 104 104 99 93 81
113 113 110 108 109 103 101 98 98 95 96 101 98 101 103 105 103 102 82 77 70 64 69 72 72 68 67 62 51 45 47 51 53 58 72 81 91 96 100 105 106 106 107 109 101
112 116 116 116 116 110 104 102 102 101 104 101 102 103 106 101 99 94 87 76 64 65 69 71 65 64 56 49 41 46 48 53 55 62 69 77 89 96 103 110 109 102 107 110 98
88 97 98 99 108 117 108 109 110 106 103 102 104 104 104 98 87 86 83 73 63 63 69 65 60 53 42 38 42 47 52 56 55 65 77 84 89 98 107 115 105 101 103 106 91
77 80 85 87 87 94 94 90 89 93 97 101 100 101 94 89 83 81 74 67 64 64 64 60 53 42 36 37 42 48 53 56 59 66 79 81 91 99 110 118 112 101 100 100 111
69 69 75 76 71 84 83 82 80 82 85 88 86 88 84 81 79 78 70 66 64 65 61 53 42 33 32 33 38 48 54 56 56 62 77 81 88 101 110 122 119 105 103 100 98
63 61 68 67 61 76 77 74 74 73 74 75 78 79 77 76 75 69 65 64 65 63 59 45 34 30 28 27 34 45 52 56 56 61 74 82 90 98 109 121 120 116 107 107 101
58 55 56 57 57 65 67 61 66 65 70 71 70 73 74 71 70 63 61 62 65 57 56 39 31 27 23 29 37 47 56 56 56 59 76 79 88 97 107 120 118 116 111 107 110
51 50 49 50 47 58 55 53 55 58 58 59 65 69 66 63 61 58 57 59 61 55 49 33 28 24 23 32 39 46 53 56 59 58 62 76 83 91 101 117 115 115 111 108 107
47 48 44 48 50 51 42 43 45 45 46 50 58 60 58 56 52 52 54 56 54 50 39 29 24 21 25 32 39 47 55 59 56 62 66 80 84 87 98 115 120 115 108 107 107
43 44 39 42 51 42 36 34 38 36 38 47 54 51 52 47 47 50 51 53 50 44 31 26 21 18 26 32 38 47 54 54 54 62 70 65 72 81 89 104 110 114 110 109 108
49 43 39 49 44 35 29 29 27 28 35 44 46 44 45 42 45 48 50 51 45 36 27 22 17 14 24 33 38 45 48 53 56 61 65 68 71 79 93 102 116 120 111 106 107
54 45 42 48 40 31 27 24 18 28 36 41 37 41 37 40 43 47 48 46 40 28 20 16 11 12 21 32 38 44 47 50 58 65 68 67 70 82 92 99 115 119 121 114 106
54 45 50 45 38 32 26 18 19 28 36 35 31 35 32 36 40 42 43 39 32 22 15 11 6 6 17 25 35 38 42 50 56 60 64 66 70 78 87 95 100 107 117 120 110
49 53 50 46 39 34 24 18 20 28 31 28 29 27 29 35 39 38 40 35 28 18 14 9 3 4 15 23 32 39 43 50 53 53 54 59 60 65 79 84 90 100 113 110 117
51 52 51 49 42 35 25 20 18 23 29 23 21 25 32 38 40 39 40 33 27 19 14 11 5 8 14 20 28 40 45 50 52 54 57 59 59 64 68 74 79 88 101 111 113
47 54 54 51 45 36 26 19 13 17 19 24 18 27 32 38 39 36 36 31 26 24 18 16 10 9 12 13 21 27 35 45 49 54 55 56 57 62 65 69 72 75 83 93 105
51 53 54 51 45 35 27 18 9 11 15 19 18 25 33 37 36 36 34 35 33 29 25 21 16 11 13 18 16 20 28 35 43 42 40 49 53 55 58 61 62 64 66 76 91
55 51 57 54 45 35 26 16 4 6 13 19 22 23 33 37 35 34 34 38 37 35 31 27 19 15 12 13 18 21 21 25 30 32 32 36 41 47 52 55 58 60 63 66 77
55 55 59 53 46 37 26 15 6 8 14 20 25 26 32 38 37 37 39 40 40 39 37 31 28 20 14 10 7 17 22 27 28 28 29 32 34 35 42 47 51 55 59 63 68
59 63 57 52 43 35 25 16 11 11 15 20 26 28 35 40 39 38 42 47 45 47 43 36 32 27 21 13 9 5 11 17 19 21 24 26 29 33 38 41 44 49 53 58 63
66 64 59 49 42 33 24 19 15 16 17 18 23 31 37 41 43 44 48 47 52 52 51 45 41 37 31 25 17 8 5 9 12 16 19 21 26 33 37 41 44 48 51 56 61
66 62 54 48 41 32 24 21 18 19 19 18 22 30 37 44 48 50 53 53 53 54 56 55 50 44 37 33 28 22 15 6 4 12 17 21 27 30 33 38 43 47 50 54 57
64 58 52 46 38 29 24 22 21 21 18 15 21 26 35 43 47 50 53 54 52 53 58 57 54 50 44 41 38 31 23 17 12 9 8 14 20 29 35 39 43 48 53 57 61

GFSSW_250_spd_093.txt.gz
Wind_Speed
95 90 87 88 86 90 86 90 90 82 85 86 83 83 86 90 92 90 89 86 77 75 69 73 66 68 66 66 65 66 68 62 64 68 67 78 85 86 88 84 82 80 88 88 69
108 105 99 94 94 94 97 97 96 94 90 95 91 89 89 92 92 95 89 89 78 68 71 69 65 69 68 66 68 67 63 61 68 70 72 83 80 83 82 85 88 80 92 98 87
104 109 110 109 107 103 100 104 106 103 98 99 92 96 95 97 100 96 91 86 79 65 65 68 70 66 67 67 68 69 66 67 69 73 78 81 84 86 78 82 82 84 95 94 82
90 94 102 110 114 111 114 106 104 108 106 103 102 100 99 101 101 96 93 85 72 67 64 71 70 67 66 64 66 68 71 69 73 74 75 80 86 86 84 84 87 90 99 100 88
72 80 84 95 100 103 105 106 105 106 105 102 101 100 100 105 104 97 89 81 70 70 66 70 69 66 64 65 66 69 70 71 72 74 76 83 86 87 80 86 91 94 99 99 114
65 73 74 79 81 87 94 94 89 101 99 97 98 99 96 96 93 89 77 69 70 69 62 68 69 62 66 69 69 70 69 70 68 63 65 71 81 81 82 85 89 96 102 102 110
65 67 63 71 73 78 82 82 83 88 88 89 88 83 84 89 81 79 70 66 66 65 64 63 62 67 69 71 71 68 64 58 52 52 54 62 70 72 85 89 93 101 116 108 106
66 63 66 67 66 73 74 76 73 75 75 73 68 70 74 72 71 66 65 67 66 65 59 57 61 66 68 68 63 57 49 44 45 48 52 56 62 69 76 85 93 98 99 102 100
64 62 63 63 63 63 67 64 68 66 62 59 60 66 65 66 65 60 62 65 67 62 58 60 61 64 60 55 49 42 40 41 44 46 51 54 62 72 77 88 96 91 98 93 89
62 61 59 63 61 58 61 55 59 56 53 54 60 59 59 61 58 56 57 60 63 58 60 60 63 58 51 43 41 38 35 40 44 49 52 56 61 74 86 92 97 103 105 106 105
56 58 58 59 57 55 51 49 53 46 46 54 54 52 56 48 52 52 51 57 55 57 61 60 58 52 42 38 35 32 36 41 47 51 60 65 72 75 90 96 100 107 104 114 107
54 54 55 56 52 50 42 46 42 39 41 45 45 46 43 44 43 44 50 50 53 58 62 57 52 43 38 31 28 28 35 41 47 53 57 62 73 83 91 101 105 107 110 123 108
52 47 48 52 49 43 40 38 36 35 33 37 40 38 34 35 38 43 45 48 53 55 56 51 43 36 32 25 23 28 36 42 50 54 61 65 69 84 93 107 111 120 111 127 128
45 39 42 50 44 42 40 35 33 32 31 32 31 29 26 31 38 41 42 49 49 51 47 41 33 27 24 18 22 29 34 39 46 53 62 62 65 84 94 110 117 118 123 100 118
36 32 40 48 43 41 39 34 30 28 25 24 23 18 23 33 35 39 43 44 45 46 39 31 24 21 16 14 20 26 28 35 41 50 62 61 64 78 94 111 121 120 120 102 106
25 32 44 46 44 41 38 30 25 26 19 20 11 17 25 30 33 37 39 39 41 38 30 22 17 14 9 11 19 25 29 34 41 52 54 57 61 63 93 107 124 122 118 113 116
26 36 42 45 46 43 35 29 26 18 16 5 13 19 23 28 30 32 32 36 33 28 20 14 10 4 7 12 18 23 28 33 40 46 50 50 55 63 84 99 117 110 122 125 119
32 36 47 45 46 41 37 31 21 16 7 9 15 16 21 25 26 27 31 29 25 20 13 8 3 2 6 11 18 27 29 32 39 45 47 44 48 41 60 85 105 120 116 122 125
32 42 47 44 47 44 39 29 21 12 10 13 13 13 18 19 24 28 28 25 19 14 9 6 6 4 9 12 16 19 22 30 39 42 43 45 45 45 53 69 93 122 114 118 120
42 40 50 48 50 46 35 27 17 16 14 12 11 15 16 21 26 24 23 19 16 14 12 14 10 11 12 15 17 19 23 28 35 36 39 42 43 46 51 64 85 100 125 120 121
45 48 48 54 51 44 33 24 21 18 16 16 18 19 21 25 26 23 22 20 20 20 18 20 17 13 13 13 13 18 20 27 33 38 38 39 42 47 50 53 69 87 106 124 122
48 55 57 56 50 41 32 27 20 19 20 23 25 25 27 27 29 24 25 24 27 26 26 24 25 21 15 13 15 13 12 17 19 24 31 35 39 43 43 48 56 69 85 106 124
57 61 59 55 49 40 32 28 22 22 24 27 31 32 30 31 30 29 33 37 37 32 32 30 28 26 24 19 15 14 14 13 16 9 13 15 24 34 39 44 49 55 63 73 88
54 62 60 54 46 38 33 26 25 28 29 30 33 38 37 37 35 37 40 44 46 43 41 37 34 32 28 25 21 17 14 9 10 9 9 10 12 18 25 35 39 44 46 55 65
58 61 59 55 45 38 33 27 28 31 33 34 36 41 45 47 44 43 49 51 51 53 50 45 42 40 36 31 26 24 19 13 10 9 9 12 17 19 22 28 34 37 40 43 50
65 58 58 51 43 39 34 28 31 32 33 38 41 46 48 50 50 50 56 60 60 61 59 54 49 50 48 40 35 31 27 22 16 10 2 5 11 17 22 26 30 34 39 45 49
64 59 52 47 43 38 34 30 32 34 34 38 41 45 47 49 49 54 58 59 60 60 60 58 55 51 54 54 47 41 36 30 25 20 15 8 1 6 14 23 29 34 38 43 48

GFSSW_250_spd_096.txt.gz
Wind_Speed
92 88 96 100 103 100 104 106 108 103 102 99 96 84 82 79 79 78 81 80 82 79 78 80 74 67 61 63 65 60 65 55 54 55 61 72 73 72 78 69 62 59 63 66 71
71 78 88 90 93 96 101 105 105 103 103 101 97 95 88 87 85 86 85 89 85 83 85 79 74 67 65 70 59 63 68 62 61 59 67 69 73 76 76 71 54 60 63 70 71
64 67 75 83 89 90 91 92 92 98 99 96 102 97 94 92 94 92 89 87 87 88 83 78 70 64 65 61 66 63 63 73 66 64 64 68 71 75 75 73 69 59 71 71 71
66 66 68 74 80 84 85 89 89 92 94 94 92 96 94 95 95 95 93 91 91 86 80 74 59 56 58 62 64 63 72 75 67 66 62 65 71 71 74 74 75 69 69 76 77
75 72 67 70 77 79 82 85 82 87 83 85 89 91 90 90 91 89 88 87 86 80 75 64 60 57 60 63 67 69 71 70 67 64 63 64 67 64 66 80 78 75 76 77 85
80 76 67 67 74 78 78 79 78 79 80 81 77 80 87 86 84 80 80 80 78 77 69 56 56 54 60 62 67 70 67 67 66 65 64 63 67 59 68 74 74 78 84 89 96
76 75 67 63 72 75 74 75 75 70 73 75 74 75 70 70 72 76 73 73 71 64 57 54 51 53 60 64 66 65 64 64 67 68 66 65 63 63 73 76 80 83 92 101 104
69 67 65 61 66 71 69 71 72 71 68 68 69 70 63 64 64 64 64 63 60 54 53 54 51 55 59 60 62 63 63 65 66 66 68 64 64 71 74 77 85 90 96 102 110
75 60 62 61 62 62 65 67 66 63 61 63 63 60 59 59 58 55 55 55 51 52 51 48 53 55 52 58 62 62 63 62 59 57 57 56 56 61 70 77 83 89 94 108 114
74 62 56 61 58 59 59 59 57 55 54 55 56 54 54 54 52 50 48 45 48 47 45 49 52 49 52 57 58 59 58 54 48 42 43 46 50 56 62 69 77 90 100 110 110
67 62 55 57 58 57 56 51 48 48 53 49 50 48 47 47 45 39 37 39 39 42 48 48 46 50 54 56 55 54 48 41 37 35 37 36 40 49 59 64 78 92 107 108 109
60 53 46 47 53 53 51 46 40 46 46 45 45 44 41 39 28 31 30 32 37 43 46 43 46 53 55 54 49 43 38 34 33 33 35 38 40 46 59 73 88 95 102 108 106
48 43 36 39 43 45 45 38 42 43 42 41 38 35 34 22 24 22 26 30 34 38 42 46 53 53 50 43 39 34 31 30 30 32 36 39 42 47 60 74 88 98 108 107 107
36 32 26 33 40 39 36 40 43 39 38 34 27 23 16 18 15 19 23 27 29 35 42 49 52 47 39 33 29 27 26 26 27 31 37 40 44 53 66 72 89 103 108 114 111
25 19 24 33 36 33 39 42 38 35 30 24 15 9 12 9 11 14 17 23 29 36 44 45 40 35 30 24 21 19 22 25 26 31 35 42 50 61 73 84 94 110 116 118 118
12 19 24 27 30 36 37 38 35 30 21 9 8 7 5 6 7 13 19 24 31 37 39 35 30 24 21 15 14 15 18 19 22 28 35 41 48 67 79 89 98 118 126 122 121
12 17 21 26 30 36 37 35 32 23 16 13 8 3 2 5 9 14 21 25 28 33 29 24 21 18 10 8 12 14 14 17 20 28 30 37 46 60 79 91 109 118 112 127 125
8 15 24 31 39 38 36 35 28 27 20 14 10 8 7 7 10 16 17 20 25 24 18 15 10 4 8 13 16 18 18 18 22 21 24 28 41 49 75 91 106 116 114 123 128
16 23 31 40 36 37 39 35 35 29 21 16 13 10 9 8 10 12 15 18 19 15 9 5 2 9 15 15 16 18 20 20 21 22 23 25 31 41 75 89 100 115 119 111 113
22 33 36 39 44 43 43 43 34 27 21 18 17 14 12 11 12 13 13 13 12 7 6 6 9 12 17 18 18 18 17 18 18 19 21 24 27 34 46 81 97 110 117 109 116
39 37 43 45 48 52 47 40 34 29 27 23 22 20 19 17 16 11 8 9 9 10 12 14 15 16 19 22 21 19 20 16 18 21 21 23 23 28 36 77 97 105 118 111 115
36 46 51 51 57 52 46 43 39 36 32 27 25 24 19 20 20 17 18 17 18 19 20 19 22 23 23 23 22 20 19 17 16 15 17 22 27 30 36 48 88 103 113 115 111
42 51 52 58 56 52 51 51 45 40 36 30 31 27 25 27 30 28 28 26 27 27 25 26 27 29 25 24 26 24 20 16 12 12 12 16 20 26 37 42 61 100 108 121 121
51 55 59 57 56 57 56 54 49 43 39 37 38 35 34 41 42 41 38 40 37 36 33 32 31 31 29 28 26 24 23 18 15 12 8 6 6 16 23 28 41 60 101 114 129
51 52 56 56 60 58 59 54 51 47 46 42 46 46 44 47 52 54 53 53 49 46 43 40 37 35 36 31 28 26 23 22 21 18 17 15 13 15 14 15 23 38 50 95 121
54 51 54 57 58 59 57 53 50 49 49 48 47 49 52 56 59 60 61 61 59 57 55 52 50 47 43 37 31 29 28 23 20 17 14 14 15 15 15 18 22 26 32 45 70
49 50 51 53 56 56 54 52 49 50 49 50 49 52 54 55 58 60 62 64 65 65 64 60 55 52 48 48 42 39 36 32 27 21 15 11 8 10 10 13 19 22 29 36 43

GFSSW_250_spd_099.txt.gz
Wind_Speed
62 61 64 69 75 84 87 92 93 97 100 98 99 98 98 98 96 91 95 89 83 82 83 80 78 76 74 74 72 71 65 56 58 62 63 62 57 58 58 68 73 77 73 63 57
79 71 67 68 70 75 80 84 89 93 92 92 90 94 94 97 96 93 92 89 86 85 84 83 82 80 78 77 73 74 67 62 65 66 65 69 66 65 63 74 75 77 75 66 61
85 77 73 71 73 74 77 85 86 88 88 89 85 85 85 89 91 94 93 92 90 88 88 88 85 84 84 79 78 74 66 69 64 70 73 68 71 70 63 76 73 75 77 65 57
88 82 77 76 75 77 77 79 83 86 86 84 85 85 82 83 86 89 91 90 90 89 88 89 87 85 85 81 78 72 68 69 68 72 72 70 66 70 71 74 76 78 77 67 58
89 85 84 82 80 77 76 77 79 82 84 80 81 78 76 76 80 79 84 85 87 87 86 87 85 83 82 82 77 74 73 72 72 71 73 76 66 65 72 73 75 79 75 67 61
90 87 86 86 82 79 73 69 74 80 82 79 77 76 70 72 74 71 76 78 79 83 84 85 82 79 79 78 76 72 73 74 73 69 70 72 65 65 68 72 70 76 75 70 63
95 89 84 81 77 75 71 64 67 73 75 77 72 70 65 63 68 72 73 70 72 76 77 76 76 73 71 67 69 70 68 72 75 70 64 70 64 62 65 66 67 72 77 76 69
98 91 83 75 70 73 68 62 64 66 67 68 64 65 61 61 63 67 65 63 63 62 64 65 68 65 60 58 63 65 69 71 73 71 68 65 64 63 63 61 64 73 76 75 66
86 84 82 70 67 69 66 61 62 61 60 61 58 60 56 58 61 53 52 53 56 55 58 57 56 57 54 55 58 63 68 68 68 65 64 62 63 61 63 66 70 75 79 80 76
73 70 73 64 61 63 61 58 59 56 56 55 55 54 53 54 51 51 48 49 49 49 47 49 49 51 51 53 58 60 61 61 63 65 67 67 66 68 69 67 71 80 81 82 82
59 58 58 55 54 55 56 53 55 53 52 51 49 49 50 47 46 42 41 41 39 41 45 44 47 49 47 51 53 54 58 61 64 64 64 64 61 62 67 67 71 80 82 81 91
49 46 46 45 46 46 45 46 52 47 46 47 44 47 43 41 36 31 31 33 38 39 39 42 43 44 46 49 53 57 57 57 59 58 53 50 48 48 51 57 70 80 82 86 103
40 38 36 37 36 36 39 43 42 39 40 39 41 38 33 28 24 24 29 31 32 34 36 40 38 43 47 52 53 52 52 50 49 44 41 39 39 40 41 52 69 78 82 92 104
30 25 26 29 30 33 36 33 34 34 36 34 31 26 22 19 22 24 25 26 28 30 35 36 39 43 46 48 49 44 41 40 36 35 34 34 33 36 40 50 61 71 80 99 112
19 17 19 22 26 27 29 29 29 31 27 22 21 21 17 19 20 20 20 22 25 28 34 36 37 40 45 43 39 33 31 30 29 30 28 28 29 35 41 45 55 69 95 115 119
9 8 12 15 19 22 25 28 26 24 23 20 19 18 19 19 18 16 17 21 24 26 30 32 35 38 36 35 30 25 23 21 22 21 23 25 29 35 42 52 60 72 98 114 117
3 7 12 15 21 24 24 29 31 27 26 24 20 20 19 16 13 14 13 16 20 26 28 25 27 28 26 24 21 16 18 19 19 19 21 24 29 33 42 51 66 87 110 107 119
16 18 19 22 27 36 38 37 36 33 29 26 23 19 16 13 7 6 11 17 21 21 19 19 18 19 19 19 17 18 18 18 18 17 20 23 31 38 47 61 72 108 118 122 122
37 35 38 44 44 40 43 42 39 37 31 26 21 16 12 7 4 6 10 14 15 14 12 12 13 14 14 15 14 16 18 18 21 18 17 22 28 41 52 60 80 119 124 123 128
52 47 43 46 51 48 46 44 41 35 29 24 18 13 10 6 4 3 5 7 8 7 8 5 6 11 14 15 16 19 23 23 19 19 16 16 20 33 48 68 95 110 124 125 119
51 53 54 53 51 50 47 42 37 32 29 24 20 16 13 9 6 5 4 2 2 1 2 5 10 14 20 21 22 22 22 23 20 20 17 15 18 24 48 76 104 114 114 107 115
53 54 53 52 51 48 45 40 37 33 29 25 22 19 17 16 12 10 7 9 10 10 10 11 14 19 21 25 25 26 25 25 21 20 22 16 18 25 36 78 108 110 115 111 116
53 55 54 54 54 50 46 43 39 36 33 30 26 25 23 20 18 16 18 17 18 20 18 18 20 24 25 26 27 29 29 29 26 25 25 25 22 27 23 68 107 108 109 113 108
53 56 56 57 56 54 51 47 42 39 37 36 36 31 29 28 27 28 27 27 24 27 25 22 26 27 28 28 29 33 32 29 24 24 22 22 26 29 30 34 79 101 114 113 112
49 55 56 59 57 58 55 52 49 46 45 45 41 38 40 40 40 42 41 37 36 35 32 30 31 30 27 27 27 30 32 31 29 27 26 26 26 27 29 39 58 91 110 112 111
49 54 55 58 60 58 57 55 53 52 51 49 48 47 50 49 51 56 52 49 47 45 45 44 41 39 37 31 25 24 24 25 26 26 26 27 30 30 30 35 43 65 100 105 121
48 51 53 55 56 57 57 56 54 53 52 54 56 56 58 58 60 62 60 60 58 57 56 54 51 49 48 41 34 29 25 20 17 15 14 12 9 11 15 24 35 46 56 88 114

GFSSW_250_spd_102.txt.gz
Wind_Speed
64 67 66 67 72 73 70 73 76 82 88 92 92 96 98 103 100 97 99 98 97 95 90 88 88 82 85 84 85 82 76 69 73 76 73 72 65 60 53 54 55 61 61 61 63
75 74 69 73 77 81 76 74 72 79 85 88 88 88 89 93 95 95 96 101 97 99 98 95 89 87 86 88 85 86 80 73 78 77 72 73 72 68 61 56 58 64 66 74 68
84 84 83 80 81 86 83 76 76 76 80 87 89 89 83 83 83 90 94 97 100 100 100 99 94 93 90 90 91 87 80 81 79 78 75 72 73 69 68 60 67 74 74 82 76
90 88 90 87 89 90 89 84 77 77 79 84 89 88 85 81 77 83 89 92 95 97 99 100 98 99 95 93 90 89 83 85 83 80 78 76 75 73 71 64 66 79 75 85 81
95 92 90 94 95 97 96 91 81 79 81 78 82 82 88 86 76 77 80 85 87 89 92 96 99 98 97 96 91 86 87 86 88 87 85 83 78 73 72 66 72 77 80 85 81
101 99 97 95 99 104 100 94 86 78 80 76 77 76 79 77 75 70 68 76 81 85 90 91 94 93 93 91 92 90 86 84 87 88 87 84 82 79 71 74 76 80 81 82 74
103 100 103 102 101 98 95 91 82 76 75 71 70 69 74 75 70 66 65 69 75 79 83 86 81 84 85 87 87 85 85 85 85 86 87 87 79 79 77 76 70 75 77 80 72
100 93 93 92 87 85 82 79 73 71 70 64 64 65 66 65 62 61 60 61 70 70 70 72 71 73 74 80 81 83 82 84 84 84 84 82 77 75 69 68 68 74 75 74 74
78 72 71 73 72 69 68 66 65 63 61 59 61 60 58 57 55 55 55 56 60 60 62 62 65 66 67 70 76 78 81 79 78 78 79 76 70 67 64 64 66 70 74 73 79
63 61 58 63 62 59 57 57 55 53 51 52 54 54 50 48 47 48 49 49 52 49 45 51 58 60 60 60 64 66 68 71 73 73 69 68 62 64 66 65 68 69 73 74 77
56 47 43 51 53 50 48 47 45 43 45 48 48 45 41 41 43 40 40 42 40 39 43 46 48 50 53 53 57 59 61 62 65 65 64 65 61 64 63 61 61 64 62 64 74
42 39 34 36 39 40 39 39 33 36 39 39 40 36 32 35 34 33 33 32 32 33 36 39 46 46 47 49 51 52 54 56 60 60 60 61 61 59 60 57 57 59 60 71 76
29 25 24 28 32 31 32 33 27 30 30 30 28 25 26 28 27 25 25 27 29 30 34 40 39 44 43 41 42 47 50 55 57 57 58 59 61 63 62 61 62 62 67 75 82
15 12 14 16 18 19 25 25 19 23 23 20 20 23 24 24 24 23 24 27 26 28 31 34 36 37 34 37 42 47 52 53 55 57 58 58 56 53 52 54 56 60 67 80 86
9 4 2 4 8 11 12 16 22 22 20 23 24 23 22 21 21 21 22 21 24 28 29 28 30 33 36 41 45 47 49 49 48 47 45 41 38 39 40 45 49 53 66 74 82
13 10 8 9 12 16 20 23 27 28 27 27 24 22 22 20 21 20 20 22 22 22 25 27 33 35 38 39 39 39 37 36 34 33 29 28 28 30 33 37 42 50 62 76 85
20 22 18 20 23 26 29 29 33 33 30 27 25 24 24 23 20 18 18 18 20 23 29 33 31 30 31 31 28 26 26 27 28 26 21 23 26 28 30 34 39 55 73 79 84
32 33 33 34 33 34 35 38 39 37 33 31 30 28 25 20 17 16 16 20 22 24 22 23 24 24 20 19 18 18 20 19 17 17 21 25 27 28 33 40 52 73 90 85 77
42 44 44 43 43 41 42 41 40 40 37 33 29 25 21 18 17 18 16 16 16 16 17 17 13 11 12 12 10 10 11 13 16 17 22 21 25 31 38 49 66 81 93 88 79
53 52 51 49 48 48 46 44 40 35 32 28 24 21 21 18 13 10 9 9 8 5 6 5 4 6 5 6 11 17 20 24 21 21 20 24 29 35 45 55 71 89 97 86 82
55 53 51 48 45 43 40 36 33 31 29 26 22 17 13 11 7 5 4 2 2 1 1 1 4 5 11 20 24 28 28 29 25 24 22 20 26 32 52 66 82 96 99 81 84
46 46 44 43 41 40 37 35 32 30 27 24 21 18 17 12 9 7 8 7 6 6 7 10 11 15 20 29 30 31 36 34 33 28 24 21 21 29 49 72 93 92 101 84 82
45 44 42 41 39 37 36 35 33 30 28 24 22 21 20 17 13 12 11 12 13 13 14 18 17 22 26 30 35 37 38 36 32 33 28 23 19 16 44 72 100 95 94 88 89
42 45 45 45 42 40 38 36 35 30 28 29 28 26 24 19 16 18 18 21 22 20 19 22 21 25 28 30 37 38 39 36 33 29 27 22 20 18 29 66 100 97 94 101 102
42 44 46 47 46 42 42 41 36 34 41 36 30 28 25 24 26 26 28 30 28 27 26 26 27 25 25 29 33 38 38 38 36 33 30 29 26 28 28 56 84 92 105 103 91
39 45 46 50 51 50 51 51 49 48 46 44 41 36 37 38 37 37 37 38 37 35 30 33 34 32 26 22 21 25 29 34 34 35 33 33 36 38 41 61 81 99 103 109 107
37 39 41 46 50 52 53 54 54 55 53 50 50 50 49 50 51 52 51 49 46 43 41 39 38 38 34 31 26 23 20 16 15 12 13 18 16 20 28 39 73 95 101 86 109

GFSSW_250_spd_105.txt.gz
Wind_Speed
73 73 76 75 73 72 73 72 72 73 74 79 77 83 90 91 95 100 105 106 104 104 102 99 92 88 88 89 86 80 76 78 81 82 78 79 73 74 69 63 63 59 54 48 49
80 81 80 80 82 82 80 77 76 75 78 76 78 81 82 84 89 93 94 95 96 100 100 103 99 97 93 92 93 89 80 78 83 81 82 84 80 77 75 72 70 69 63 58 49
93 90 85 87 90 88 89 84 83 81 80 80 82 81 79 85 88 88 88 88 88 91 94 99 97 97 99 97 98 93 85 86 83 85 84 81 79 78 78 74 74 76 75 67 58
101 101 98 96 96 95 92 89 88 86 82 83 84 82 80 80 83 82 83 83 83 83 87 92 97 97 100 104 102 97 94 89 87 89 87 82 80 79 73 74 79 80 73 76 65
104 105 104 104 102 100 98 95 93 90 88 86 85 84 82 80 80 83 86 82 80 80 82 87 93 98 99 104 104 99 95 93 93 90 90 88 82 81 82 82 82 79 79 77 74
104 104 105 106 104 104 100 98 97 94 91 89 87 84 80 79 79 83 78 76 78 79 79 81 86 92 98 101 102 101 95 91 93 92 91 87 87 84 85 90 86 86 82 75 78
100 100 101 100 99 98 98 97 95 95 90 89 87 81 75 75 80 75 78 75 72 72 77 80 81 86 93 95 96 97 97 93 92 93 93 91 89 91 89 88 86 82 84 80 78
81 80 79 79 80 82 84 86 91 92 88 84 85 74 68 71 68 72 69 67 66 70 72 74 75 81 85 86 89 89 90 90 91 91 92 92 98 90 86 84 86 89 86 83 79
63 56 48 52 58 64 66 72 74 75 75 76 70 63 57 61 62 63 61 61 61 62 64 65 69 73 76 78 79 79 82 84 84 87 91 90 96 89 87 84 83 80 77 75 75
48 43 45 41 43 52 53 59 57 56 57 58 58 53 48 52 55 52 54 55 52 52 57 61 66 67 68 70 69 71 74 77 80 80 83 86 87 86 82 78 74 70 70 75 75
34 32 28 24 25 36 45 51 51 50 51 52 48 42 45 44 46 48 44 44 46 47 52 58 59 60 59 60 61 62 66 70 73 79 80 77 73 72 73 70 68 64 67 70 70
23 17 16 15 21 23 29 36 39 37 36 34 34 36 36 36 37 35 37 38 39 43 48 51 51 47 46 50 54 58 64 70 74 71 70 68 65 65 64 61 63 60 59 61 62
19 12 6 6 9 11 16 20 23 22 23 26 27 30 30 30 28 29 29 33 36 39 41 39 37 40 44 49 54 60 62 64 65 64 62 62 59 55 54 55 55 56 54 56 57
19 13 9 6 5 6 9 13 14 18 22 24 24 24 26 25 27 28 29 30 31 32 33 34 36 40 44 48 50 49 50 52 53 52 53 52 53 53 54 53 52 54 52 53 58
24 19 16 14 15 17 15 16 20 22 23 25 26 26 27 26 25 27 28 29 28 27 31 33 34 36 38 37 39 41 41 43 45 44 47 49 53 54 52 50 49 51 51 52 56
35 28 22 20 21 19 20 23 23 27 29 29 27 27 25 24 24 25 25 27 29 28 27 28 28 29 27 28 30 34 37 39 42 46 49 51 54 53 52 49 43 43 45 53 59
44 41 36 30 25 25 25 26 30 32 31 30 28 27 24 24 24 24 24 26 26 22 21 22 23 21 22 25 30 33 36 38 41 44 43 41 40 36 33 30 30 33 40 46 55
53 48 41 36 37 35 34 34 34 33 32 31 29 27 25 24 23 23 22 20 19 16 16 15 16 19 24 29 32 32 29 28 28 28 26 26 25 23 22 25 32 32 41 47 57
58 53 53 48 46 42 39 39 36 35 34 31 28 26 24 22 20 17 14 12 10 9 12 18 20 20 21 20 19 19 15 15 18 17 20 18 21 25 28 34 38 52 56 61 62
56 52 50 48 45 43 40 40 36 33 30 26 23 19 16 12 10 7 5 6 8 10 12 11 12 13 12 14 15 12 14 18 18 22 25 31 33 34 43 59 69 67 65 60 67
53 51 48 44 40 37 32 32 27 25 22 19 16 12 9 6 5 7 6 6 8 11 11 10 11 13 16 16 15 19 21 25 25 24 28 37 43 54 75 77 76 70 70 69 64
56 55 52 48 42 38 35 33 29 26 24 21 19 18 16 17 16 12 12 12 13 13 13 13 15 18 19 21 23 23 25 30 24 28 33 35 43 64 82 83 79 72 71 74 71
58 61 58 53 48 43 39 35 33 30 28 27 27 25 24 24 22 21 19 17 15 14 17 19 18 21 22 27 29 30 29 32 34 25 23 32 39 62 77 82 82 76 78 73 68
60 60 58 54 51 46 40 38 36 31 32 32 33 31 30 28 26 25 24 22 18 18 20 20 21 20 22 25 30 32 34 32 33 33 30 24 33 59 80 85 79 75 77 74 76
57 56 54 53 52 48 48 44 43 44 42 39 38 34 31 29 29 29 29 27 24 23 24 21 22 20 20 24 28 32 34 34 36 34 29 32 33 53 81 86 80 76 73 72 69
54 53 53 53 55 56 54 52 50 49 47 44 43 39 36 35 35 34 35 34 31 26 26 26 26 19 17 20 22 21 29 32 33 35 34 34 36 44 65 87 85 84 79 76 75
58 51 49 51 53 55 56 58 57 56 53 54 52 50 49 47 45 44 42 40 36 32 30 31 33 30 25 24 23 21 13 11 16 14 18 26 22 41 56 69 81 81 80 81 83

GFSSW_250_spd_108.txt.gz
Wind_Speed
88 89 88 87 86 83 84 81 79 77 76 74 71 79 87 88 88 91 92 101 106 108 106 106 104 101 100 96 92 89 81 78 78 86 78 80 77 73 72 71 71 71 64 57 49
96 95 95 92 91 91 88 85 83 82 80 79 77 74 77 82 89 93 91 92 95 97 105 106 109 108 105 103 102 98 89 84 85 83 84 83 78 78 74 71 76 75 72 70 61
100 99 100 99 96 95 94 90 88 88 85 85 84 79 79 79 84 87 92 94 93 94 96 95 99 105 108 106 106 101 96 95 89 85 84 83 82 82 78 74 79 80 77 76 72
100 99 98 101 101 99 98 94 92 91 90 88 86 86 83 82 80 85 86 88 90 92 91 92 91 92 99 104 104 102 103 99 96 93 91 86 82 80 76 73 80 85 80 75 74
93 94 97 97 98 100 102 101 98 95 93 91 90 89 88 84 84 85 88 88 86 88 89 92 89 88 92 96 98 102 105 101 101 97 93 92 87 85 79 80 83 83 85 79 77
69 78 82 91 94 97 98 100 101 99 96 95 93 94 89 90 89 89 87 89 85 84 81 85 89 88 91 92 94 98 102 102 99 98 96 96 93 90 93 91 87 87 84 82 77
50 54 60 66 74 81 92 93 94 93 94 96 95 92 91 91 89 90 89 88 84 80 80 82 85 86 84 88 90 94 99 100 96 96 95 94 94 94 92 88 87 90 89 87 81
43 39 45 49 55 59 68 77 81 83 86 94 89 91 90 87 87 85 83 79 75 76 76 77 82 80 83 84 85 87 89 92 94 95 93 88 96 92 91 87 89 91 92 94 89
36 33 29 29 36 43 49 53 60 69 81 81 82 89 85 83 79 71 72 70 70 69 72 75 71 73 76 79 79 80 80 84 87 92 89 87 96 88 86 88 92 96 91 90 90
30 24 21 18 19 30 37 47 58 63 69 76 77 77 71 71 68 61 60 57 57 63 67 64 65 69 71 71 72 72 73 78 82 81 83 86 94 90 87 93 92 92 93 89 83
25 20 13 10 14 23 36 44 41 44 55 63 63 64 61 58 52 44 45 49 53 57 56 56 58 57 60 63 61 66 69 74 72 72 77 80 84 85 81 84 88 87 83 80 78
24 16 8 4 5 14 24 28 28 34 41 45 48 47 43 39 35 35 38 44 45 46 49 48 46 50 51 53 54 58 63 64 66 67 69 70 70 72 72 72 72 71 68 68 70
33 24 15 10 4 5 10 13 18 24 27 28 32 34 33 32 29 30 34 36 37 38 39 37 39 39 41 44 50 54 59 60 60 59 61 60 63 63 63 61 60 59 60 60 65
38 30 24 20 19 16 15 16 18 21 22 23 26 26 27 26 26 28 30 29 30 30 30 28 30 32 39 44 47 49 52 53 55 56 57 55 52 51 52 54 54 51 50 52 56
47 44 35 29 27 26 23 20 19 19 20 20 21 22 22 23 25 25 25 25 25 24 24 28 33 38 40 44 44 46 47 48 49 50 51 48 48 45 46 46 47 46 45 45 48
55 52 46 39 35 31 28 25 22 20 19 20 21 22 21 22 22 22 22 23 26 28 31 34 34 35 37 37 37 38 38 40 40 41 42 42 40 42 42 42 43 43 42 43 45
63 55 53 50 46 39 34 31 27 24 22 21 21 20 20 21 22 24 25 27 29 28 28 29 28 28 27 27 27 28 31 32 33 34 35 36 38 40 41 40 40 41 41 43 46
66 64 57 52 48 43 40 37 36 31 30 27 25 24 24 23 23 22 21 21 18 20 21 20 20 20 19 19 21 23 25 26 28 31 34 35 35 35 35 33 32 36 39 44 49
74 67 60 56 51 44 38 33 33 27 25 23 20 17 16 14 15 14 15 15 15 16 15 16 14 16 17 18 19 21 22 23 24 25 23 22 22 23 23 24 26 30 34 38 42
83 79 69 60 52 44 36 36 33 29 27 26 23 22 19 17 15 15 15 15 13 12 12 12 14 14 13 15 18 17 13 14 16 16 16 18 19 20 25 32 33 37 39 42 44
85 81 75 68 61 53 45 39 33 29 27 24 21 18 15 14 13 10 9 9 10 11 11 11 12 11 12 12 11 12 12 14 14 17 21 20 28 36 44 44 43 44 50 52 52
81 79 76 71 65 62 55 46 40 34 31 27 28 23 20 17 15 13 10 9 10 11 12 13 13 14 13 12 11 9 12 16 21 28 34 34 33 43 48 49 53 53 52 56 55
77 71 71 70 70 65 59 52 47 43 38 34 32 30 28 24 22 21 18 16 15 14 13 15 13 16 19 22 19 17 17 20 22 37 43 44 45 49 50 56 56 56 57 56 56
76 78 74 70 69 68 65 61 57 52 46 45 40 37 34 33 33 30 28 24 24 21 19 17 13 16 19 20 22 23 25 22 23 29 40 48 54 56 53 56 58 60 63 62 56
66 70 72 74 70 66 65 65 65 61 56 50 46 44 42 43 43 40 35 30 29 24 22 18 13 12 17 18 20 20 27 27 29 32 47 52 57 57 53 56 58 60 63 61 62
58 60 63 69 70 69 65 64 63 61 60 59 56 52 49 46 45 45 40 35 33 31 26 22 24 18 16 16 16 20 23 27 23 33 56 55 59 52 51 54 59 59 60 60 64
57 54 54 58 62 62 64 62 59 59 59 60 61 59 56 54 51 46 41 37 32 31 30 25 20 20 19 25 19 14 9 11 17 21 36 57 59 57 52 51 55 62 62 61 63

GFSSW_250_spd_111.txt.gz
Wind_Speed
86 91 101 104 102 100 98 92 89 88 84 83 81 78 76 75 73 80 85 91 95 101 102 102 101 101 98 98 94 94 86 80 85 83 81 82 77 72 74 76 71 68 65 62 58
87 87 90 96 105 109 107 102 99 97 91 91 86 85 81 81 78 75 78 86 89 93 101 105 105 107 105 104 101 98 94 89 88 89 87 86 82 76 74 78 78 75 69 69 68
90 93 94 91 95 95 104 110 107 104 99 97 96 92 89 86 85 83 81 84 89 90 94 98 101 106 109 109 107 105 101 98 95 94 91 93 87 82 75 74 82 80 77 72 72
86 90 91 92 95 96 96 99 106 112 107 104 101 100 94 90 89 86 85 85 83 87 95 96 95 95 97 99 103 108 107 106 100 100 98 96 93 91 83 79 84 84 81 77 73
74 79 84 90 94 102 102 96 98 105 109 110 107 106 100 94 93 91 88 88 88 88 89 93 96 96 95 96 95 94 101 105 106 106 104 102 100 95 89 85 92 90 84 80 74
52 55 65 69 77 84 93 96 96 88 96 108 110 106 100 100 99 95 94 90 89 89 90 90 94 97 95 95 96 95 95 97 102 105 105 103 103 95 99 93 89 91 87 83 81
33 34 42 48 55 59 62 72 83 83 84 91 108 110 105 104 102 100 99 96 91 92 90 89 92 93 91 91 90 92 92 93 96 101 102 100 99 98 99 93 94 91 91 85 83
23 21 23 31 38 44 49 53 65 72 77 82 87 100 106 105 102 102 101 98 93 92 91 89 89 90 88 90 87 88 87 91 93 95 95 93 93 98 97 93 93 94 93 93 87
25 18 14 19 26 29 35 46 55 62 69 75 79 82 85 85 96 99 97 96 94 90 87 86 87 87 87 83 83 84 84 86 85 86 86 83 85 101 90 89 92 96 96 94 88
28 20 10 9 16 23 31 37 47 54 60 72 79 79 82 83 77 75 76 73 72 73 73 76 78 79 78 80 79 81 77 76 78 79 76 76 81 93 85 81 89 96 93 89 90
35 28 17 5 4 15 21 28 38 46 55 65 70 71 70 73 65 63 61 59 54 57 60 61 66 68 71 73 71 66 63 68 72 71 69 78 76 87 76 75 82 86 86 84 83
38 32 23 15 8 3 6 14 21 32 49 57 62 63 63 59 59 57 53 50 48 47 52 56 59 64 63 57 54 54 57 61 68 66 68 66 74 73 71 66 70 76 81 82 82
45 38 30 24 23 19 12 11 15 20 26 40 48 46 44 43 42 40 38 36 37 42 48 52 51 47 44 42 43 44 52 58 61 59 59 59 63 62 60 61 66 69 70 72 73
57 47 40 36 32 27 21 17 14 14 16 20 17 19 25 27 30 30 31 32 36 41 40 36 35 32 31 34 41 42 46 50 48 49 50 50 55 56 57 55 56 58 59 60 61
68 59 51 46 41 36 31 26 20 17 16 14 15 17 19 21 21 24 28 31 30 27 27 25 24 28 31 33 36 39 40 41 41 44 48 47 48 46 44 45 47 48 50 52 54
75 72 62 53 48 43 37 32 27 21 16 15 15 16 16 16 17 19 22 22 19 20 23 28 30 30 30 31 32 33 34 34 34 38 37 36 37 37 39 39 39 42 45 47 48
81 70 63 57 51 46 40 37 34 28 25 21 18 16 15 15 15 17 18 21 23 24 25 25 25 24 23 25 24 23 24 26 27 30 31 31 30 31 31 34 35 36 39 41 41
91 79 68 60 54 51 45 40 36 29 25 23 21 20 19 19 20 20 20 19 19 19 19 18 19 17 18 18 19 19 19 18 21 22 22 25 27 27 29 31 33 35 37 37 38
99 89 78 69 59 50 41 40 40 34 30 25 20 18 15 16 15 14 15 15 15 15 15 15 14 15 15 15 12 11 13 14 16 17 19 22 24 26 27 29 32 33 34 37 39
97 92 85 75 67 57 52 48 41 33 28 27 25 22 21 19 18 17 16 17 16 14 13 12 12 12 9 10 11 11 9 10 10 12 16 18 17 19 20 23 25 26 27 30 36
87 89 86 78 69 73 65 55 47 40 34 30 25 21 19 17 16 14 12 12 11 8 8 8 8 7 8 7 8 11 11 10 11 13 13 12 14 15 19 18 20 21 24 27 28
77 82 83 86 87 74 62 52 43 40 38 37 33 29 27 25 23 19 16 14 14 12 11 10 9 8 8 11 9 9 11 14 16 18 19 20 14 18 21 23 23 28 29 34 34
74 74 78 82 88 86 77 66 59 53 46 44 41 37 35 35 32 29 27 23 21 19 18 16 13 15 13 14 13 9 11 14 14 22 21 24 17 23 30 30 31 35 36 39 43
71 70 69 73 79 82 84 79 70 63 56 48 43 49 48 47 45 43 40 37 33 30 27 25 21 17 15 14 15 16 12 13 17 26 22 21 23 30 34 33 35 37 46 49 51
69 71 70 65 68 72 76 78 77 71 65 58 52 51 50 49 49 48 45 41 38 36 33 31 23 16 14 12 16 17 16 12 24 28 31 20 26 30 31 37 37 40 51 50 55
99 86 66 67 61 61 63 66 71 73 72 67 63 61 59 54 51 48 45 40 36 35 34 28 29 25 19 14 11 15 14 15 19 25 30 31 23 28 31 31 34 37 43 51 58
101 95 94 67 59 58 56 55 58 62 65 67 66 62 61 58 55 52 48 43 41 37 33 30 25 24 24 18 22 11 13 7 14 15 24 24 22 22 27 27 37 36 32 43 45

GFSSW_250_spd_114.txt.gz
Wind_Speed
91 94 89 81 78 83 90 102 102 102 99 96 92 88 82 77 77 78 85 91 94 101 101 103 101 102 101 100 98 98 94 95 93 87 84 84 82 79 76 73 69 65 64 66 64
93 89 87 88 83 77 80 86 96 105 105 102 98 95 90 84 83 81 77 76 81 92 99 103 105 101 102 104 102 99 97 97 96 91 87 86 86 83 79 78 76 71 68 68 69
74 81 80 79 79 84 78 82 86 96 110 107 104 101 96 92 86 85 82 78 77 81 87 95 100 106 106 106 106 103 99 99 97 93 92 89 89 87 82 81 84 79 73 69 71
61 66 66 72 75 78 78 78 79 85 96 112 109 105 101 97 96 90 86 84 82 79 78 78 86 92 102 104 107 105 103 104 103 97 94 92 92 91 88 85 88 88 80 72 71
50 54 58 66 69 76 80 80 81 79 89 93 112 108 106 104 101 96 93 91 89 88 86 84 83 83 87 92 99 97 103 106 105 105 99 99 101 102 95 95 92 91 87 80 75
38 38 38 52 67 73 75 78 78 83 81 88 90 109 112 111 110 102 98 94 91 90 88 86 85 85 85 85 88 92 96 100 104 107 106 106 108 109 109 101 98 96 92 87 80
24 25 30 38 55 63 66 73 78 84 88 84 85 91 108 115 110 103 98 96 93 92 93 90 90 90 89 89 88 87 88 90 93 98 100 101 104 107 109 107 101 99 96 90 89
21 16 18 28 40 50 54 55 66 77 84 88 90 92 93 106 116 110 105 104 101 96 96 96 94 94 93 92 90 89 90 90 87 91 91 91 90 99 102 103 100 99 98 92 89
27 17 8 12 23 32 38 42 48 63 80 82 89 94 94 95 104 112 109 106 104 101 100 98 97 97 97 97 94 93 90 88 88 85 85 88 84 93 99 98 94 95 95 96 94
41 27 15 3 8 17 24 30 37 53 73 78 88 95 97 96 91 93 102 106 106 104 103 102 102 99 98 98 96 93 91 89 91 88 83 83 79 83 94 95 86 90 94 97 89
55 39 26 16 10 4 6 20 35 49 62 69 75 88 95 95 87 87 88 92 96 102 103 102 101 101 100 97 96 95 94 93 91 83 77 77 68 75 92 89 80 84 86 87 87
69 51 35 28 19 17 13 7 22 37 45 52 58 69 79 84 84 82 77 71 72 79 83 87 85 85 89 92 88 84 85 79 77 70 64 65 67 75 85 78 72 74 75 78 80
79 69 50 39 32 25 23 17 10 17 25 31 46 55 61 67 68 63 63 60 60 60 61 60 63 63 65 70 72 74 69 64 62 63 60 61 62 69 72 62 59 64 67 68 69
84 78 70 53 42 35 29 23 16 9 6 5 11 34 44 46 49 49 51 52 50 47 47 48 51 56 64 66 62 54 53 53 51 52 48 47 54 54 51 49 48 55 58 58 58
90 82 75 68 57 43 37 30 24 18 13 9 7 6 6 15 22 24 29 29 33 37 43 49 51 48 46 43 41 40 40 39 40 40 40 39 43 39 42 39 41 48 52 53 60
98 84 76 66 62 54 46 38 30 25 20 17 13 14 15 19 21 24 26 29 33 32 30 29 31 32 31 31 31 29 30 29 30 29 29 32 34 33 37 37 36 43 50 54 58
105 94 79 71 62 55 50 45 39 30 26 23 20 17 16 14 14 17 18 18 19 21 23 23 24 23 22 19 18 20 18 20 22 25 23 26 26 26 29 30 33 38 42 45 48
100 102 91 75 66 61 51 46 44 39 32 26 23 21 20 18 17 17 16 16 14 14 16 15 15 12 11 12 13 14 15 14 15 17 18 18 19 19 21 23 26 29 32 35 38
92 97 96 86 73 65 58 52 44 38 36 33 31 28 26 22 19 17 15 14 14 12 11 11 11 11 11 13 12 11 10 9 11 12 12 13 14 15 17 18 20 23 26 27 28
87 87 85 87 84 78 74 55 46 39 34 32 32 30 28 25 23 20 18 16 14 13 13 13 12 12 12 12 11 9 8 10 9 8 8 8 9 11 12 13 17 20 22 24 27
88 85 82 81 85 92 72 62 53 45 39 34 29 27 26 26 24 22 21 18 16 15 13 12 11 11 11 10 7 10 10 8 7 7 5 5 8 9 9 11 13 14 17 21 25
105 84 79 80 82 84 86 76 63 54 46 41 37 34 30 27 23 22 19 17 15 15 13 14 14 14 13 14 13 11 10 11 13 11 9 9 4 7 4 7 8 6 9 14 17
116 105 85 78 77 76 77 80 80 67 56 50 47 47 45 44 42 38 35 33 32 28 26 25 23 22 21 18 17 12 14 17 16 10 8 8 6 8 7 10 12 9 10 14 14
106 111 114 83 74 71 71 73 77 79 74 62 51 47 46 47 45 44 46 42 37 35 31 28 27 24 20 17 15 13 11 13 11 10 10 3 4 14 15 16 16 15 19 17 19
99 102 109 109 82 71 66 64 65 69 72 72 68 61 55 49 45 44 44 42 42 40 34 31 28 20 18 11 9 6 7 3 11 14 11 8 7 11 8 16 13 17 23 27 27
95 97 102 103 104 83 69 64 60 61 61 63 65 66 63 60 55 50 46 41 39 37 36 31 28 25 15 12 12 8 5 5 7 8 16 13 7 7 10 8 12 21 22 30 31
89 93 98 95 98 91 85 69 60 57 54 56 56 58 59 59 56 55 53 50 47 42 36 30 26 25 21 17 15 15 5 7 6 4 9 9 7 14 10 9 8 24 20 31 36

GFSSW_250_spd_117.txt.gz
Wind_Speed
77 90 93 94 90 84 84 81 83 93 101 100 99 96 91 87 88 85 85 91 92 98 98 97 94 93 91 88 86 82 78 80 82 82 82 78 77 77 73 70 68 67 67 66 61
63 65 75 86 88 84 83 85 81 83 86 102 103 104 98 92 91 91 85 82 86 91 96 102 99 98 96 94 89 87 84 83 82 82 82 81 79 80 79 75 76 73 72 70 68
55 63 63 67 78 85 87 83 78 80 80 78 94 103 105 98 94 93 89 84 84 84 87 93 98 99 101 98 94 90 89 89 87 88 87 86 86 85 83 82 84 79 74 72 72
39 46 56 62 64 69 78 81 80 83 78 77 82 82 100 105 102 96 92 90 88 84 81 82 87 94 98 100 101 97 95 96 96 92 91 91 92 90 90 94 90 84 81 77 75
23 30 36 41 58 61 64 69 75 79 76 75 72 68 84 96 103 98 97 97 91 86 82 80 79 81 86 93 96 98 100 102 103 102 98 99 100 99 100 98 93 89 85 83 79
24 21 24 26 40 56 59 61 65 67 70 70 75 73 75 78 97 104 102 96 94 91 87 84 82 79 80 81 86 92 101 102 103 104 106 104 104 101 104 97 99 96 91 87 85
32 23 19 19 30 45 52 57 60 62 68 71 75 73 73 74 81 100 103 101 96 94 93 90 86 84 82 82 80 81 85 90 100 107 108 107 108 107 105 104 104 102 99 93 89
41 29 19 13 20 29 37 44 52 59 64 70 74 73 74 78 79 84 93 102 101 96 95 94 90 88 87 84 83 81 82 80 80 82 86 91 91 101 106 106 107 106 104 102 97
55 40 24 13 8 13 20 25 35 53 60 62 70 73 77 78 80 72 71 88 101 101 97 97 97 94 89 87 89 88 86 84 84 83 79 76 75 87 91 92 94 99 102 101 101
66 54 38 23 10 4 2 11 17 34 47 53 59 69 74 76 73 69 69 72 93 103 102 100 98 96 93 93 93 92 91 93 91 85 81 78 74 80 86 84 86 92 96 97 94
70 64 49 32 18 13 11 7 14 26 29 39 52 58 67 73 74 74 69 68 69 77 97 100 99 97 96 95 93 95 96 95 92 90 85 82 80 87 88 90 88 89 91 90 88
74 71 60 44 32 21 19 14 6 13 27 38 48 55 63 72 74 72 70 68 68 68 72 83 100 101 101 99 97 98 99 98 96 93 88 90 85 82 83 87 84 84 81 82 84
80 73 69 58 46 35 30 26 19 8 8 19 35 49 58 69 75 76 75 73 70 69 67 70 78 94 100 100 102 102 99 97 91 87 78 77 70 75 73 78 76 70 69 73 80
88 78 70 65 56 45 35 30 28 23 15 7 19 35 50 58 65 68 66 67 69 69 65 63 65 72 79 83 82 78 84 83 78 78 75 60 55 65 65 54 57 59 64 68 66
100 87 74 66 64 57 47 38 30 27 26 17 8 19 33 43 48 53 57 59 57 58 53 52 51 53 54 57 62 67 64 63 62 62 60 48 48 54 44 48 46 46 50 55 56
107 96 83 69 62 61 55 48 40 30 25 22 22 21 19 20 31 37 42 41 44 45 45 48 51 55 58 56 56 56 55 55 53 51 43 39 37 38 34 37 36 37 44 49 53
103 102 92 78 65 58 57 54 49 43 31 25 22 20 19 19 22 25 27 31 37 41 43 43 43 45 44 41 39 37 35 34 32 31 27 27 25 22 24 26 27 31 37 42 46
94 100 98 86 78 66 57 51 48 44 41 34 29 23 20 18 17 19 21 23 25 25 26 25 27 27 23 21 20 22 23 19 16 16 18 18 17 14 16 18 20 23 30 34 40
103 93 96 93 82 73 67 56 45 44 41 39 36 34 29 24 21 19 16 15 15 15 16 16 16 14 14 16 14 11 11 12 14 14 11 10 7 9 10 13 15 17 20 25 27
121 105 91 90 87 87 82 64 51 45 41 39 37 35 32 30 27 25 23 21 20 18 17 16 15 14 14 14 13 12 12 12 9 6 7 5 3 3 4 7 10 14 15 18 21
116 123 106 87 85 93 80 73 64 55 47 43 39 35 31 30 28 26 25 22 20 18 16 15 14 15 13 13 15 14 11 10 7 6 5 2 2 2 3 2 4 6 10 14 17
103 114 116 112 89 83 80 78 76 68 57 50 45 42 38 33 28 24 21 18 16 14 13 12 11 10 12 13 15 13 12 11 9 6 7 8 5 4 3 3 4 4 1 2 8
106 103 107 109 117 92 79 76 75 73 72 60 53 47 45 42 40 35 30 27 25 21 18 18 21 20 16 17 16 11 12 11 8 5 8 8 7 3 4 6 6 9 10 9 8
101 102 106 100 107 108 96 77 73 70 69 68 66 59 54 52 48 45 43 39 36 35 33 30 26 24 20 16 11 12 7 4 4 4 6 8 8 8 4 3 9 15 14 14 15
89 96 99 101 95 102 103 99 80 70 66 64 64 63 64 62 58 54 52 48 44 41 37 30 30 30 31 23 16 16 17 22 12 10 9 6 12 9 7 11 8 9 16 17 12
76 85 93 95 94 99 98 100 101 87 67 63 57 57 58 58 59 59 56 54 50 45 39 36 32 28 30 29 23 23 25 20 18 26 19 26 16 14 5 7 10 8 14 23 10
70 73 81 91 91 89 92 91 92 95 91 68 58 54 50 49 52 52 52 52 50 49 47 41 36 31 29 28 28 24 20 19 19 18 16 15 20 18 15 15 12 5 6 16 20